[[{"header":{"parameterUnit":"m.s-1","parameterCategory":1,"la1":30.6,"la2":29.2853,"lo1":-89.7004,"lo2":-87.6739,"dy":0.0162,"dx":0.0183,"nx":112,"ny":82,"refTime":"2024-09-07T18:00:00:Z","depth":0,"parameterNumber":2,"parameterNumberName":"U-component_of_WINDS"},"data":[0.0,0.0,0.0,0.0,0.0,0.0,0.0,0.0,0.0,0.0,0.0,0.0,0.0,0.0,0.0,0.0,0.0,0.0,0.0,0.0,0.0,0.0,0.0,0.0,0.0,0.0,0.0,0.0,0.0,0.0,0.0,0.0,0.0,0.0,0.0,0.0,0.0,0.0,0.0,0.0,0.0,0.0,0.0,0.0,0.0,0.0,0.0,0.0,0.0,0.0,0.0,0.0,0.0,0.0,0.0,0.0,0.0,0.0,0.0,0.0,0.0,0.0,0.0,0.0,0.0,0.0,0.0,0.0,0.0,0.0,0.0,0.0,0.0,0.0,0.0,0.0,0.0,0.0,0.0,0.0,0.0,0.0,0.0,0.0,0.0,0.0,0.0,0.0,0.0,0.0,-3.3935,-3.5377,-3.6519,-3.7362,-3.7809,-3.5705,-3.4275,-3.3991,0.0,0.0,0.0,0.0,0.0,0.0,0.0,0.0,0.0,0.0,0.0,0.0,0.0,0.0,0.0,0.0,0.0,0.0,0.0,0.0,0.0,0.0,0.0,0.0,0.0,0.0,0.0,0.0,0.0,0.0,0.0,0.0,0.0,0.0,0.0,0.0,0.0,0.0,0.0,0.0,0.0,0.0,0.0,0.0,0.0,0.0,0.0,0.0,0.0,0.0,0.0,0.0,0.0,0.0,0.0,0.0,0.0,0.0,0.0,0.0,0.0,0.0,0.0,0.0,0.0,0.0,0.0,0.0,0.0,0.0,0.0,0.0,0.0,0.0,0.0,0.0,0.0,0.0,0.0,0.0,0.0,0.0,0.0,0.0,0.0,0.0,0.0,0.0,0.0,0.0,0.0,0.0,0.0,0.0,0.0,0.0,0.0,0.0,0.0,0.0,0.0,0.0,0.0,0.0,-3.4655,-3.6684,-3.7273,-3.7578,-3.7649,-3.6454,-3.5078,-3.3523,0.0,0.0,0.0,0.0,0.0,0.0,0.0,0.0,0.0,0.0,0.0,0.0,0.0,0.0,0.0,0.0,0.0,0.0,0.0,0.0,0.0,0.0,0.0,0.0,0.0,0.0,0.0,0.0,0.0,0.0,0.0,0.0,0.0,0.0,0.0,0.0,0.0,0.0,0.0,0.0,0.0,0.0,0.0,0.0,0.0,0.0,0.0,0.0,0.0,0.0,0.0,0.0,0.0,0.0,0.0,0.0,0.0,0.0,0.0,0.0,0.0,0.0,0.0,0.0,0.0,0.0,0.0,0.0,0.0,0.0,0.0,0.0,0.0,0.0,0.0,0.0,0.0,0.0,0.0,0.0,0.0,0.0,0.0,0.0,0.0,0.0,0.0,0.0,0.0,0.0,0.0,0.0,0.0,0.0,0.0,0.0,0.0,0.0,0.0,0.0,0.0,0.0,0.0,-3.3861,-3.528,-3.7397,-3.7484,-3.7367,-3.7367,-3.6284,-3.4909,-3.341,-3.1495,0.0,0.0,0.0,0.0,0.0,0.0,0.0,0.0,0.0,0.0,0.0,0.0,0.0,0.0,0.0,0.0,0.0,0.0,0.0,0.0,0.0,0.0,0.0,0.0,0.0,0.0,0.0,0.0,0.0,0.0,0.0,0.0,0.0,0.0,0.0,0.0,0.0,0.0,0.0,0.0,0.0,0.0,0.0,0.0,0.0,0.0,0.0,0.0,0.0,0.0,0.0,0.0,0.0,0.0,0.0,0.0,0.0,0.0,0.0,0.0,0.0,0.0,0.0,0.0,0.0,0.0,0.0,0.0,0.0,0.0,0.0,0.0,0.0,0.0,0.0,0.0,0.0,0.0,0.0,0.0,0.0,0.0,0.0,0.0,0.0,0.0,0.0,0.0,0.0,0.0,0.0,0.0,0.0,0.0,0.0,0.0,0.0,0.0,0.0,0.0,0.0,0.0,-3.4919,-3.5918,-3.7781,-3.7505,-3.7192,-3.7192,-3.5693,-3.4257,-3.3188,-3.1555,0.0,0.0,0.0,0.0,0.0,0.0,0.0,0.0,0.0,0.0,0.0,0.0,0.0,0.0,0.0,0.0,0.0,0.0,0.0,0.0,0.0,0.0,0.0,0.0,0.0,0.0,0.0,0.0,0.0,0.0,0.0,0.0,0.0,0.0,0.0,0.0,0.0,0.0,0.0,0.0,0.0,0.0,0.0,0.0,0.0,0.0,0.0,0.0,0.0,0.0,0.0,0.0,0.0,0.0,0.0,0.0,0.0,0.0,0.0,0.0,0.0,0.0,0.0,0.0,0.0,0.0,0.0,0.0,0.0,0.0,0.0,0.0,0.0,0.0,0.0,0.0,0.0,0.0,0.0,0.0,0.0,0.0,0.0,0.0,0.0,0.0,0.0,0.0,0.0,0.0,0.0,0.0,0.0,0.0,0.0,0.0,0.0,0.0,0.0,0.0,0.0,0.0,-3.5376,-3.6723,-3.7866,-3.7505,-3.7192,-3.7192,-3.4895,-3.32,-3.2599,-3.0116,0.0,0.0,0.0,0.0,0.0,0.0,0.0,0.0,0.0,0.0,0.0,0.0,0.0,0.0,0.0,0.0,0.0,0.0,0.0,0.0,0.0,0.0,0.0,0.0,0.0,0.0,0.0,0.0,0.0,0.0,0.0,0.0,0.0,0.0,0.0,0.0,0.0,0.0,0.0,0.0,0.0,0.0,0.0,0.0,0.0,0.0,0.0,0.0,0.0,0.0,0.0,0.0,0.0,0.0,0.0,0.0,0.0,0.0,0.0,0.0,0.0,0.0,0.0,0.0,0.0,0.0,0.0,0.0,0.0,0.0,0.0,0.0,0.0,0.0,0.0,0.0,0.0,0.0,0.0,0.0,0.0,0.0,0.0,0.0,0.0,0.0,0.0,0.0,0.0,0.0,0.0,0.0,0.0,0.0,0.0,0.0,0.0,0.0,0.0,0.0,0.0,0.0,-3.4655,-3.6086,-3.7793,-3.7216,-3.6699,-3.6699,-3.4895,-3.3104,-3.1577,0.0,0.0,0.0,0.0,0.0,0.0,0.0,0.0,0.0,0.0,0.0,0.0,0.0,0.0,0.0,0.0,0.0,0.0,0.0,0.0,0.0,0.0,0.0,0.0,0.0,0.0,0.0,0.0,0.0,0.0,0.0,0.0,0.0,0.0,0.0,0.0,0.0,0.0,0.0,0.0,0.0,0.0,0.0,0.0,0.0,0.0,0.0,0.0,0.0,0.0,0.0,0.0,0.0,0.0,0.0,0.0,0.0,0.0,0.0,0.0,0.0,0.0,0.0,0.0,0.0,0.0,0.0,0.0,0.0,0.0,0.0,0.0,0.0,0.0,0.0,0.0,0.0,0.0,0.0,0.0,0.0,0.0,0.0,0.0,0.0,0.0,0.0,0.0,0.0,0.0,0.0,0.0,0.0,0.0,0.0,0.0,0.0,0.0,0.0,0.0,0.0,0.0,-3.3165,-3.4727,-3.6265,-3.8057,-3.7294,-3.6614,-3.6512,-3.4727,-3.2858,-3.1031,0.0,0.0,0.0,0.0,0.0,0.0,0.0,0.0,0.0,0.0,0.0,0.0,0.0,0.0,0.0,0.0,0.0,0.0,0.0,0.0,0.0,0.0,0.0,0.0,0.0,0.0,0.0,0.0,0.0,0.0,0.0,0.0,0.0,0.0,0.0,0.0,0.0,0.0,0.0,0.0,0.0,0.0,0.0,0.0,0.0,0.0,0.0,0.0,0.0,0.0,0.0,0.0,0.0,0.0,0.0,0.0,0.0,0.0,0.0,0.0,0.0,0.0,0.0,0.0,0.0,0.0,0.0,0.0,0.0,0.0,0.0,0.0,0.0,0.0,0.0,0.0,0.0,0.0,0.0,0.0,0.0,0.0,0.0,0.0,0.0,0.0,0.0,0.0,0.0,0.0,0.0,0.0,0.0,0.0,0.0,0.0,0.0,0.0,0.0,0.0,0.0,0.0,-3.3789,-3.5891,-3.7586,-3.8666,-3.7819,-3.708,-3.6816,-3.4348,-3.2253,0.0,0.0,0.0,0.0,0.0,0.0,0.0,0.0,0.0,0.0,0.0,0.0,0.0,0.0,0.0,0.0,0.0,0.0,0.0,0.0,0.0,0.0,0.0,0.0,0.0,0.0,0.0,0.0,0.0,0.0,0.0,0.0,0.0,0.0,0.0,0.0,0.0,0.0,0.0,0.0,0.0,0.0,0.0,0.0,0.0,0.0,0.0,0.0,0.0,0.0,0.0,0.0,0.0,0.0,0.0,0.0,0.0,0.0,0.0,0.0,0.0,0.0,0.0,0.0,0.0,0.0,0.0,0.0,0.0,0.0,0.0,0.0,0.0,0.0,0.0,0.0,0.0,0.0,0.0,0.0,0.0,0.0,0.0,0.0,0.0,0.0,0.0,0.0,0.0,0.0,0.0,0.0,0.0,0.0,0.0,0.0,0.0,0.0,0.0,0.0,0.0,0.0,0.0,-3.3789,-3.5891,-3.745,-3.815,-3.7598,-3.7021,-3.6541,-3.5072,-3.3236,-3.0978,0.0,0.0,0.0,0.0,0.0,0.0,0.0,0.0,0.0,0.0,0.0,0.0,0.0,0.0,0.0,0.0,0.0,0.0,0.0,0.0,0.0,0.0,0.0,0.0,0.0,0.0,0.0,0.0,0.0,0.0,0.0,0.0,0.0,0.0,0.0,0.0,0.0,0.0,0.0,0.0,0.0,0.0,0.0,0.0,0.0,0.0,0.0,0.0,0.0,0.0,0.0,0.0,0.0,0.0,0.0,0.0,0.0,0.0,0.0,0.0,0.0,0.0,0.0,0.0,0.0,0.0,0.0,0.0,0.0,0.0,0.0,0.0,0.0,0.0,0.0,0.0,0.0,0.0,0.0,0.0,0.0,0.0,0.0,0.0,0.0,0.0,0.0,0.0,0.0,0.0,0.0,0.0,0.0,0.0,0.0,0.0,0.0,0.0,0.0,0.0,0.0,0.0,-3.4061,-3.618,-3.7729,-3.8287,-3.7853,-3.7246,-3.6603,-3.5777,-3.4163,-3.1607,0.0,0.0,0.0,0.0,0.0,0.0,0.0,0.0,0.0,0.0,0.0,0.0,0.0,0.0,0.0,0.0,0.0,0.0,0.0,0.0,0.0,0.0,0.0,0.0,0.0,0.0,0.0,0.0,0.0,0.0,0.0,0.0,0.0,0.0,0.0,0.0,0.0,0.0,0.0,0.0,0.0,0.0,0.0,0.0,0.0,0.0,0.0,0.0,0.0,0.0,0.0,0.0,0.0,0.0,0.0,0.0,0.0,0.0,0.0,0.0,0.0,0.0,0.0,0.0,0.0,0.0,0.0,0.0,0.0,0.0,0.0,0.0,0.0,0.0,0.0,0.0,0.0,0.0,0.0,0.0,0.0,0.0,0.0,0.0,0.0,0.0,0.0,0.0,0.0,0.0,0.0,0.0,0.0,0.0,0.0,0.0,0.0,0.0,0.0,0.0,0.0,0.0,-3.4449,-3.6571,-3.8177,-3.8705,-3.8241,-3.7603,-3.6846,-3.6324,-3.5012,-3.2617,0.0,0.0,0.0,0.0,0.0,0.0,0.0,0.0,0.0,0.0,0.0,0.0,0.0,0.0,0.0,0.0,0.0,0.0,0.0,0.0,0.0,0.0,0.0,0.0,0.0,0.0,0.0,0.0,0.0,0.0,0.0,0.0,0.0,0.0,0.0,0.0,0.0,0.0,0.0,0.0,0.0,0.0,0.0,0.0,0.0,0.0,0.0,0.0,0.0,0.0,0.0,0.0,0.0,0.0,0.0,0.0,0.0,0.0,0.0,0.0,-3.6659,0.0,0.0,0.0,0.0,0.0,0.0,0.0,0.0,0.0,0.0,0.0,0.0,0.0,0.0,0.0,0.0,0.0,0.0,0.0,0.0,0.0,0.0,0.0,0.0,0.0,0.0,0.0,0.0,0.0,0.0,0.0,0.0,0.0,0.0,0.0,0.0,0.0,0.0,0.0,0.0,0.0,-3.4035,-3.6193,-3.7655,-3.7574,-3.7437,-3.7136,-3.6536,-3.6386,-3.5336,-3.3077,-3.2827,0.0,0.0,0.0,0.0,0.0,0.0,0.0,0.0,0.0,0.0,0.0,0.0,0.0,0.0,0.0,0.0,0.0,0.0,0.0,0.0,0.0,0.0,0.0,0.0,0.0,0.0,0.0,0.0,0.0,0.0,0.0,0.0,0.0,0.0,0.0,0.0,0.0,0.0,0.0,0.0,0.0,0.0,0.0,0.0,0.0,0.0,0.0,0.0,0.0,0.0,0.0,0.0,0.0,0.0,0.0,0.0,0.0,0.0,0.0,0.0,-3.7825,0.0,0.0,0.0,0.0,0.0,0.0,0.0,0.0,0.0,0.0,0.0,0.0,0.0,0.0,0.0,0.0,0.0,0.0,0.0,0.0,0.0,0.0,0.0,0.0,0.0,0.0,0.0,0.0,0.0,0.0,0.0,0.0,0.0,0.0,0.0,0.0,0.0,0.0,0.0,0.0,-3.4578,-3.6459,-3.7667,-3.7571,-3.7523,-3.7343,-3.6785,-3.6734,-3.6125,-3.4749,-3.3855,0.0,0.0,0.0,0.0,0.0,0.0,0.0,0.0,0.0,0.0,0.0,0.0,0.0,0.0,0.0,0.0,0.0,0.0,0.0,0.0,0.0,0.0,0.0,0.0,0.0,0.0,0.0,0.0,0.0,0.0,0.0,0.0,0.0,0.0,0.0,0.0,0.0,0.0,0.0,0.0,0.0,0.0,0.0,0.0,0.0,0.0,0.0,0.0,0.0,0.0,0.0,0.0,0.0,-4.3816,-4.3858,-4.3785,-4.4499,-4.5194,-4.5717,-4.4032,-4.2737,-4.1796,-4.0362,0.0,0.0,0.0,0.0,0.0,0.0,0.0,0.0,0.0,0.0,0.0,0.0,0.0,0.0,0.0,0.0,0.0,0.0,0.0,0.0,0.0,0.0,0.0,0.0,-3.8423,-3.8395,0.0,0.0,0.0,0.0,0.0,0.0,0.0,0.0,0.0,0.0,0.0,0.0,-3.5186,-3.6762,-3.7813,-3.7753,-3.7753,-3.7561,-3.7147,-3.7108,-3.6865,-3.6347,-3.5012,-3.4191,0.0,0.0,0.0,0.0,0.0,0.0,0.0,0.0,0.0,0.0,0.0,0.0,0.0,0.0,0.0,0.0,0.0,0.0,0.0,0.0,0.0,0.0,0.0,0.0,0.0,0.0,0.0,0.0,0.0,0.0,0.0,0.0,-3.945,-3.9678,0.0,0.0,0.0,0.0,0.0,0.0,0.0,0.0,0.0,0.0,0.0,0.0,0.0,-4.5355,-4.5847,-4.7206,-4.7446,-4.6732,-4.8718,-4.9326,-4.8791,-4.9463,-4.9827,-4.9913,-4.9628,0.0,-4.3471,-4.3019,0.0,0.0,0.0,0.0,0.0,0.0,0.0,0.0,0.0,0.0,0.0,0.0,0.0,0.0,0.0,0.0,0.0,0.0,0.0,0.0,0.0,0.0,-4.1823,-4.0346,-4.0736,-4.1126,0.0,-3.8191,-3.6675,-3.5942,-3.5538,0.0,0.0,0.0,0.0,0.0,0.0,0.0,-3.4794,-3.638,-3.7469,-3.7224,-3.7224,-3.7198,-3.7121,-3.7108,-3.6865,-3.6347,-3.6103,-3.5769,-3.5326,-3.3704,0.0,0.0,0.0,0.0,0.0,0.0,0.0,0.0,0.0,0.0,0.0,0.0,0.0,0.0,0.0,0.0,0.0,0.0,0.0,0.0,0.0,0.0,0.0,0.0,0.0,0.0,0.0,0.0,0.0,-3.9987,-4.155,-4.1566,-4.1753,-4.1607,0.0,0.0,0.0,0.0,0.0,0.0,0.0,0.0,0.0,-4.668,-4.7096,-4.7579,-4.8203,-4.9255,-4.9593,-4.9232,-5.0593,-5.1113,-5.0851,-5.1513,-5.1821,-5.179,-5.1021,-4.9564,-4.7519,-4.5687,-4.359,-4.1478,0.0,0.0,0.0,0.0,-4.0224,-4.0449,-4.2321,-4.2847,0.0,-4.2847,0.0,0.0,0.0,0.0,0.0,0.0,0.0,0.0,0.0,0.0,-4.1802,-4.107,-4.1251,-4.1435,-4.1018,-4.0184,-3.9093,0.0,-3.7389,-3.6878,-3.5528,0.0,0.0,0.0,0.0,-3.596,-3.5976,-3.6981,-3.7657,-3.7551,-3.7551,-3.7551,-3.7551,-3.7551,-3.7448,-3.7202,-3.6865,-3.6567,-3.6365,-3.5184,-3.4504,0.0,0.0,0.0,0.0,0.0,0.0,0.0,0.0,0.0,0.0,0.0,0.0,0.0,0.0,0.0,0.0,0.0,0.0,0.0,0.0,0.0,0.0,0.0,0.0,0.0,0.0,0.0,0.0,-4.2117,-4.331,-4.3125,-4.3417,-4.3294,0.0,0.0,0.0,0.0,0.0,0.0,-4.6296,-4.6696,-4.7511,-4.8866,-4.9404,-5.0005,-5.0713,-5.1051,-5.1205,-5.1221,-5.1728,-5.1959,-5.1975,-5.2483,-5.2713,-5.2652,-5.1467,-5.0959,-5.0731,-4.7643,-4.5607,-4.4238,-4.2852,-4.2159,-4.2049,-4.2722,-4.2806,-4.2816,-4.4788,-4.5424,-4.5317,-4.5183,0.0,-4.42,-4.2618,0.0,0.0,0.0,0.0,-4.2442,-4.2546,-4.2514,-4.2395,-4.2115,-4.2248,-4.2284,-4.1782,-4.1881,-4.1444,0.0,-3.8942,-3.8428,-3.6812,0.0,0.0,0.0,0.0,-3.6502,-3.6946,-3.7534,-3.79,-3.79,-3.79,-3.79,-3.79,-3.79,-3.79,-3.79,-3.7482,-3.7233,-3.7233,-3.6538,-3.5885,-3.5457,0.0,0.0,0.0,0.0,0.0,0.0,0.0,0.0,0.0,0.0,0.0,0.0,0.0,0.0,0.0,0.0,0.0,0.0,0.0,0.0,0.0,0.0,0.0,0.0,0.0,0.0,0.0,0.0,0.0,-4.4594,-4.5603,0.0,0.0,0.0,0.0,-4.5434,-4.6665,-4.7711,-4.8419,-4.9728,-5.1051,-5.2406,-5.2483,-5.2837,-5.3514,-5.2914,-5.2606,-5.2606,-5.2652,-5.2667,-5.2667,-5.2698,-5.2713,-5.2667,-5.1959,-5.1652,-5.1392,-4.8477,-4.6705,-4.5784,-4.4805,-4.3932,-4.3329,-4.4188,-4.4868,-4.5617,-4.7247,-4.7406,-4.7088,-4.8347,-4.6929,-4.4786,-4.467,-4.3567,0.0,0.0,-4.3464,-4.3803,-4.4337,-4.501,-4.5312,-4.4406,-4.4854,-4.5038,-4.3115,-4.345,-4.3413,0.0,-3.9913,-3.9351,-3.8697,0.0,-3.692,-3.692,-3.6946,-3.6972,-3.6998,-3.7534,-3.79,-3.79,-3.79,-3.79,-3.79,-3.79,-3.79,-3.79,-3.7874,-3.7861,-3.7861,-3.7286,-3.6946,-3.6875,-3.5805,0.0,0.0,0.0,0.0,0.0,0.0,0.0,0.0,0.0,0.0,0.0,0.0,0.0,0.0,0.0,0.0,0.0,0.0,0.0,0.0,0.0,0.0,0.0,0.0,0.0,0.0,0.0,0.0,-4.6449,-4.6942,0.0,-4.6573,-4.6742,-4.7065,-4.7511,-4.8404,-4.962,-5.1174,-5.1713,-5.2606,-5.3914,-5.396,-5.3868,-5.3729,-5.3483,-5.3144,-5.2713,-5.2713,-5.2713,-5.2713,-5.2713,-5.2713,-5.2667,-5.199,-5.1698,-5.159,-5.0088,-4.9319,-4.8928,-4.8159,-4.7973,-4.8032,-4.7925,-4.8052,-4.8277,-4.8347,-4.8217,-4.8094,-4.8431,-4.787,-4.7011,-4.6885,-4.6451,-4.6032,-4.6271,-4.5961,-4.5593,-4.5781,-4.5434,-4.4932,-4.4563,-4.467,-4.4624,-4.3923,-4.4078,-4.4008,-4.308,-4.191,-4.0693,-3.9472,-3.8945,-3.8436,-3.7691,-3.7874,-3.7978,-3.7625,-3.7769,-3.79,-3.79,-3.79,-3.79,-3.79,-3.79,-3.79,-3.79,-3.79,-3.79,-3.79,-3.7691,-3.7403,-3.7011,-3.6227,-3.5182,0.0,0.0,0.0,0.0,0.0,0.0,0.0,0.0,0.0,0.0,0.0,0.0,0.0,0.0,0.0,0.0,0.0,0.0,0.0,0.0,0.0,0.0,0.0,0.0,0.0,-4.5418,-4.668,-4.7804,-4.8358,-4.8558,-4.8327,-4.8727,-4.9174,-4.962,-5.0313,-5.139,-5.296,-5.3268,-5.3914,-5.5022,-5.5053,-5.4745,-5.4022,-5.3791,-5.3375,-5.2713,-5.2713,-5.2713,-5.2713,-5.2713,-5.2713,-5.2698,-5.2236,-5.2052,-5.199,-5.1313,-5.1174,-5.1282,-5.0374,-5.0159,-5.0297,-4.9851,-4.9528,-4.9251,-4.8773,-4.862,-4.8578,-4.8453,-4.8412,-4.837,-4.8244,-4.8202,-4.8202,-4.8202,-4.7664,-4.7118,-4.7118,-4.6432,-4.5735,-4.5615,-4.5494,-4.5281,-4.49,-4.5052,-4.5098,-4.4452,-4.3416,-4.2371,-4.1342,-4.0747,-4.0124,-3.9356,-3.8957,-3.8579,-3.8227,-3.8018,-3.79,-3.79,-3.79,-3.79,-3.79,-3.79,-3.79,-3.79,-3.79,-3.79,-3.79,-3.7704,-3.7416,-3.7011,-3.6815,-3.6162,-3.5051,0.0,0.0,0.0,0.0,0.0,0.0,0.0,0.0,0.0,0.0,0.0,0.0,0.0,0.0,0.0,0.0,0.0,0.0,0.0,0.0,0.0,0.0,0.0,-4.5649,-4.6819,-4.7927,-4.862,-4.9928,-5.054,-4.9878,-5.1049,-5.1834,-5.1775,-5.239,-5.3067,-5.3745,-5.436,-5.5053,-5.5699,-5.5715,-5.5407,-5.4729,-5.4099,-5.3361,-5.2744,-5.2729,-5.2713,-5.2713,-5.2713,-5.2713,-5.2713,-5.2713,-5.2713,-5.2667,-5.2006,-5.2113,-5.259,-5.1251,-5.0343,-4.9774,-4.9743,-4.9251,-4.862,-4.862,-4.862,-4.862,-4.862,-4.862,-4.862,-4.862,-4.862,-4.862,-4.862,-4.8453,-4.8286,-4.8286,-4.8175,-4.7922,-4.7681,-4.7624,-4.7307,-4.6107,-4.6638,-4.6741,-4.4776,-4.4406,-4.4359,-4.4266,-4.2968,-4.1924,-4.1863,-4.0059,0.0,-3.8736,-3.8266,-3.7939,-3.7952,-3.7939,-3.7939,-3.7952,-3.7939,-3.7926,-3.7926,-3.7913,-3.7913,-3.7926,-3.7364,-3.7063,-3.709,-3.7665,-3.7952,-3.7952,0.0,0.0,0.0,0.0,0.0,0.0,0.0,0.0,0.0,0.0,0.0,0.0,0.0,0.0,0.0,0.0,0.0,0.0,0.0,0.0,0.0,-4.5917,-4.7448,-4.709,-4.8235,-4.9543,-5.0713,-5.1912,-5.258,-5.2393,-5.3666,-5.4212,-5.3714,-5.3958,-5.4453,-5.5114,-5.533,-5.5745,-5.6486,-5.6517,-5.613,-5.5438,-5.4776,-5.4068,-5.3437,-5.2944,-5.2713,-5.2713,-5.2713,-5.2713,-5.2713,-5.2713,-5.2713,-5.2698,-5.2513,-5.2544,-5.2637,-5.1759,-5.1621,-5.1759,-5.0774,-4.9651,-4.862,-4.862,-4.862,-4.862,-4.862,-4.862,-4.862,-4.862,-4.862,-4.862,-4.862,-4.8578,-4.8537,-4.8537,-4.837,-4.816,-4.7922,-4.788,-4.7709,-4.7047,-4.7236,-4.7322,-4.6594,-4.6462,-4.5793,-4.3592,-4.2849,-4.2172,-4.0984,-4.0329,0.0,-3.9416,-3.8854,-3.8658,-3.9102,-3.8749,-3.8671,-3.9102,-3.8736,-3.8488,-3.8488,-3.8122,-3.8083,-3.8462,-3.8331,-3.8449,-3.888,-3.905,-3.9141,0.0,0.0,0.0,0.0,0.0,0.0,0.0,0.0,0.0,0.0,0.0,0.0,0.0,0.0,0.0,0.0,0.0,0.0,0.0,0.0,0.0,0.0,-4.805,-4.9564,-4.9858,-5.0595,-5.1429,-5.2283,-5.3437,-5.4107,-5.4107,-5.5139,-5.5536,-5.492,-5.499,-5.524,-5.5653,-5.5684,-5.6118,-5.7052,-5.7083,-5.6742,-5.603,-5.5658,-5.4993,-5.4083,-5.3452,-5.3144,-5.3144,-5.3144,-5.3144,0.0,-5.3437,-5.3391,-5.316,-5.3437,-5.3221,0.0,0.0,0.0,0.0,0.0,-4.9574,-4.862,-4.862,-4.862,-4.862,-4.862,-4.862,-4.862,-4.862,-4.862,-4.862,-4.862,-4.862,-4.862,-4.862,-4.8495,-4.837,-4.816,-4.8049,-4.788,-4.751,-4.7467,-4.7424,-4.7309,-4.7309,0.0,-4.4424,-4.405,-4.3737,-4.2826,-4.2093,-4.1395,-4.0686,-4.0066,-3.9653,-3.9621,-3.9298,-3.9233,-3.9586,-3.9285,0.0,0.0,0.0,-3.8645,-3.871,-3.871,0.0,0.0,0.0,0.0,0.0,0.0,0.0,0.0,-4.0566,-4.0911,0.0,0.0,0.0,0.0,0.0,0.0,0.0,0.0,0.0,0.0,0.0,0.0,0.0,0.0,0.0,0.0,-5.0367,-5.1792,-5.3107,-5.3339,-5.3392,-5.349,-5.4577,-5.5265,-5.5186,-5.6005,-5.6302,-5.5789,-5.5806,-5.5843,-5.5966,0.0,0.0,0.0,0.0,-5.7277,-5.6714,-5.6636,-5.6015,-5.4962,-5.4283,-5.3959,-5.3959,-5.3929,-5.3883,-5.3914,-5.4468,-5.4345,-5.3837,-5.4437,-5.3929,-5.2821,-5.2744,-5.2298,-5.1559,-5.0266,-4.9343,-4.8727,-4.8635,0.0,0.0,-4.862,-4.862,-4.862,-4.862,-4.862,-4.862,-4.862,-4.862,-4.862,-4.862,-4.862,-4.8537,-4.8328,-4.816,-4.7964,-4.7666,-4.7467,-4.7352,-4.7294,-4.7309,-4.7019,-4.6107,-4.5869,-4.5779,-4.5644,-4.4416,-4.3134,-4.2134,-4.1536,-4.0837,-3.9878,0.0,0.0,-3.9795,-3.9743,-3.9703,-3.9703,-3.9703,-3.9494,-3.9024,-3.9063,-3.9886,-4.1572,-4.1598,-4.2383,-4.3964,-4.4487,-4.4238,-4.3297,-4.2278,-4.2579,0.0,0.0,0.0,0.0,0.0,0.0,0.0,0.0,0.0,0.0,0.0,0.0,0.0,0.0,0.0,-5.0119,-5.1957,-5.3483,-5.4361,-5.4764,-5.473,-5.4028,-5.5498,-5.6315,-5.5724,-5.7352,-5.8154,-5.7491,-5.7591,-5.768,-5.7729,-5.7729,-5.7838,-5.8072,-5.8072,-5.8009,-5.7868,-5.7316,-5.6924,-5.6691,0.0,0.0,-5.5713,-5.5324,-5.5158,-5.5113,-5.4854,-5.4606,-5.4498,-5.4637,-5.4206,-5.3468,-5.2929,-5.2298,-5.1605,-5.079,-5.0066,-4.9389,-4.882,-4.862,-4.862,-4.862,-4.862,-4.862,-4.862,-4.862,0.0,-4.862,-4.862,-4.862,-4.862,-4.862,-4.8537,-4.8328,-4.8244,-4.8118,-4.7709,-4.7596,-4.751,-4.7352,-4.7309,-4.7251,-4.7019,-4.6344,-4.5494,-4.4716,-4.4339,-4.3742,-4.276,-4.21,-4.1557,-4.1031,-4.0553,-4.0448,-4.0945,-4.054,-4.0265,-4.0265,-4.0265,-4.0422,-4.0788,-4.1259,-4.2095,-4.335,-4.3376,-4.3768,-4.4565,-4.467,-4.4866,-4.5114,-4.4837,-4.4709,0.0,0.0,0.0,0.0,0.0,0.0,0.0,0.0,0.0,0.0,0.0,-4.6516,-4.6869,0.0,-5.0663,-5.2271,-5.3673,-5.4791,-5.5573,-5.6143,-5.6115,-5.507,-5.6322,-5.7222,-5.7222,-5.851,-5.9113,-5.8492,-5.8539,-5.8503,-5.8211,-5.8211,-5.8303,-5.8594,-5.8594,-5.8594,-5.8594,-5.826,-5.7979,-5.7674,-5.704,-5.6692,-5.6692,-5.6437,-5.6347,-5.6362,-5.6433,-5.6263,-5.5889,-5.499,-5.4452,-5.4083,-5.3098,-5.2298,-5.1621,-5.0944,-5.0266,-4.9574,-4.8866,-4.862,-4.862,-4.862,-4.862,-4.862,-4.862,-4.862,-4.862,-4.862,-4.862,-4.862,-4.862,-4.862,-4.8563,-4.8453,-4.8286,-4.8091,-4.7837,-4.7639,-4.7424,-4.7309,-4.7309,-4.7309,-4.7309,-4.6873,-4.6358,-4.5898,-4.5372,-4.467,-4.3687,-4.2869,-4.2094,-4.1372,-4.105,-4.0984,-4.1285,-4.1036,-4.0984,-4.1272,-4.1285,-4.1559,-4.2147,-4.2448,-4.2997,-4.3912,-4.3926,-4.4147,-4.4668,-4.4981,-4.5336,-4.5581,-4.6212,-4.626,0.0,0.0,0.0,0.0,0.0,0.0,0.0,-4.6076,-4.574,-4.6226,-4.7171,-4.8398,-5.0017,-5.1248,-5.2576,-5.4308,-5.5296,-5.6041,-5.6624,-5.7207,-5.729,-5.644,-5.7205,-5.8016,-5.854,-5.9295,-5.9524,-5.9168,-5.9139,-5.8927,-5.8487,-5.8487,-5.8685,-5.9123,-5.9139,-5.9139,-5.9139,-5.9139,-5.8927,-5.8487,-5.796,-5.7706,-5.769,-5.76,-5.7571,-5.7587,-5.802,-5.7879,-5.7279,-5.5673,-5.5017,-5.4885,-5.3557,-5.2617,-5.1938,-5.1187,-5.0466,-4.9774,-4.9066,-4.8727,-4.862,-4.862,-4.862,-4.862,-4.862,-4.862,-4.8635,-4.8789,-4.8727,-4.8635,-4.8789,-4.882,-4.882,-4.882,-4.8634,-4.8399,-4.8262,-4.7862,-4.7502,-4.7367,-4.7352,-4.7309,-4.7309,-4.7309,-4.7309,-4.7309,-4.6594,-4.5658,-4.4452,-4.3592,-4.2709,-4.1683,-4.1411,-4.1311,-4.1311,-4.1415,-4.1677,-4.2185,-4.2316,-4.2592,-4.3167,-4.318,-4.352,-4.4199,-4.4095,-4.4369,-4.5075,-4.5441,-4.5686,-4.5921,-4.6848,-4.7278,-4.5039,-4.4418,-4.4747,-4.7672,-4.6901,-4.6567,0.0,-5.0169,-4.8719,-4.9447,-5.0644,-5.1491,-5.1135,-5.3191,-5.5021,-5.5264,-5.6446,-5.7352,-5.7492,-5.7573,-5.7773,-5.8238,-5.8427,-5.8508,-5.8572,-5.9295,-5.9673,-5.9628,-5.9628,-5.9584,-5.9524,-5.9524,-5.9568,-5.9628,-5.9628,-5.9628,-5.9628,-5.9628,-5.9584,-5.9524,-5.9443,-5.9411,-5.9411,-5.9011,-5.8786,-5.8786,-5.8363,-5.8164,-5.8037,-5.7218,-5.6557,-5.5931,-5.4744,-5.3832,-5.3059,-5.2012,-5.1159,-5.0482,-4.9805,-4.9143,-4.862,-4.862,-4.862,-4.862,-4.862,-4.862,-4.8743,-4.9389,-4.9112,-4.8758,-4.9404,-4.9574,-4.9574,-4.9574,-4.9834,-4.9863,-4.9267,-4.8802,-4.8288,-4.7658,-4.7424,-4.7309,-4.7309,-4.7309,-4.7309,-4.7309,-4.7207,-4.6462,-4.4545,-4.4219,-4.3748,-4.2744,-4.1819,-4.1311,-4.1311,-4.1781,-4.2146,-4.2211,-4.2644,-4.318,-4.3755,-4.3781,-4.4304,-4.5415,-4.4905,-4.5179,-4.629,-4.5846,-4.609,-4.7082,-4.7213,-4.7278,-4.7488,-4.7666,-4.8036,-5.0221,-4.9927,-4.9742,-5.2084,-5.1076,-5.0042,-5.1549,-5.2368,-5.29,-5.3029,-5.4697,-5.6041,-5.6041,-5.7255,-5.8194,-5.8194,-5.8194,-5.8308,-5.8556,-5.8588,-5.8766,-5.9187,-5.9538,-5.9716,-5.9716,-5.9716,-5.9716,-5.9716,-5.9716,-5.9716,-5.9716,-5.9716,-5.9716,-5.9716,-5.9716,-5.9716,-5.9716,-5.9716,-5.9716,-5.9673,-5.9496,-5.9407,-5.9391,-5.9152,-5.8927,-5.8592,-5.7936,-5.7296,-5.6647,-5.5364,-5.453,-5.3861,-5.226,-5.1528,-5.1128,-5.0051,-4.9481,-4.9235,-4.9235,-4.9235,-4.9312,-4.9712,-4.982,-4.9897,-5.0189,-5.0051,-4.9897,-5.0189,-5.0266,-5.0266,-5.0266,-5.0294,-5.0212,-4.9937,-4.963,-4.9171,-4.8332,-4.8125,-4.7917,-4.7369,-4.7309,-4.7309,-4.7309,-4.6785,-4.6121,-4.5281,-4.467,-4.4298,-4.4282,-4.3891,-4.3519,-4.3225,-4.3429,-4.3482,-4.3193,-4.3389,-4.3768,-4.4343,-4.4369,-4.4761,-4.5555,-4.5375,-4.565,-4.6473,-4.6578,-4.6808,-4.7291,-4.7675,-4.7819,-4.8528,-4.9424,-5.011,-5.152,-5.1847,-5.1967,-5.2685,-5.1809,-5.1303,-5.3007,-5.3437,-5.375,-5.4521,-5.5823,-5.6869,-5.7003,-5.8112,-5.8966,-5.9139,-5.8831,-5.8669,-5.8863,-5.8718,-5.888,-5.9636,-5.9716,-5.9716,-5.9716,-5.9716,-5.9716,-5.9716,-5.9716,-5.9716,-5.9716,-5.9716,-5.9716,-5.9716,-5.9716,-5.9716,-5.9716,-5.9716,-5.9716,-5.9716,-5.9716,-5.9716,-5.9716,-5.9716,-5.9496,-5.9181,-5.8667,-5.8092,-5.7478,-5.6328,-5.5616,-5.4964,-5.3246,-5.2226,-5.1559,-5.059,-5.0112,-4.9959,-4.9959,-4.9959,-5.0051,-5.0543,-5.0697,-5.0728,-5.0913,-5.0836,-5.0728,-5.0928,-5.0974,-5.0974,-5.0974,-5.0967,-5.0896,-5.0713,-5.0491,-5.0117,-4.923,-4.9021,-4.8722,-4.7814,-4.78,-4.7875,-4.7593,-4.7111,-4.6574,-4.6129,-4.5605,-4.5378,-4.5532,-4.5812,-4.5613,-4.4666,-4.4769,-4.4557,-4.3952,-4.4016,-4.4291,-4.4655,-4.4837,-4.5258,-4.5859,-4.5859,-4.6225,-4.6944,-4.7205,-4.7357,-4.7584,-4.7989,-4.8185,-4.6889,-4.7929,-4.9534,-5.0806,-5.1473,-5.2135,-5.3364,-5.3163,-5.2951,-5.3807,-5.4037,-5.4316,-5.5111,-5.6539,-5.7767,-5.8322,-5.9125,-5.9887,-6.0558,-5.9441,-5.8847,-5.9603,-5.9025,-5.888,-5.9636,-5.9716,-5.9716,-5.9716,-5.9716,-5.9716,-5.9716,-5.9716,-5.9716,-5.9716,-5.9716,-5.9716,-5.9716,-5.9716,-5.9716,-5.9716,-5.9716,-5.9716,-5.9716,-5.9716,-5.9716,-5.9716,-5.9716,-5.9673,-5.9673,-5.964,-5.9219,-5.8486,-5.8077,-5.7453,-5.6662,-5.5435,-5.359,-5.1698,-5.1652,-5.1205,-5.0667,-5.0667,-5.0667,-5.0667,-5.0682,-5.0697,-5.0836,-5.1498,-5.1205,-5.0851,-5.1498,-5.1682,-5.1682,-5.1682,-5.2175,-5.2467,-5.1821,-5.1475,-5.1068,-5.0396,-5.0098,-4.9666,-4.8694,-4.9071,-4.9238,-4.8401,-4.879,-4.8595,-4.6976,-4.7288,-4.7337,-4.6353,-4.7147,-4.6862,-4.4757,-4.5112,-4.5014,-4.3979,-4.4395,-4.4655,-4.4668,-4.5284,-4.5872,-4.6447,-4.6447,-4.7009,-4.8133,-4.7597,-4.7623,-4.8159,-4.8172,-4.8185,-4.851,-4.9636,-5.0802,-5.2243,-5.2853,-5.3278,-5.4042,-5.35,-5.3123,-5.4243,-5.4213,-5.4183,-5.4968,-5.5979,-5.7082,-5.8202,-5.8732,-5.9539,-6.1119,-6.058,-5.9912,-5.9657,-6.0241,-6.0415,-5.9683,-5.967,-5.9716,-5.9716,-6.0154,-6.0218,-5.9749,-6.017,-6.0218,-5.9733,-5.9716,-5.9716,-5.9716,-5.9716,-5.9716,-5.9716,-5.9716,-5.9716,-5.9716,-5.9716,-5.9716,-5.9716,-5.9716,-5.9716,-5.9716,-5.9716,-5.9571,-5.9252,-5.8652,-5.8096,-5.7501,-5.6607,-5.5296,-5.38,-5.2589,-5.1791,-5.1359,-5.1359,-5.1359,-5.1451,-5.1898,-5.2036,-5.2082,-5.2313,-5.2206,-5.2082,-5.2313,-5.2375,-5.2375,-5.2375,-5.2544,-5.2652,-5.2421,-5.227,-5.1966,-5.1143,-5.0917,-5.0526,-4.9431,-4.9462,-4.9599,-4.9538,-4.9404,-4.9089,-4.8534,-4.8652,-4.8796,-4.8869,-4.9176,-4.901,-4.7976,-4.7457,-4.6833,-4.6115,-4.5574,-4.5493,-4.5872,-4.6081,-4.646,-4.7035,-4.7048,-4.7427,-4.8185,-4.7989,-4.7989,-4.8185,-4.8185,-4.8185,-4.9114,-5.0338,-5.1407,-5.2666,-5.3484,-5.4078,-5.4416,-5.3946,-5.3635,-5.4462,-5.4178,-5.4036,-5.4776,-5.5608,-5.6718,-5.8367,-5.9245,-6.0307,-6.2203,-6.1864,-6.141,-6.1169,-6.1731,-6.1862,-6.121,-6.0948,-6.0597,-6.0109,-6.1208,-6.1393,-6.0182,-6.1036,-6.1085,-6.0121,-6.0105,-5.9976,-5.9716,-5.9716,-5.9716,-5.9716,-5.9716,-5.9716,-5.9716,-5.9716,-5.9716,-5.9716,-5.9716,-5.9848,-6.0049,-6.0049,-6.0206,-6.0355,-5.9614,-5.9177,-5.8836,-5.7866,-5.6913,-5.5871,-5.4002,-5.2882,-5.2317,-5.2317,-5.2184,-5.2144,-5.259,-5.2713,-5.2713,-5.2713,-5.2713,-5.2713,-5.2713,-5.2713,-5.2713,-5.2713,-5.2713,-5.2713,-5.2713,-5.2713,-5.253,-5.1906,-5.1798,-5.1466,-5.0379,-5.0139,-5.0246,-5.0619,-5.0471,-5.0246,-5.014,-5.014,-5.0259,-5.0679,-5.0678,-5.0498,-4.9999,-4.9337,-4.8532,-4.7648,-4.6905,-4.6513,-4.6516,-4.6669,-4.6957,-4.7265,-4.7532,-4.7819,-4.8185,-4.8407,-4.8512,-4.8512,-4.8512,-4.8512,-4.8654,-4.9947,-5.1287,-5.1998,-5.3339,-5.446,-5.4494,-5.4477,-5.4443,-5.4443,-5.4009,-5.3803,-5.4482,-5.5402,-5.6771,-5.8933,-6.0582,-6.2119,-6.3645,-6.34,-6.3297,-6.3869,-6.3448,-6.3338,-6.3885,-6.3373,-6.244,-6.1034,0.0,-6.3062,-6.1045,-6.224,-6.2333,-6.0956,-6.0862,-6.0461,-5.9781,-5.9733,-5.9716,-5.9716,-5.9744,-5.976,-5.976,-5.9804,-5.9788,-5.9788,-5.9788,-6.0163,-6.0743,-6.0743,-6.1119,-6.1635,-6.0994,-6.0743,-6.0576,-5.9268,-5.8491,-5.7829,-5.5959,-5.4545,-5.3468,-5.3484,-5.3115,-5.2713,-5.2713,-5.2713,-5.2713,-5.2713,-5.2713,-5.2713,-5.2713,-5.2713,-5.2713,-5.2713,-5.2713,-5.2729,-5.276,-5.2729,-5.2729,-5.276,-5.2684,-5.2408,-5.151,-5.1195,-5.1183,-5.1635,-5.1894,-5.194,-5.1694,-5.1679,-5.1694,-5.1724,-5.1724,-5.1449,-5.0816,-5.0711,-5.0052,-4.853,-4.8301,-4.7795,-4.672,-4.7087,-4.7317,-4.7317,-4.7911,-4.8185,-4.8185,-4.876,-4.9035,-4.9035,-4.9035,-4.9035,-4.9493,-5.039,-5.1287,-5.1998,-5.2959,-5.3822,-5.4374,-5.408,-5.3684,-5.3684,-5.3559,-5.3499,-5.3688,-5.5366,-5.725,-5.8822,-6.0528,-6.2318,-6.4187,-6.4897,-6.5081,-6.4684,-6.5432,-6.5596,-6.4725,-6.5432,-6.5346,-6.3924,-6.3876,-6.3676,-6.3138,-6.3457,-6.3276,-6.241,-6.1373,-6.0704,-6.0526,-5.9976,-5.9716,-5.9716,-6.0222,-6.0463,-6.0463,-6.0978,-6.1185,-6.1185,-6.1185,-6.1309,-6.1432,-6.1432,-6.1554,-6.1659,-6.1513,-6.1432,-6.1399,-6.1052,-6.0167,-5.9114,-5.8638,-5.6793,-5.4612,-5.4335,-5.377,-5.3173,-5.2803,-5.2713,-5.2713,-5.2713,-5.2713,-5.2713,-5.2713,-5.2713,-5.2713,-5.2713,-5.2713,-5.2852,-5.336,-5.3067,-5.2867,-5.3375,-5.2901,-5.2351,-5.2077,-5.1896,-5.1972,-5.2531,-5.2684,-5.2637,-5.2373,-5.2529,-5.2819,-5.3319,-5.3364,-5.325,-5.2871,-5.2078,-5.1577,-5.1323,-4.9785,-4.8922,-4.9018,-4.8378,-4.7963,-4.7963,-4.8107,-4.8185,-4.8185,-4.8342,-4.8407,-4.8407,-4.8407,-4.8407,-4.9786,-5.0545,-5.1287,-5.1998,-5.2804,-5.3511,-5.3925,-5.3701,-5.3218,-5.2546,-5.2649,-5.2787,-5.2459,-5.4874,-5.7261,-5.8324,-6.0782,-6.3137,-6.4973,-6.5933,-6.6422,-6.6337,-6.6991,-6.7173,-6.6371,-6.6716,-6.6828,-6.6337,-6.5959,-6.5333,-6.4455,-6.4998,-6.4704,-6.3381,-6.2589,-6.186,-6.1196,-6.0765,-6.0574,-6.0558,-6.0936,-6.1144,-6.1144,-6.1554,-6.1716,-6.1716,0.0,-6.186,-6.2082,-6.2082,-6.2257,-6.2508,-6.2218,-6.2082,-6.2043,-6.178,-6.1189,-6.0472,-6.0183,-5.8969,-5.7223,-5.5593,-5.4292,-5.3334,-5.31,-5.2877,-5.2713,-5.2713,-5.2713,-5.2713,-5.2713,-5.2929,-5.3083,-5.279,-5.2929,-5.3252,-5.3591,-5.3421,-5.3268,-5.3652,-5.3024,-5.2457,-5.2457,-5.2642,-5.2826,-5.3099,-5.345,-5.3755,-5.3793,-5.369,-5.3754,-5.4135,-5.4181,-5.4207,-5.4207,-5.3642,-5.3272,-5.318,-5.2047,-5.1078,-5.0504,-4.9589,-4.893,-4.8579,-4.8347,-4.8185,-4.8185,-4.846,-4.8577,-4.8577,-4.8577,-4.8577,-4.9942,-5.0545,-5.1149,-5.186,-5.2597,-5.3097,-5.3097,-5.3097,-5.2701,-5.1269,-5.1563,-5.1873,-5.1235,-5.4218,-5.7047,-5.7788,-6.1116,-6.4134,-6.5669,-6.6514,-6.7256,-6.7997,-6.8101,-6.8101,-6.8101,-6.7514,-6.7394,-6.8049,-6.8101,-6.7295,-6.5539,-6.649,-6.6061,-6.3826,-6.3754,-6.3045,-6.1581,-6.165,-6.1716,-6.1716,-6.178,-6.182,-6.182,-6.19,-6.1957,-6.1957,-6.1957,0.0,-6.2723,-6.2723,-6.31,-6.3546,-6.2969,-6.2723,-6.2685,-6.2139,-6.1917,-6.174,-6.1144,-6.0786,-6.0121,-5.7054,-5.5069,-5.3821,-5.3612,-5.3173,-5.2803,-5.2713,-5.2713,-5.2713,-5.2713,-5.3144,-5.3452,-5.296,-5.3221,-5.3668,-5.3929,-5.3991,-5.396,-5.3822,-5.3314,-5.2852,-5.2852,-5.3329,-5.3653,-5.353,-5.4267,-5.502,-5.5505,-5.5,-5.4617,-5.4724,-5.4724,-5.4874,-5.5165,-5.5211,-5.4967,-5.4493,-5.4303,-5.3408,-5.166,-5.0975,-5.0225,-4.9402,-4.8784,-4.8405,-4.8302,-4.8767,-4.8969,-4.8969,-4.8969,-4.8969,-5.0776,-5.0562,-5.0373,-5.1114,-5.1407,-5.1511,-5.1511,-5.1511,-5.1252,-5.0373,-5.0787,-5.1269,-5.1132,-5.4218,-5.7047,-5.7788,-6.1116,-6.4134,-6.5669,-6.6514,-6.7256,-6.7997,-6.8101,-6.8101,-6.8101,-6.798,-6.7945,-6.8083,-6.8101,-6.7953,-6.7576,-6.7291,-6.5842,-6.3177,-6.2962,-6.2274,-6.0899,-6.14,-6.1716,-6.1716,-6.2218,-6.2436,-6.2474,-6.3025,-6.3268,-6.3268,-6.3268,0.0,-6.3434,-6.3434,-6.3509,-6.36,-6.3471,-6.3434,-6.3417,-6.3305,-6.2931,-6.2436,-6.2318,-6.1515,-6.0244,-5.8149,-5.6885,-5.5949,-5.456,-5.375,-5.3217,-5.2788,-5.2713,-5.2713,-5.2713,-5.2806,-5.2991,-5.3437,-5.3206,-5.3345,-5.4991,-5.5345,-5.5191,-5.4606,-5.396,-5.3545,-5.3545,-5.3591,-5.3868,-5.4375,-5.5052,-5.5792,-5.6451,-5.5913,-5.5713,-5.6298,-5.6359,-5.6309,-5.6189,-5.6155,-5.6039,-5.5685,-5.4741,-5.4031,-5.3669,-5.2679,-5.1741,-5.0865,-5.0225,-4.9589,-4.8952,-4.8523,-4.8342,-4.8342,-4.8342,-4.8342,-5.0708,-5.0483,-5.0351,-5.0954,-5.1114,-5.1011,-5.0631,-5.0838,-5.0787,-4.9631,-5.0304,-5.0994,-5.0614,-5.3632,-5.6167,-5.615,-5.8995,-6.2013,-6.4358,-6.4997,-6.5928,-6.7859,-6.8101,-6.8101,-6.8101,-6.8101,-6.8101,-6.8101,-6.8101,-6.7928,-6.7549,-6.6485,-6.5256,-6.3952,-6.3461,-6.2906,-6.2269,-6.2538,-6.2702,-6.2702,-6.2969,-6.3138,-6.3138,-6.3454,-6.36,-6.36,-6.36,0.0,-6.36,-6.36,-6.36,-6.36,-6.36,-6.36,-6.36,-6.36,-6.3397,-6.3045,-6.2723,-6.2408,-6.1868,-6.0275,-5.8608,-5.7058,-5.5944,-5.4772,-5.3766,-5.3201,-5.2877,-5.279,-5.3144,-5.3237,-5.3314,-5.3591,-5.3699,-5.4114,-5.5422,-5.5684,-5.5592,-5.5284,-5.4406,-5.3729,-5.3729,-5.396,-5.4314,-5.4637,-5.5607,-5.6425,-5.6763,-5.6517,-5.6425,-5.6779,-5.681,-5.6761,-5.6616,-5.6616,-5.6567,-5.6421,-5.5853,-5.5376,-5.4908,-5.4031,-5.3183,-5.2377,-5.1333,-5.0406,-4.9716,-4.9014,-4.8521,-4.8185,-4.8185,-4.8185,-5.0756,-5.0603,-5.0617,-5.1171,-5.1123,-5.0754,-5.004,-5.0397,-5.0442,-4.8879,-4.9775,-5.0752,-5.0321,-5.2925,-5.5046,-5.4787,-5.715,-6.003,-6.2944,-6.3634,-6.4841,-6.7532,-6.7997,-6.8101,-6.8101,-6.8101,-6.8101,-6.8101,-6.7807,-6.7428,-6.7014,-6.5732,-6.4903,-6.4597,-6.4001,-6.3609,-6.3492,-6.356,-6.36,-6.36,-6.36,-6.36,-6.36,-6.36,-6.36,-6.36,-6.36,0.0,0.0,-6.36,-6.36,-6.36,-6.36,-6.36,-6.36,-6.36,-6.36,-6.3509,-6.3007,-6.3176,-6.3422,-6.2286,-6.041,-5.8369,-5.7463,-5.6042,-5.4566,-5.3986,-5.3282,-5.2867,-5.3545,-5.3606,-5.3514,-5.3514,-5.4237,-5.5037,-5.5407,-5.5715,-5.5884,-5.5715,-5.4745,-5.3883,-5.3699,-5.4283,-5.4683,-5.4683,-5.5899,-5.681,-5.681,-5.681,-5.681,-5.681,-5.681,-5.681,-5.681,-5.681,-5.681,-5.681,-5.681,-5.6503,-5.5785,-5.531,-5.4675,-5.3883,-5.2705,-5.1734,-5.0906,-5.0297,-4.9618,-4.902,-4.8713,-4.8589,-5.1735,-5.132,-5.0942,-5.1731,-5.1176,-5.0254,-4.9527,-4.9756,-4.9666,-4.8103,-4.9045,-5.0304,-5.0907,-5.2442,-5.4029,-5.5305,-5.7478,-5.984,-6.2255,-6.3738,-6.5221,-6.6893,-6.7687,-6.8101,-6.8101,-6.8101,-6.8101,-6.8101,-6.6842,-6.6342,-6.6962,-6.6234,-6.5225,-6.3922,-6.369,-6.3316,-6.2693,-6.3302,-6.36,-6.36,-6.36,-6.36,-6.36,-6.36,-6.36,-6.36,-6.36,0.0,0.0,-6.36,-6.36,-6.36,-6.36,-6.36,-6.36,-6.36,-6.36,-6.3582,-6.3546,-6.3546,-6.3582,-6.3477,-6.2412,-6.0892,-5.9022,-5.7282,-5.5792,-5.5282,-5.3931,-5.2867,-5.3545,-5.3268,-5.2806,-5.2806,-5.4237,-5.5453,-5.4883,-5.5792,-5.6517,-5.5822,-5.5114,-5.4391,-5.3822,-5.4283,-5.4683,-5.4683,-5.5899,-5.681,-5.681,-5.681,-5.681,-5.681,-5.681,-5.681,-5.681,-5.681,-5.681,-5.681,-5.681,-5.6761,-5.6697,-5.6649,-5.6179,-5.5305,-5.5255,-5.4439,-5.285,-5.2813,-5.2366,-5.1521,-5.0358,-4.9799,-5.1818,-5.1647,-5.1568,-5.2219,-5.15,-5.0474,-4.9829,-4.9961,-4.9773,-4.8055,-4.8941,-5.0235,-5.0976,-5.1977,-5.3046,-5.4115,-5.5426,-5.7116,-5.9409,-6.103,-6.2893,-6.5324,-6.629,-6.7118,-6.7997,-6.7687,-6.7428,-6.7428,-6.6462,-6.5807,-6.5617,-6.491,-6.4246,-6.3693,-6.3626,-6.3471,-6.3213,-6.3471,-6.36,-6.36,-6.36,-6.36,-6.36,-6.36,-6.36,-6.36,-6.36,0.0,0.0,-6.36,-6.36,-6.36,-6.36,-6.36,-6.36,-6.36,-6.36,-6.36,-6.36,-6.36,-6.36,-6.36,-6.3228,-6.2504,-6.0908,-5.9398,-5.8118,-5.7421,-5.6135,-5.4951,-5.5131,-5.4246,-5.3314,-5.3314,-5.3929,-5.4653,-5.5191,-5.5438,-5.5576,-5.5669,-5.4837,-5.3991,-5.3775,-5.4283,-5.4683,-5.4683,-5.5899,-5.681,-5.681,-5.681,-5.681,-5.681,-5.681,-5.681,-5.681,-5.681,-5.681,-5.681,-5.681,-5.681,-5.681,-5.681,-5.6664,-5.6293,-5.6189,-5.5605,-5.4594,-5.3998,-5.3205,-5.2108,-5.1031,-5.0344,-5.2239,-5.2432,-5.2588,-5.3207,-5.2485,-5.1428,-5.0798,-5.0603,-5.0118,-4.8611,-4.9221,-5.0304,-5.1269,-5.1843,-5.2632,-5.3856,-5.4494,-5.5701,-5.8236,-5.9702,-6.1565,-6.4376,-6.5507,-6.6426,-6.7342,-6.6962,-6.6652,-6.6652,-6.5962,-6.529,-6.4738,-6.3996,-6.36,-6.36,-6.36,-6.36,-6.36,-6.36,-6.36,-6.36,-6.36,-6.36,-6.36,-6.36,-6.36,-6.36,-6.36,0.0,0.0,-6.36,-6.36,-6.36,-6.36,-6.36,-6.36,-6.36,-6.36,-6.36,-6.36,-6.36,-6.36,-6.36,-6.36,-6.3405,-6.2484,-6.1189,-5.99,-5.9249,-5.7925,-5.6566,-5.6042,-5.4831,-5.3692,-5.3467,-5.3575,-5.3976,-5.4899,-5.4914,-5.476,-5.5068,-5.436,-5.3668,-5.3452,-5.4099,-5.4683,-5.4683,-5.5899,-5.681,-5.681,-5.681,-5.681,-5.681,-5.681,-5.681,-5.681,-5.681,-5.681,-5.681,-5.681,-5.681,-5.681,-5.681,-5.681,-5.681,-5.7048,-5.6823,-5.6146,-5.5854,-5.5099,-5.399,-5.2712,-5.1446,-5.3453,-5.3936,-5.4159,-5.4975,-5.4317,-5.3282,-5.2557,-5.1604,-5.0682,-4.9924,-4.9906,-5.0459,-5.1912,-5.2188,-5.2929,-5.5219,-5.5598,-5.6667,-5.9737,-6.0823,-6.2134,-6.4427,-6.5697,-6.6257,-6.5931,-6.5911,-6.5893,-6.5893,-6.5169,0.0,-6.4703,-6.3996,-6.36,-6.36,-6.36,-6.36,-6.36,-6.36,-6.36,-6.36,-6.36,-6.36,-6.36,-6.36,-6.36,0.0,0.0,0.0,0.0,-6.36,-6.36,-6.36,-6.36,-6.36,-6.36,-6.36,-6.36,-6.36,-6.36,-6.36,-6.36,-6.36,-6.36,-6.36,-6.3582,-6.2309,-6.0802,-6.0493,-5.8922,-5.7096,-5.5751,-5.4697,-5.3793,-5.2922,-5.3237,-5.3729,-5.3745,-5.4222,-5.4483,-5.3822,-5.3729,-5.3514,-5.2837,-5.3837,-5.4683,-5.4683,-5.5899,-5.681,-5.681,-5.681,-5.681,-5.681,-5.681,-5.681,-5.681,-5.681,-5.681,-5.681,-5.681,-5.681,-5.681,-5.681,-5.681,-5.681,-5.8085,-5.8344,-5.7495,-5.8806,-5.897,-5.8096,-5.5962,-5.3483,-5.1557,-5.1809,-5.2011,-5.2855,-5.2605,-5.2094,-5.1952,-5.171,-5.1283,-5.0506,-5.0303,-5.0839,-5.2748,-5.346,-5.4437,-5.6446,-5.7465,-5.8398,-5.9625,-6.0895,-6.2266,-6.3782,-6.5652,-6.6562,-6.5893,-6.5823,-6.5732,-6.5493,-6.4747,-6.4168,-6.3982,-6.372,-6.36,-6.36,-6.36,-6.36,-6.36,-6.36,-6.36,-6.36,-6.36,-6.36,-6.36,-6.36,-6.36,0.0,0.0,0.0,0.0,-6.36,-6.3289,-6.2893,-6.3393,-6.3289,-6.2893,-6.341,-6.36,-6.36,-6.36,-6.36,-6.36,-6.36,-6.36,-6.36,-6.36,-6.3208,-6.2556,-6.1661,-6.0144,-5.8514,-5.7436,-5.5696,-5.4131,-5.3848,-5.3386,-5.316,-5.3622,-5.3529,-5.3421,-5.3668,-5.3345,-5.296,-5.276,-5.3452,-5.4145,-5.4606,-5.5468,-5.6207,-5.6748,-5.681,-5.681,-5.681,-5.681,-5.681,-5.681,-5.681,-5.681,-5.681,-5.681,-5.681,-5.681,-5.7256,-5.7503,-5.7503,-5.8777,-5.9353,-5.9083,-5.938,-5.8306,-5.5968,-5.4377,-5.268,-5.086,-5.1246,-5.1616,-5.2133,-5.2344,-5.2312,-5.2083,-5.2131,-5.2069,-5.1568,-5.1208,-5.1547,-5.346,-5.4394,-5.5431,-5.7164,-5.8242,-5.9201,-6.0282,-6.1138,-6.2274,-6.4013,-6.5337,-6.6005,-6.5616,-6.5443,-6.5286,-6.5091,-6.462,-6.4252,-6.402,-6.402,-6.3947,-6.3785,-6.3656,-6.36,-6.36,-6.36,-6.36,-6.36,-6.36,-6.3656,-6.3785,-6.3656,-6.3656,0.0,0.0,0.0,0.0,-6.3289,-6.291,-6.253,-6.2996,-6.2893,-6.2582,-6.3324,-6.36,-6.36,-6.36,-6.36,-6.36,-6.36,-6.36,-6.36,-6.36,-6.3563,-6.3343,-6.2728,-6.124,-5.9691,-5.8883,-5.7035,-5.5369,-5.5233,-5.4492,-5.3868,-5.4146,-5.3668,-5.3237,-5.3298,-5.3006,-5.279,-5.3052,-5.3437,-5.4037,-5.4961,-5.5438,-5.5946,-5.6717,-5.681,-5.681,-5.681,-5.681,-5.681,-5.681,-5.681,-5.681,-5.681,-5.681,-5.681,-5.681,-5.7457,-5.7826,-5.7826,-5.9101,-5.967,-5.9408,-5.9295,-5.8083,-5.5938,-5.4512,-5.322,0.0,-5.1844,-5.2419,-5.2419,-5.307,-5.3497,-5.2698,-5.2771,0.0,-5.2969,-5.2409,-5.2438,-5.4161,-5.5123,-5.6142,-5.7657,-5.8443,-5.9567,-6.1623,-6.169,-6.2461,-6.4994,-6.4995,-6.4894,-6.526,-6.4995,-6.4758,-6.474,-6.474,-6.4724,-6.4724,-6.4724,-6.4533,-6.4146,-6.3821,-6.3656,-6.36,-6.36,-6.3619,-6.3619,-6.3619,-6.3821,-6.4111,-6.3821,-6.3858,0.0,0.0,0.0,0.0,-6.2776,-6.2411,-6.236,-6.2411,-6.2375,-6.241,-6.3151,-6.3427,-6.3427,-6.3427,-6.3427,-6.3444,-6.3496,-6.3479,-6.3444,-6.3496,-6.3365,-6.3271,-6.3477,-6.2155,-6.0498,-5.9894,-5.8492,-5.713,-5.6821,-5.6156,-5.5499,-5.5186,-5.458,-5.3821,-5.2951,-5.2788,-5.2943,-5.3545,-5.3683,-5.416,-5.5422,-5.5669,-5.5946,-5.6717,-5.681,-5.681,-5.681,-5.681,-5.681,-5.681,-5.681,-5.681,-5.681,-5.681,-5.681,-5.681,-5.7457,-5.7826,-5.7826,-5.9055,-5.9408,-5.8777,-5.8731,-5.8283,-5.7405,-5.5969,-5.4835,-5.0358,0.0,-5.0692,-5.0692,-5.1788,-5.2679,0.0,-5.2947,-5.3994,-5.3588,-5.2824,-5.3015,-5.566,-5.6705,-5.7783,-5.9618,-6.1806,-6.3245,-6.3137,-6.4019,-6.508,-6.6069,-6.5814,-6.5704,-6.6172,-6.58,-6.5412,-6.5112,-6.5078,-6.4961,-6.4706,-6.4724,-6.4655,-6.4568,-6.4463,-6.4163,-6.36,-6.36,-6.3729,-6.3985,-6.3985,-6.4164,-6.4568,-6.4463,-6.4463,0.0,0.0,0.0,-6.3449,-6.2405,-6.1623,-6.1155,-6.1464,-6.1237,-6.0823,-6.1565,-6.1841,-6.1841,-6.1841,-6.1841,-6.1944,-6.2548,-6.2341,-6.1961,-6.2565,-6.2718,-6.2718,-6.2755,-6.1562,-6.0268,-6.0127,-5.8764,-5.7409,-5.7336,-5.643,-5.5571,-5.549,-5.5246,-5.4736,-5.3864,-5.3707,-5.3524,-5.3049,-5.3375,-5.4006,-5.4837,-5.5376,-5.5946,-5.6717,-5.681,-5.681,-5.681,-5.681,-5.681,-5.681,-5.681,-5.681,-5.681,-5.681,-5.681,-5.681,-5.7457,-5.7826,-5.7826,-5.8593,-5.8947,-5.8777,-5.827,-5.758,-5.6726,-5.5861,-5.4987,-5.1174,-5.1528,-5.1806,-5.1806,-5.307,-5.4184,-5.3757,-5.4511,-5.5135,-5.4438,-5.3898,-5.4256,-5.6627,-5.7663,-5.8772,-6.0567,-6.2932,-6.4536,-6.4625,-6.5652,-6.6488,-6.6754,-6.6385,-6.622,0.0,-6.6083,-6.5722,-6.5492,-6.5477,-6.5412,-6.5214,-6.4844,-6.4584,-6.4434,-6.4082,-6.3952,-6.411,-6.3726,-6.3815,-6.4376,-6.4009,-6.4217,-6.491,-6.4388,-6.4248,0.0,0.0,0.0,-6.2882,-6.1927,-6.1267,-6.0953,-6.0999,-6.0774,-6.048,-6.1101,-6.1306,-6.1306,-6.1306,-6.1306,-6.1375,-6.1806,-6.1651,-6.1375,-6.1823,-6.1703,-6.1513,-6.1841,-6.1099,-6.0271,-6.0616,-5.9437,-5.843,-5.9429,-5.8319,-5.713,-5.7314,-5.6675,-5.578,-5.4911,-5.4678,-5.4539,-5.4392,-5.4082,-5.4255,-5.5579,-5.5472,-5.5622,-5.6686,-5.681,-5.681,-5.681,-5.681,-5.681,-5.681,-5.681,-5.681,-5.681,-5.681,-5.681,-5.681,-5.7457,-5.7916,-5.8223,-5.8285,-5.8316,-5.8316,-5.7688,-5.7104,-5.6629,-5.5851,-5.527,-5.2677,-5.3721,-5.4502,-5.3943,-5.515,-5.6413,-5.6172,-5.6302,-5.6246,-5.5391,-5.5299,-5.5893,-5.7565,-5.8642,-5.9775,-6.1317,-6.3149,-6.4827,-6.6098,-6.6728,-6.7064,-6.7039,-6.6642,0.0,-6.6252,-6.5818,-6.5492,-6.5429,0.0,-6.5429,-6.5429,-6.4787,-6.4304,-6.4017,-6.3329,-6.345,-6.4474,-6.3704,-6.3741,-6.4599,-6.3791,-6.4009,-6.5065,-6.399,-6.3688,-6.3931,0.0,0.0,-6.2257,-6.1436,-6.1119,-6.1087,-6.0744,-6.0594,-6.0563,-6.093,-6.0979,-6.0961,-6.0961,-6.0961,-6.0978,-6.1099,-6.1047,-6.0978,-6.1099,-6.0616,-6.0151,-6.0771,-6.0496,-6.0168,-6.0789,-5.9995,-5.9478,-6.128,-6.0231,-5.8886,-5.9254,-5.8169,-5.6866,-5.5962,-5.566,-5.5653,-5.6089,-5.5159,-5.4896,-5.6602,-5.5812,-5.5456,-5.664,-5.681,-5.681,-5.681,-5.681,-5.681,-5.681,-5.681,-5.681,-5.681,-5.681,-5.681,-5.681,-5.7364,-5.7934,-5.8454,-5.7965,-5.7672,-5.7672,-5.7087,-5.681,-5.6761,-5.6032,-5.5685,-5.3697,-5.6161,-5.7641,-5.4577,-5.5577,-5.6952,-5.5522,-5.6302,-5.7082,-5.6265,-5.6636,-5.7621,-5.9237,-6.0797,-6.2153,-6.3082,-6.4351,-6.5757,-6.7324,-6.7268,-6.6975,-6.6694,0.0,-6.5704,-6.5058,-6.46,-6.4196,0.0,0.0,-6.377,-6.377,-6.3645,-6.3573,-6.3511,-6.3404,-6.3409,-6.3596,-6.2846,-6.3066,-6.4175,-6.338,-6.3609,-6.4656,-6.3823,-6.3449,-6.3476,0.0,-6.2297,-6.2243,-6.1136,-6.0693,-6.0662,-6.0297,-6.0006,-5.976,-5.9848,-5.9648,-5.9357,-5.9357,-5.9357,-5.9478,-6.0151,-5.9909,-5.9495,-6.0168,-5.9806,-5.9219,-5.934,-5.9288,-5.9219,-5.934,-5.9185,-5.9064,-5.9426,-5.9133,-5.8805,-5.8887,-5.8556,-5.7937,-5.6904,-5.6674,-5.6381,-5.5604,-5.5739,-5.6007,-5.6107,-5.6451,-5.6667,-5.6798,-5.681,-5.681,-5.681,-5.681,-5.681,-5.681,-5.681,-5.681,-5.681,-5.681,-5.681,-5.681,-5.6917,-5.701,-5.7118,-5.7025,-5.6964,-5.6964,-5.6856,-5.681,-5.681,-5.6649,-5.66,-5.3086,-5.5958,-5.838,-5.6537,-5.8136,-5.9961,-5.9181,-5.9274,-5.9255,-5.8419,-5.8549,-5.9181,-6.0388,-6.1596,-6.31,-6.5255,-6.6055,-6.6846,-6.8012,-6.7613,-6.7156,-6.7006,0.0,-6.5472,-6.5105,-6.4667,0.0,0.0,0.0,0.0,-6.3426,-6.3227,-6.3024,-6.2819,-6.2378,-6.2146,-6.2146,-6.1823,-6.235,-6.3729,-6.2946,-6.3062,-6.393,-6.3145,-6.2788,-6.2753,0.0,-6.1646,-6.1611,-6.1104,-6.0854,-6.0823,-6.0516,-6.0297,-6.0121,-5.9928,-5.9748,-5.9584,-5.9584,-5.9485,-5.9387,-5.9751,-5.9494,-5.9081,-5.9444,-5.9306,-5.9012,-5.9012,-5.9012,-5.9116,-5.9547,-5.934,-5.9219,-6.0047,-5.9564,-5.9013,-5.9443,-5.908,-5.8525,-5.801,-5.7738,-5.7463,-5.6942,-5.6628,-5.6571,-5.682,-5.7066,-5.716,-5.6933,-5.7277,-5.7353,-5.6858,-5.681,-5.681,-5.681,-5.681,-5.681,-5.681,-5.681,-5.681,-5.681,-5.681,-5.681,-5.681,-5.681,-5.681,-5.681,-5.681,-5.681,-5.681,-5.681,-5.681,-5.2897,-5.5441,-5.8085,-5.8323,-6.0036,-6.1781,-6.2286,-6.1633,-6.0871,-6.0797,-6.0778,-6.0983,-6.1651,-6.2599,-6.4103,-6.6611,-6.7187,-6.7521,-6.811,-6.754,-6.6945,-6.6741,-6.5865,-6.5164,0.0,0.0,0.0,0.0,0.0,0.0,-6.3214,-6.2634,-6.2191,-6.1878,-6.1188,-6.0826,-6.0826,-6.1004,-6.1789,-6.3127,-6.236,-6.2396,-6.3109,-6.2342,-6.2003,-6.1968,-6.1361,-6.1093,-6.1093,-6.1093,-6.1152,-6.1223,-6.0956,-6.0805,-6.0684,-6.0248,-6.0089,-6.0089,-6.0089,-5.9928,-5.97,-5.97,-5.9469,-5.9149,-5.9149,-5.9081,-5.9012,-5.9012,-5.9012,-5.915,-5.9754,-5.9461,-5.9306,-6.0478,-5.9875,-5.9185,-5.9789,-5.9357,-5.8857,-5.8823,-5.8561,-5.8348,-5.826,-5.7554,-5.7132,-5.7574,-5.7519,-5.7423,-5.7366,-5.767,-5.7698,-5.7195,-5.6939,-5.681,-5.681,-5.681,-5.681,-5.681,-5.681,-5.681,-5.681,-5.681,-5.681,-5.681,-5.681,-5.681,-5.681,-5.681,-5.681,-5.681,-5.681,-5.681,-5.4465,-5.5752,-5.7054,-5.9057,-5.949,-5.9964,-6.1943,-6.115,-6.0627,-6.2877,-6.3342,-6.336,-6.3435,-6.4753,-6.5924,-6.6165,-6.6815,-6.7335,-6.7391,-6.6704,-6.5905,-6.5065,-6.4893,-6.4401,0.0,0.0,0.0,0.0,0.0,0.0,-6.2482,-6.1317,-6.0647,-6.0638,-6.0218,-6.0005,-6.0005,-6.0736,-6.1521,-6.236,-6.1557,-6.1611,-6.2342,-6.1539,-6.1182,-6.1182,-6.1129,-6.1093,-6.1093,-6.1093,-6.1321,-6.1656,-6.1628,-6.144,-6.1057,-6.037,-6.0089,-6.0089,-6.0089,-6.0089,-6.0057,-6.0057,-5.9831,-5.9569,-5.9569,-5.9301,-5.9012,-5.9012,-5.9012,-5.903,-5.9081,-5.9047,-5.9047,-5.915,-5.9099,-5.903,-5.9081,-5.9013,-5.8961,-5.8823,-5.8788,-5.8718,-5.8525,-5.826,-5.8045,-5.7903,-5.7723,-5.7772,-5.8232,-5.7599,-5.7346,-5.804,-5.7306,-5.681,-5.681,-5.681,-5.681,-5.681,-5.681,-5.681,-5.681,-5.681,-5.681,-5.681,-5.681,-5.681,-5.681,-5.681,-5.681,-5.681,-5.681,-5.681,-5.3049,-5.5421,-5.7769,-5.8377,-5.9638,-6.1107,-6.2419,-6.2591,-6.3016,-6.4781,-6.4735,-6.4173,-6.3695,-6.4122,-6.4716,-6.5218,-6.6017,-6.6555,-6.6555,-6.5831,-6.5181,-6.4823,-6.4363,0.0,0.0,0.0,0.0,0.0,0.0,0.0,-6.0883,-6.0631,-6.0398,-6.0116,-5.9754,-5.9526,-5.9526,-5.9567,-6.0023,-6.0808,-6.1004,-6.1254,-6.1539,-6.1236,-6.1093,-6.1123,-6.135,-6.1476,-6.1494,-6.1786,-6.2005,-6.2113,-6.1823,-6.161,-6.144,-6.0908,-6.0714,-6.0714,-6.0714,-6.0609,-6.0423,-6.0423,-6.0185,-5.9864,-5.9668,-5.9502,-5.9318,-5.9081,-5.9012,-5.9012,-5.9012,-5.9012,-5.9012,-5.9012,-5.9012,-5.9012,-5.9012,-5.9012,-5.8978,-5.8927,-5.884,-5.8788,-5.8718,-5.8525,-5.8309,-5.8126,-5.8416,-5.8451,-5.7977,-5.7992,-5.7962,-5.7648,-5.6823,-5.6464,-5.6902,-5.6402,-5.6332,-5.6779,-5.681,-5.681,-5.681,-5.681,-5.681,-5.681,-5.681,-5.681,-5.681,-5.681,-5.681,-5.681,-5.681,-5.681,-5.2855,-5.5413,-5.8072,-5.835,-5.9945,-6.1803,-6.3033,-6.3747,-6.4612,-6.6292,-6.5713,-6.4543,-6.3435,-6.3479,-6.3836,-6.4345,-6.5144,-6.5701,-6.5701,-6.4976,-6.4345,-6.4062,0.0,0.0,0.0,0.0,0.0,0.0,0.0,0.0,0.0,-6.0202,-6.0026,-5.9743,-5.9325,-5.9118,-5.9118,-5.9096,-5.9364,-5.9903,-6.0721,-6.1157,-6.1281,-6.1281,-6.1368,-6.1523,-6.1814,-6.1906,-6.1915,-6.2255,-6.2482,-6.2559,-6.2229,-6.2041,-6.1851,-6.1437,-6.105,-6.0719,-6.0719,-6.041,-5.9987,-5.9987,-5.9756,-5.9478,-5.9225,-5.9033,-5.8822,-5.854,-5.8373,-5.8374,-5.8599,-5.884,-5.9012,-5.9012,-5.9012,-5.9012,-5.9012,-5.9012,-5.9012,-5.9012,-5.8927,-5.8875,-5.8875,-5.8701,-5.8561,-5.8419,-5.8702,-5.8764,-5.8196,-5.824,-5.8083,-5.7401,-5.6776,-5.6502,-5.6681,-5.6355,-5.6216,-5.644,-5.6686,-5.681,-5.681,-5.681,-5.681,-5.681,-5.681,-5.681,-5.681,-5.681,-5.681,-5.681,-5.681,-5.681,-5.4434,-5.5904,-5.7593,-5.9271,-6.0352,-6.1569,-6.3717,-6.4198,-6.4885,-6.7286,-6.6344,-6.4538,-6.2736,-6.3224,-6.383,-6.3624,-6.427,-6.4791,-6.4791,0.0,0.0,0.0,0.0,0.0,0.0,0.0,0.0,0.0,0.0,0.0,0.0,-6.0041,-5.9398,-5.9398,-5.8926,-5.8689,-5.8689,-5.9491,-5.9892,-5.991,-6.0694,-6.1287,-6.1694,-6.1712,-6.196,-6.2404,-6.2404,-6.2368,-6.2305,-6.2386,-6.2636,-6.3002,-6.3002,-6.2762,-6.2352,-6.1878,-6.0945,-5.9898,-5.9898,-5.938,-5.872,-5.8692,-5.8472,-5.822,-5.819,-5.7785,-5.7306,-5.7306,-5.7049,-5.696,-5.7702,-5.8443,-5.9012,-5.9012,-5.9012,-5.9012,-5.9012,-5.9012,-5.9012,-5.9012,-5.9012,-5.9012,-5.9012,-5.8909,-5.8788,-5.8788,-5.8455,-5.846,-5.9171,-5.8289,-5.754,-5.732,-5.7316,-5.6932,-5.6091,-5.6634,-5.6649,-5.5779,-5.6409,-5.681,-5.681,-5.681,-5.681,-5.681,-5.681,-5.681,-5.681,-5.681,-5.681,-5.681,-5.681,-5.681,-5.3036,-5.5049,-5.7524,-5.8588,-6.0866,-6.3132,-6.4351,-6.4838,-6.5346,-6.6401,-6.5462,-6.4206,-6.3256,-6.3177,-6.3244,-6.3183,-6.3264,-6.3531,-6.4088,0.0,0.0,0.0,0.0,0.0,0.0,0.0,0.0,0.0,0.0,0.0,0.0,-5.9094,-5.8921,-5.8921,-5.8496,-5.8272,-5.8272,-5.8269,-5.8525,-5.9053,-5.929,-6.0078,-6.1295,-6.1921,-6.2273,-6.2404,-6.2686,-6.2812,-6.2818,-6.3123,-6.3307,-6.3377,-6.3099,-6.2579,-6.1918,-6.1433,-6.0689,-5.9887,-5.9887,-5.9724,-5.9516,-5.9222,-5.9041,-5.8874,-5.8367,-5.8088,-5.7846,-5.7416,-5.7242,-5.7166,-5.713,-5.7685,-5.8374,-5.8892,-5.9012,-5.9012,-5.9012,-5.9012,-5.9012,-5.9012,-5.9012,-5.9012,-5.9012,-5.8961,-5.8892,-5.8823,-5.8561,-5.838,-5.8296,-5.8019,-5.7771,-5.7745,-5.7165,-5.6871,-5.7094,-5.7219,-5.7113,-5.6664,-5.7339,-5.7495,-5.681,-5.681,-5.681,-5.681,-5.681,-5.681,-5.681,-5.681,-5.681,-5.681,-5.681,-5.681,-5.4608,-5.6728,-5.9175,-6.0693,-6.2636,-6.4375,-6.5174,-6.559,-6.5757,-6.5653,-6.474,-6.3728,-6.3025,-6.2519,-6.2315,-6.2502,-6.2421,-6.2507,-6.2994,0.0,0.0,0.0,0.0,0.0,0.0,0.0,0.0,0.0,0.0,0.0,0.0,-5.8716,-5.8716,-5.8716,-5.8449,-5.8341,-5.8341,-5.8142,-5.8267,-5.8704,-5.9016,-5.9677,-6.0651,-6.133,-6.1923,-6.2445,-6.2975,-6.3237,-6.326,-6.3511,-6.3416,-6.3115,-6.285,-6.2145,-6.1242,-6.0964,-6.0236,-5.9418,-5.9418,-5.9235,-5.8956,-5.8704,-5.8627,-5.8531,-5.8098,-5.7767,-5.7455,-5.7076,-5.6781,-5.661,-5.6686,-5.6943,-5.7419,-5.8356,-5.8806,-5.9012,-5.9012,-5.9012,-5.9012,-5.9012,-5.9012,-5.9012,-5.9012,-5.9012,-5.8978,-5.8909,-5.8666,-5.8367,-5.808,-5.7971,-5.7881,-5.7881,-5.7443,-5.7142,-5.7188,-5.737,-5.7258,-5.675,-5.7423,-5.7741,-5.7493,-5.7071,-5.681,-5.681,-5.681,-5.681,-5.681,-5.681,-5.681,-5.681,-5.681,-5.681,-5.7714,-5.959,-6.1505,-6.4116,-6.4928,-6.5276,-6.5934,-6.6173,-6.5989,-6.5089,-6.4234,-6.336,-6.2389,-6.1679,-6.1401,-6.1808,-6.1788,-6.1731,-6.1806,0.0,0.0,0.0,0.0,0.0,0.0,0.0,0.0,0.0,0.0,0.0,0.0,-5.8716,-5.8716,-5.8716,-5.8716,-5.8716,-5.8716,-5.8716,-5.8716,0.0,-5.9438,-5.9794,-5.981,-6.0332,-6.1209,-6.2339,-6.3063,-6.3397,-6.3397,-6.3397,-6.2952,-6.2301,-6.2301,-6.1522,-6.0448,-6.0448,-5.9703,-5.8695,-5.8695,-5.8263,-5.7679,-5.7673,-5.7649,-5.7631,-5.7625,-5.712,-5.6537,-5.651,-5.6024,-5.5689,-5.6315,-5.6331,-5.6391,-5.7489,-5.8323,-5.8926,-5.8995,-5.9012,-5.9012,-5.9012,-5.9012,-5.9012,-5.9012,-5.9012,-5.9012,-5.8978,-5.8719,-5.8455,-5.8224,-5.8044,-5.7918,-5.7881,-5.7881,-5.7571,-5.6768,-5.7315,-5.7357,-5.6489,-5.7071,-5.7725,-5.8346,-5.7399,-5.6829,-5.6954,-5.6858,-5.681,-5.681,-5.681,-5.681,-5.681,-5.681,-5.681,-5.6244,-5.7811,-5.9745,-6.2317,-6.4464,-6.5818,-6.5354,-6.5122,-6.4987,-6.4984,-6.4539,-6.392,-6.3174,-6.2667,-6.2379,-6.249,-6.1716,-6.1298,-6.1957,0.0,0.0,0.0,0.0,0.0,0.0,0.0,0.0,0.0,0.0,0.0,-5.8716,-5.8716,-5.8716,-5.8716,-5.8716,-5.8716,-5.8716,-5.8716,-5.8716,0.0,-5.8884,-5.8977,-5.8993,-6.0413,-6.1192,-6.1484,-6.1651,-6.1726,-6.1726,-6.1726,-6.1614,-6.1466,-6.1466,-6.0884,-6.0018,-6.0018,-5.9474,-5.8705,-5.8705,-5.8594,-5.8403,-5.8101,-5.7992,-5.7941,-5.7679,-5.7264,-5.6837,-5.6564,-5.6164,-5.5811,-5.5754,-5.6127,-5.6501,-5.6492,-5.733,-5.8305,-5.8875,-5.9012,-5.9012,-5.9012,-5.9012,-5.9012,-5.9012,-5.9012,-5.8944,-5.8875,-5.8788,-5.8596,-5.826,-5.8152,-5.808,-5.7918,-5.7881,-5.7808,-5.7645,-5.8298,-5.8306,-5.7357,-5.7992,-5.8166,-5.7559,-5.7172,-5.7243,-5.7887,-5.7178,-5.681,-5.681,-5.681,-5.681,-5.681,-5.681,-5.681,-5.607,-5.7888,-6.0035,-6.3381,-6.4928,-6.5508,-6.5102,-6.4577,-6.4091,-6.3806,-6.348,-6.3002,-6.2244,-6.1927,-6.1764,-6.1668,-6.1047,0.0,0.0,0.0,0.0,0.0,0.0,0.0,0.0,0.0,0.0,0.0,0.0,-5.8531,-5.8159,-5.8141,-5.7955,-5.7565,-5.7565,-5.7565,-5.7565,-5.7565,-5.7565,-5.7565,-5.7565,-5.7751,-5.8196,-5.9831,-6.0593,-6.0611,-6.102,-6.1206,-6.1206,-6.1206,-6.0945,-6.0593,-6.0593,-6.0072,-5.9348,-5.9348,-5.9069,-5.8716,-5.8716,-5.8716,-5.8675,-5.8468,-5.8385,-5.8363,-5.8164,-5.7867,-5.7449,-5.7127,-5.6732,-5.6347,-5.6021,-5.6104,-5.6317,-5.6526,-5.7123,-5.7676,-5.7908,-5.8236,-5.8478,-5.8478,-5.8771,-5.9012,-5.9012,-5.9012,-5.8995,-5.8892,-5.884,-5.8718,-5.8525,-5.8331,-5.8152,-5.8027,-5.7954,-5.7881,-5.7881,-5.8254,-5.8272,-5.7771,-5.8084,-5.8258,-5.8118,-5.7565,-5.7407,-5.7612,-5.7527,-5.7258,-5.681,-5.681,-5.681,-5.681,-5.681,-5.681,-5.6031,-5.8352,-6.0809,-6.4599,-6.516,-6.4745,-6.458,-6.398,-6.3226,-6.2356,-6.2159,-6.1888,-6.1012,-6.0806,-6.07,0.0,0.0,0.0,0.0,0.0,0.0,0.0,0.0,0.0,0.0,0.0,0.0,0.0,0.0,-5.8182,-5.7342,-5.7286,-5.6989,-5.632,-5.6302,-5.6302,-5.6302,-5.6302,-5.6302,-5.6302,-5.6302,-5.6729,-5.7546,-5.8735,-5.9441,-5.9738,-6.0463,-6.0778,-6.0778,-6.0778,-6.0351,-5.9701,-5.9701,-5.9292,-5.8716,-5.8716,-5.8716,-5.8716,-5.8716,-5.8716,-5.8716,-5.8716,-5.8716,-5.8716,-5.8716,-5.8406,-5.8037,-5.7774,-5.7412,-5.7028,-5.66,-5.631,-5.6219,-5.675,-5.699,-5.7039,-5.69,-5.7321,-5.7719,-5.7719,-5.8202,-5.8668,-5.8806,-5.8823,-5.8857,-5.8995,-5.8909,-5.8823,-5.8788,-5.849,-5.8224,-5.8188,-5.8044,-5.7881,-5.7881,-5.7881,-5.7881,-5.7881,-5.7881,-5.8169,-5.8795,-5.8201,-5.7634,-5.7096,-5.77,-5.759,-5.681,-5.681,-5.681,-5.681,-5.681,-5.681,-5.46,-5.7462,-6.0383,-6.2394,-6.3381,-6.3681,-6.2917,-6.2665,-6.2336,-6.1447,-6.1853,-6.2085,-6.1225,-6.0911,0.0,0.0,0.0,0.0,0.0,0.0,0.0,0.0,0.0,0.0,0.0,0.0,0.0,0.0,-5.7508,0.0,-5.6506,-5.6469,-5.6413,-5.6302,-5.6302,-5.6302,-5.6302,-5.6302,-5.6302,-5.6302,-5.6302,-5.6729,-5.749,-5.7008,-5.7546,-5.8884,-5.8995,-5.9032,-5.9032,-5.9032,-5.8977,-5.8865,-5.8865,-5.8791,-5.8716,-5.8716,-5.8716,-5.8716,-5.8716,-5.8716,-5.8716,-5.8716,-5.8716,-5.8716,-5.8716,-5.8406,-5.8082,-5.8056,-5.7779,-5.7431,-5.701,-5.6899,-5.6733,-5.6184,-5.6062,-5.6317,-5.7074,-5.7103,-5.6943,-5.6943,-5.7029,-5.7305,-5.7943,-5.8064,-5.8271,-5.8909,-5.8978,-5.8927,-5.8823,-5.8596,-5.8367,-5.8224,-5.8044,-5.7881,-5.7881,-5.7881,-5.7881,-5.7881,-5.7881,-5.7932,-5.8034,-5.8548,-5.8406,-5.7533,-5.7304,-5.7027,-5.681,-5.681,-5.681,-5.681,-5.681,-5.681,-5.4735,-5.694,-5.9087,-6.1737,-6.2317,-6.2278,-6.2375,-6.2027,-6.1427,-6.0596,-6.0731,-6.1021,0.0,0.0,0.0,0.0,0.0,0.0,0.0,0.0,0.0,0.0,0.0,0.0,0.0,0.0,0.0,0.0,0.0,-5.6686,-5.5789,-5.5636,-5.5373,-5.4909,-5.4909,-5.4909,-5.4909,-5.4909,-5.4909,-5.4909,-5.5354,-5.5763,-5.6097,-5.6246,-5.6933,-5.8011,-5.7565,-5.7621,-5.8029,-5.8029,-5.8289,-5.8716,-5.8716,-5.8716,-5.8716,-5.8716,-5.8716,-5.8716,-5.8716,-5.8716,-5.8716,-5.8716,-5.8716,-5.8716,-5.8716,-5.8593,-5.8385,-5.815,-5.7992,-5.7802,-5.7437,-5.7356,-5.7188,-5.6644,-5.6357,-5.6286,-5.6464,-5.6456,-5.648,-5.6752,-5.6805,-5.6909,-5.7236,-5.7633,-5.8012,-5.834,-5.8754,-5.8978,-5.8927,-5.8771,-5.8596,-5.8367,-5.8188,-5.8044,-5.7918,-5.7881,-5.7881,-5.7881,-5.7881,-5.7881,-5.7881,-5.8203,-5.8131,-5.7612,-5.8279,-5.8037,-5.6918,-5.7371,-5.7306,-5.681,-5.681,-5.681,-5.4279,-5.5664,-5.7056,-6.0035,-6.046,-6.0364,-6.1234,-6.0925,-6.0286,0.0,-5.9571,0.0,0.0,0.0,0.0,0.0,0.0,0.0,0.0,0.0,0.0,0.0,0.0,0.0,0.0,0.0,0.0,0.0,0.0,-5.5939,-5.5025,-5.4839,-5.4483,-5.3831,-5.3813,-5.3813,-5.3813,-5.3813,-5.3813,-5.3813,-5.4407,-5.4816,-5.502,-5.5466,-5.6097,-5.684,-5.6469,-5.6636,-5.7212,-5.7212,-5.7565,-5.8122,-5.8326,-5.8401,-5.8419,-5.8624,-5.8716,-5.8716,-5.8716,-5.8716,-5.8716,-5.8716,-5.8716,-5.8716,-5.8716,-5.8716,-5.8635,-5.8341,-5.8257,-5.8168,-5.7821,-5.7726,-5.7631,-5.7239,-5.6966,-5.6582,-5.5844,-5.5744,-5.5907,-5.6163,-5.6219,-5.6271,-5.646,-5.696,-5.7391,-5.7598,-5.8099,-5.8512,-5.8702,-5.8583,-5.8495,-5.8508,-5.8331,-5.8116,-5.7918,-5.7881,-5.7881,-5.7881,-5.7881,-5.7881,-5.7881,-5.7881,-5.7823,-5.7698,-5.9002,-5.8905,-5.7344,-5.7945,-5.8006,-5.7527,-5.7527,-5.7385,-5.2171,-5.3033,-5.4116,-5.5896,-5.6912,-5.7733,-5.8604,-5.8758,-5.8729,-5.869,0.0,0.0,0.0,0.0,0.0,0.0,0.0,0.0,0.0,0.0,0.0,0.0,0.0,0.0,0.0,0.0,0.0,0.0,0.0,-5.5396,-5.4239,-5.4147,-5.4037,-5.3813,-5.3813,-5.3813,-5.3813,-5.3813,-5.3813,-5.3813,-5.385,-5.4258,-5.4983,-5.4258,-5.437,-5.5168,-5.5967,-5.632,-5.6357,-5.6357,-5.6395,-5.6506,-5.7268,-5.7565,-5.7658,-5.8419,-5.8716,-5.8716,-5.8716,-5.8716,-5.8716,-5.8716,-5.8716,-5.8716,-5.8716,-5.8716,-5.8696,-5.8677,-5.8656,-5.8593,-5.819,-5.806,-5.7987,-5.7655,-5.7577,-5.7076,-5.5408,-5.5057,-5.4969,-5.4678,-5.4632,-5.4856,-5.5563,-5.5669,-5.5995,-5.6736,-5.6891,-5.7167,-5.7874,-5.7774,-5.7895,-5.844,-5.8331,-5.8116,-5.7918,-5.7881,-5.7881,-5.7881,-5.7881,-5.7881,-5.7881,-5.7881,-5.7915,-5.7896,-5.8636,-5.8802,-5.8324,-5.8356,-5.876,-5.9455,-5.9455,-5.8998,-5.1282,-5.2161,-5.3112,-5.4146,-5.5505,-5.6792,-5.7577,-5.8197,-5.843,-5.7888,0.0,0.0,0.0,0.0,0.0,0.0,0.0,0.0,0.0,0.0,0.0,0.0,0.0,0.0,0.0,0.0,0.0,0.0,0.0,0.0,-5.4453,-5.4214,-5.4073,-5.4,-5.387,-5.3813,-5.3813,-5.3813,-5.3813,-5.3813,-5.3813,-5.3961,-5.4221,-5.3943,-5.3961,-5.4258,-5.4556,-5.5001,-5.5466,-5.5466,-5.58,-5.6376,-5.7193,-5.7509,-5.7602,-5.8401,-5.8716,-5.8716,-5.8716,-5.8716,-5.8716,-5.8716,-5.8716,-5.8716,-5.8716,-5.8716,-5.8716,-5.8716,-5.8716,-5.8656,-5.8532,-5.8489,-5.8385,-5.801,-5.7774,-5.737,-5.6546,-5.5858,-5.5254,-5.4882,-5.4669,-5.4598,-5.4856,-5.5305,-5.5719,-5.5995,-5.6477,-5.6891,-5.7167,-5.7531,-5.7826,-5.793,-5.8183,-5.8295,-5.8116,-5.7954,-5.7881,-5.7881,-5.7881,-5.7881,-5.7881,-5.7881,-5.7881,-5.7881,-5.8152,-5.8165,-5.7871,-5.8372,-5.8442,-5.8109,-5.8109,-5.7936,-5.0919,-5.1385,-5.1857,-5.2847,-5.3804,-5.484,-5.6162,-5.6902,-5.723,0.0,0.0,0.0,0.0,0.0,0.0,0.0,0.0,0.0,0.0,0.0,0.0,0.0,0.0,0.0,0.0,0.0,0.0,0.0,0.0,0.0,-5.47,-5.4434,-5.4214,-5.4109,-5.3907,-5.3813,-5.3813,-5.3813,-5.3813,-5.3813,-5.3813,-5.3813,-5.3813,-5.3813,-5.3813,-5.3813,-5.3813,-5.411,-5.4611,-5.4611,-5.4946,-5.5577,-5.6673,-5.71,-5.723,-5.8308,-5.8716,-5.8716,-5.8716,-5.8716,-5.8716,-5.8716,-5.8716,-5.8716,-5.8716,-5.8716,-5.8716,-5.8716,-5.8716,-5.8716,-5.8716,-5.8716,-5.8635,-5.8363,-5.8142,-5.7872,-5.751,-5.6616,-5.5744,-5.5301,-5.4913,-5.4637,-5.4512,-5.4925,-5.5236,-5.5236,-5.5701,-5.6133,-5.6374,-5.6822,-5.717,-5.7209,-5.7535,-5.7771,-5.7833,-5.7635,-5.7628,-5.7865,-5.7881,-5.7881,-5.7881,-5.7881,-5.7881,-5.7881,-5.7881,-5.7844,-5.7692,-5.8425,-5.8615,-5.8248,-5.8248,-5.8084,0.0,0.0,0.0,-5.1833,-5.1668,-5.1748,-5.4177,0.0,0.0,0.0,0.0,0.0,0.0,0.0,0.0,0.0,0.0,0.0,0.0,0.0,0.0,0.0,0.0,0.0,0.0,0.0,0.0,0.0,0.0,-5.5124,-5.4919,-5.4719,-5.4434,-5.4109,-5.3907,-5.3813,-5.3813,-5.3813,-5.3813,-5.3813,-5.3813,-5.3813,-5.3813,-5.3813,-5.3813,-5.3813,-5.3813,-5.3813,-5.3813,-5.3813,-5.3813,-5.3961,-5.5614,-5.6283,-5.6487,-5.8085,-5.8679,-5.8716,-5.8716,-5.8716,-5.8716,-5.8716,-5.8716,-5.8716,-5.8716,-5.8716,-5.8716,-5.8716,-5.8716,-5.8716,-5.8716,-5.8716,-5.8716,-5.8716,-5.8716,-5.8574,-5.8213,-5.729,-5.6357,-5.5755,-5.5313,-5.4961,-5.462,-5.4526,-5.4543,-5.4543,-5.4512,-5.477,-5.5495,-5.5598,-5.5826,-5.6402,-5.632,-5.6457,-5.7033,-5.6872,-5.7087,-5.7814,-5.7865,-5.7865,-5.7881,-5.7881,-5.7881,-5.7881,-5.7881,-5.7881,-5.7881,-5.8626,-5.9353,-6.003,-6.003,-5.9537,-5.0131,0.0,0.0,0.0,0.0,0.0,0.0,0.0,0.0,0.0,0.0,0.0,0.0,0.0,0.0,0.0,0.0,0.0,0.0,0.0,0.0,0.0,0.0,0.0,0.0,0.0,0.0,0.0,-5.5703,-5.5485,-5.5143,-5.4711,-5.4354,-5.4109,-5.3907,-5.3813,-5.3813,-5.3813,-5.3813,-5.3813,-5.3813,-5.3813,-5.3813,-5.3813,-5.3813,-5.3813,-5.3813,-5.3813,-5.3813,-5.3813,-5.3813,-5.3905,-5.4964,-5.5744,-5.6413,-5.7453,-5.8215,-5.8716,-5.8716,-5.8716,-5.8716,-5.8716,-5.8716,-5.8716,-5.8716,-5.8716,-5.8716,-5.8716,-5.8716,-5.8716,-5.8716,-5.8716,-5.8716,-5.8716,-5.8716,-5.8656,-5.8553,-5.8082,-5.7443,-5.6799,-5.6331,-5.5984,-5.59,-5.5467,-5.5134,-5.5134,-5.479,-5.4581,-5.4787,-5.5288,-5.5669,-5.5843,-5.6195,-5.6422,-5.6457,-5.6319,-5.6467,-5.707,-5.7103,-5.734,-5.7865,-5.7881,-5.7881,-5.7881,-5.7881,-5.7881,-5.7881,-5.8101,-5.8304,-5.8507,-5.8507,-5.8667,-4.9824,-4.9844,-4.9784,-5.0306,0.0,0.0,-5.193,-5.1966,0.0,0.0,0.0,0.0,0.0,0.0,0.0,0.0,0.0,0.0,0.0,0.0,0.0,0.0,0.0,0.0,0.0,0.0,0.0,-5.5895,-5.5827,-5.5629,-5.521,-5.481,-5.4503,-5.4233,-5.4018,-5.387,-5.3813,-5.3478,-5.3311,-5.3311,-5.3311,-5.3311,-5.3311,-5.3664,-5.3813,-5.3813,-5.3813,-5.3813,-5.3813,-5.3813,-5.3813,-5.3924,-5.5094,-5.5856,-5.645,-5.7583,-5.8308,-5.8716,-5.8716,-5.8716,-5.8716,-5.8716,-5.8716,-5.8716,-5.8716,-5.8716,-5.8716,-5.8716,-5.8716,-5.8716,-5.8716,-5.8716,-5.8716,-5.8716,-5.8716,-5.8716,-5.8716,-5.8511,-5.815,-5.7486,-5.6986,-5.6632,-5.6411,-5.6067,-5.5709,-5.5443,-5.5091,-5.479,-5.4543,-5.4891,-5.515,-5.515,-5.5384,-5.5632,-5.5841,-5.5723,-5.5911,-5.6521,-5.6772,-5.7109,-5.7569,-5.7766,-5.7881,-5.7881,-5.7594,-5.7442,-5.7442,-5.7746,-5.7881,-5.7881,-5.7881,-5.8118,-5.0011,-4.9659,-4.9391,-5.093,-5.0022,0.0,-5.1525,-5.1309,0.0,0.0,0.0,0.0,0.0,0.0,0.0,0.0,0.0,0.0,0.0,0.0,0.0,0.0,0.0,0.0,0.0,-5.6012,-5.6012,-5.6012,-5.5876,-5.5629,-5.5249,-5.5023,-5.4746,-5.4441,-5.4216,-5.4018,-5.3851,-5.2995,-5.2605,-5.2605,-5.2605,-5.2605,-5.2624,-5.3441,-5.3813,-5.3813,-5.3813,-5.3813,-5.3813,-5.3813,-5.3813,-5.3961,-5.554,-5.6209,-5.6487,-5.8011,-5.8624,-5.8716,-5.8716,-5.8716,-5.8716,-5.8716,-5.8716,-5.8716,-5.8716,-5.8716,-5.8716,-5.8716,-5.8716,-5.8716,-5.8716,-5.8716,-5.8716,-5.8716,-5.8716,-5.8716,-5.8716,-5.8716,-5.8532,-5.7928,-5.751,-5.7123,-5.6711,-5.6562,-5.6286,-5.5687,-5.5473,-5.5194,-5.4665,-5.4526,-5.4512,-5.4512,-5.4335,-5.4514,-5.5218,-5.5105,-5.5313,-5.6013,-5.6575,-5.6931,-5.6981,-5.745,-5.7681,-5.7645,-5.7019,-5.6681,-5.6681,-5.7492,-5.7881,-5.7881,-5.7881,-5.7881,-5.0903,-5.0516,-5.0094,-5.105,-5.0545,0.0,-5.0283,-4.973,-4.9399,0.0,0.0,0.0,0.0,0.0,0.0,0.0,0.0,0.0,0.0,0.0,0.0,0.0,0.0,0.0,0.0,-5.6012,-5.6012,-5.6012,-5.5876,-5.5703,-5.5437,-5.5105,-5.4806,-5.4565,-5.4267,-5.4091,-5.4036,-5.307,-5.2605,-5.2605,-5.2605,-5.2605,-5.2624,-5.3441,-5.3813,-5.3813,-5.3813,-5.3813,-5.3813,-5.3813,-5.3813,-5.3905,-5.4871,-5.5689,-5.6413,-5.7379,-5.8141,-5.8716,-5.8716,-5.8716,-5.8716,-5.8716,-5.8716,-5.8716,-5.8716,-5.8716,-5.8716,-5.8716,-5.8716,-5.8716,-5.8716,-5.8716,-5.8716,-5.8716,-5.8716,-5.8716,-5.8716,-5.8716,-5.8656,-5.8532,-5.8344,-5.8168,-5.8029,-5.7528,-5.7029,-5.6817,-5.5981,-5.5373,-5.5224,-5.4821,-5.4512,-5.4512,-5.4463,-5.4436,-5.4445,-5.4398,-5.4658,-5.5279,-5.5416,-5.5707,-5.6182,-5.6334,-5.628,-5.6139,-5.6004,-5.5919,-5.5936,-5.7256,-5.7881,-5.7881,-5.7881,-5.7881,-5.0621,-5.0429,-5.0299,-5.1131,-5.037,0.0,0.0,-4.9259,-4.8473,0.0,0.0,0.0,0.0,0.0,0.0,0.0,0.0,0.0,0.0,0.0,0.0,0.0,0.0,0.0,0.0,-5.6012,-5.6012,-5.6012,-5.5941,-5.5837,-5.5651,-5.574,-5.5483,-5.478,-5.4915,-5.4562,-5.3615,-5.2688,-5.226,-5.226,-5.226,-5.2466,-5.2877,-5.3717,-5.4036,-5.3944,-5.3944,-5.3889,-5.3813,-5.3813,-5.3813,-5.3924,-5.5169,-5.593,-5.645,-5.7658,-5.8364,-5.8716,-5.8716,-5.8716,-5.8716,-5.8716,-5.8716,-5.8716,-5.8716,-5.8716,-5.8716,-5.8716,-5.8716,-5.8716,-5.8716,-5.8716,-5.8716,-5.8716,-5.8716,-5.8716,-5.8716,-5.8716,-5.8716,-5.8716,-5.8635,-5.8572,-5.8465,-5.8115,-5.769,-5.7266,-5.666,-5.6037,-5.5473,-5.5152,-5.4834,-5.4543,-5.4512,-5.448,-5.4367,-5.4335,-5.4475,-5.4789,-5.5085,-5.5379,-5.5706,-5.5962,-5.5825,-5.5263,-5.5653,-5.56,-5.5158,-5.6258,-5.6985,-5.734,-5.734,-5.7543,-5.0358,-5.0358,-5.0479,-5.1015,-5.0053,-4.9258,0.0,0.0,0.0,-5.0095,0.0,0.0,0.0,0.0,0.0,0.0,0.0,0.0,0.0,0.0,0.0,0.0,0.0,0.0,0.0,-5.5857,-5.5838,-5.5993,-5.5857,-5.5776,-5.5797,-5.6398,-5.6276,-5.5228,-5.5693,-5.5204,-5.3654,-5.2491,-5.1987,-5.2137,-5.1968,-5.2325,-5.3132,-5.3996,-5.4304,-5.4163,-5.4163,-5.4055,-5.3926,-5.3926,-5.3889,-5.4,-5.5485,-5.6153,-5.6487,-5.7936,-5.8586,-5.8716,-5.8716,-5.8716,-5.8716,-5.8716,-5.8716,-5.8716,-5.8716,-5.8716,-5.8716,-5.8716,-5.8716,-5.8716,-5.8716,-5.8716,-5.8716,-5.8716,-5.8716,-5.8716,-5.8716,-5.8716,-5.8716,-5.8716,-5.8586,-5.8489,-5.8513,-5.8443,-5.8183,-5.7576,-5.729,-5.6765,-5.5716,-5.5473,-5.5164,-5.4557,-5.4512,-5.4512,-5.4512,-5.4512,-5.4512,-5.4512,-5.497,-5.5216,-5.5183,-5.5551,-5.5433,-5.4668,-5.5264,-5.523,-5.4483,-5.5076,-5.5803,-5.6596,-5.6731,-5.712,-5.1258,-5.1258,-5.1082,-5.0418,-5.009,-4.9591,-4.824,0.0,-4.8496,-4.8017,0.0,0.0,0.0,0.0,0.0,0.0,0.0,0.0,0.0,0.0,0.0,0.0,0.0,0.0,0.0,0.0,-5.5238,-5.5954,-5.5335,-5.5197,-5.5758,-5.6547,-5.6737,-5.6238,-5.6197,-5.5985,-5.5583,-5.3139,-5.2268,-5.2944,-5.225,-5.2325,-5.3132,-5.3996,-5.4392,-5.4356,-5.4356,-5.4339,-5.4321,-5.4321,-5.4234,-5.4148,-5.4855,-5.5633,-5.6413,-5.7323,-5.8103,-5.8716,-5.8716,-5.8716,-5.8716,-5.8716,-5.8716,-5.8716,-5.8716,-5.8716,-5.8716,-5.8716,-5.8716,-5.8716,-5.8716,-5.8716,-5.8716,-5.8716,-5.8716,-5.8716,-5.8716,-5.8716,-5.8716,-5.8716,-5.8122,-5.7821,-5.8402,-5.8489,-5.8403,-5.8133,-5.7642,-5.7022,-5.6303,-5.5716,-5.5164,-5.4557,-5.4512,-5.4512,-5.4512,-5.4512,-5.4512,-5.4512,-5.4549,-5.4505,-5.4327,-5.4283,-5.4202,-5.4084,-5.417,-5.417,-5.4084,-5.4137,-5.4754,-5.5817,-5.6511,-5.685,-5.1394,-5.1394,-5.1199,-5.0319,-4.9714,-4.9151,-4.8421,-4.7779,-4.7511,-4.8125,0.0,0.0,0.0,0.0,0.0,0.0,0.0,0.0,0.0,0.0,0.0,0.0,0.0,0.0,0.0,0.0,0.0,0.0,0.0,-5.4923,-5.5189,-5.6246,-5.6748,-5.6588,-5.6787,-5.6379,-5.5325,-5.4204,-5.3588,-5.3436,-5.3115,-5.338,-5.4154,-5.4516,-5.4619,-5.4519,-5.4645,-5.4623,-5.4528,-5.4528,-5.4476,-5.4397,-5.4589,-5.5025,-5.5727,-5.7147,-5.7815,-5.8085,-5.8549,-5.8716,-5.8716,-5.8716,-5.8716,-5.8716,-5.8716,-5.8716,-5.8716,-5.8716,-5.8716,-5.8716,-5.8716,-5.8716,-5.8716,-5.8716,-5.8716,-5.8716,-5.8716,-5.8716,-5.8568,-5.8103,-5.7732,-5.7433,-5.7262,-5.7552,-5.7783,-5.7698,-5.7757,-5.7594,-5.6946,-5.6607,-5.6037,-5.5122,-5.5031,-5.4896,-5.4543,-5.4512,-5.4512,-5.4512,-5.4512,-5.4463,-5.4367,-5.4303,-5.4257,-5.411,-5.411,-5.4078,-5.398,-5.398,-5.4256,-5.472,-5.5485,-5.6285,-5.1394,-5.1394,-5.1121,-5.0026,-4.9267,-4.8681,-4.8213,-4.753,-4.7322,-4.8546,-4.8719,0.0,0.0,0.0,-4.9086,-4.8841,0.0,-4.9373,0.0,0.0,0.0,0.0,0.0,0.0,0.0,0.0,0.0,0.0,0.0,0.0,-5.5103,-5.6452,-5.7171,-5.7064,-5.7619,-5.7161,-5.5602,-5.5129,-5.4628,-5.4112,-5.3831,-5.4183,-5.5071,-5.5014,-5.4937,-5.4836,-5.5009,-5.4971,-5.4833,-5.4833,-5.4775,-5.4689,-5.4645,-5.4711,-5.5025,-5.6613,-5.7208,-5.7311,-5.7888,-5.8219,-5.8382,-5.8382,-5.8531,-5.8716,-5.8716,-5.8716,-5.8716,-5.8716,-5.8716,-5.8716,-5.8716,-5.8716,-5.8716,-5.8716,-5.8716,-5.8716,-5.8716,-5.8531,-5.8215,-5.7621,-5.7138,-5.6636,-5.6042,-5.6557,-5.7087,-5.727,-5.7676,-5.779,-5.737,-5.7216,-5.6765,-5.5744,-5.5502,-5.5224,-5.479,-5.4589,-5.4512,-5.4512,-5.4512,-5.4512,-5.4512,-5.4512,-5.4431,-5.4303,-5.4271,-5.4239,-5.4143,-5.4143,-5.4143,-5.4127,-5.4799,-5.5655,0.0,0.0,-5.0984,-4.9267,-4.8818,-4.8388,-4.6749,-4.7588,-4.874,-4.88,-5.0127,-5.1284,-5.1304,-5.0634,-4.978,-4.894,-4.882,0.0,0.0,0.0,0.0,0.0,0.0,0.0,0.0,0.0,0.0,0.0,0.0,0.0,-5.5877,-5.7589,-5.8354,-5.7965,-5.8789,-5.8612,-5.7342,-5.5716,-5.4981,-5.5145,-5.4183,-5.4332,-5.548,-5.5275,-5.5288,-5.548,-5.548,-5.548,-5.5461,-5.5461,-5.5237,-5.4905,-5.5097,-5.4863,-5.4523,-5.5368,-5.6031,-5.6537,-5.6556,-5.6999,-5.7546,-5.7546,-5.8085,-5.8716,-5.8716,-5.8716,-5.8716,-5.8716,-5.8716,-5.8716,-5.8716,-5.8716,-5.8716,-5.8716,-5.8716,-5.8716,-5.8716,-5.8103,-5.7528,-5.7509,-5.619,-5.5076,-5.5057,-5.5763,-5.6559,-5.7196,-5.7323,-5.7306,-5.7304,-5.729,-5.7022,-5.6357,-5.5762,-5.5385,-5.5355,-5.4834,-5.4512,-5.4512,-5.4512,-5.4512,-5.4512,-5.4512,-5.4512,-5.448,-5.448,-5.448,-5.448,-5.448,-5.448,-5.4497,-5.4898,-5.5126,0.0,0.0,-5.1121,-4.9948,0.0,0.0,-4.7412,-4.7608,-4.7842,-4.7256,-4.8961,-5.0351,-4.9796,-4.9918,-4.9804,-4.8937,-4.8356,-4.7703,0.0,0.0,0.0,0.0,0.0,0.0,0.0,0.0,0.0,0.0,0.0,0.0,0.0,-5.6695,-5.7474,-5.7346,-5.8614,-5.8547,-5.6956,-5.6937,-5.6435,-5.5389,-5.5046,-5.5103,-5.5504,-5.5432,-5.5444,-5.5504,-5.5629,-5.5703,-5.5703,-5.5703,-5.5531,-5.5295,-5.5223,-5.5009,-5.4812,-5.5529,-5.5831,-5.5955,-5.637,-5.659,-5.671,-5.671,-5.6896,-5.7119,-5.7119,-5.7119,-5.723,-5.7769,-5.7918,-5.8029,-5.8568,-5.8716,-5.8716,-5.8716,-5.8716,-5.8716,-5.8716,-5.8085,-5.7342,-5.6822,-5.5782,-5.4834,-5.4314,-5.4463,-5.4908,-5.5666,-5.6199,-5.652,-5.6503,-5.6434,-5.6324,-5.6165,-5.5991,-5.5741,-5.5437,-5.4834,-5.4512,-5.4512,-5.4512,-5.4512,-5.4512,-5.4512,-5.4512,-5.4512,-5.4512,-5.4512,-5.4512,-5.4512,-5.4512,-5.4512,-5.4643,-5.4957,-5.1394,-5.1394,0.0,-5.0319,-4.9675,0.0,-4.784,0.0,-4.7861,-4.7295,-4.8486,-4.9657,-4.9716,-4.9677,-4.9442,-4.8896,-4.8115,-4.7398,0.0,-4.746,0.0,0.0,0.0,0.0,0.0,0.0,-5.2341,-5.3409,0.0,0.0,0.0,0.0,-5.7544,-5.7452,-5.8739,-5.8683,-5.7179,-5.7409,-5.6889,-5.5607,-5.5539,-5.5554,-5.5675,-5.5629,-5.564,-5.5695,-5.5808,-5.5876,-5.5876,-5.5876,-5.5776,-5.5596,-5.5461,-5.5255,-5.5042,-5.5416,-5.5381,-5.5219,-5.5528,-5.5733,-5.5837,-5.5837,-5.606,-5.6302,-5.6302,-5.6302,-5.6469,-5.7268,-5.7509,-5.7695,-5.8494,-5.8716,-5.8642,-5.8345,-5.8271,-5.8196,-5.7918,-5.7212,-5.6469,-5.5949,-5.515,-5.4407,-5.3887,-5.3813,-5.4073,-5.489,-5.5407,-5.581,-5.6066,-5.602,-5.5997,-5.6013,-5.6066,-5.5995,-5.5731,-5.5355,-5.5061,-5.4834,-5.4803,-5.4728,-5.4512,-5.4512,-5.4512,-5.4512,-5.4512,-5.4512,-5.4512,-5.4512,-5.4512,-5.4512,-5.4512,-5.477]},{"header":{"parameterUnit":"m.s-1","parameterCategory":1,"la1":30.6,"la2":29.2853,"lo1":-89.7004,"lo2":-87.6739,"dy":0.0162,"dx":0.0183,"nx":112,"ny":82,"refTime":"2024-09-07T18:00:00:Z","depth":0,"parameterNumber":3,"parameterNumberName":"V-component_of_WINDS"},"data":[0.0,0.0,0.0,0.0,0.0,0.0,0.0,0.0,0.0,0.0,0.0,0.0,0.0,0.0,0.0,0.0,0.0,0.0,0.0,0.0,0.0,0.0,0.0,0.0,0.0,0.0,0.0,0.0,0.0,0.0,0.0,0.0,0.0,0.0,0.0,0.0,0.0,0.0,0.0,0.0,0.0,0.0,0.0,0.0,0.0,0.0,0.0,0.0,0.0,0.0,0.0,0.0,0.0,0.0,0.0,0.0,0.0,0.0,0.0,0.0,0.0,0.0,0.0,0.0,0.0,0.0,0.0,0.0,0.0,0.0,0.0,0.0,0.0,0.0,0.0,0.0,0.0,0.0,0.0,0.0,0.0,0.0,0.0,0.0,0.0,0.0,0.0,0.0,0.0,0.0,4.363,4.5897,4.8024,4.9468,5.0061,4.9598,4.8052,4.521,0.0,0.0,0.0,0.0,0.0,0.0,0.0,0.0,0.0,0.0,0.0,0.0,0.0,0.0,0.0,0.0,0.0,0.0,0.0,0.0,0.0,0.0,0.0,0.0,0.0,0.0,0.0,0.0,0.0,0.0,0.0,0.0,0.0,0.0,0.0,0.0,0.0,0.0,0.0,0.0,0.0,0.0,0.0,0.0,0.0,0.0,0.0,0.0,0.0,0.0,0.0,0.0,0.0,0.0,0.0,0.0,0.0,0.0,0.0,0.0,0.0,0.0,0.0,0.0,0.0,0.0,0.0,0.0,0.0,0.0,0.0,0.0,0.0,0.0,0.0,0.0,0.0,0.0,0.0,0.0,0.0,0.0,0.0,0.0,0.0,0.0,0.0,0.0,0.0,0.0,0.0,0.0,0.0,0.0,0.0,0.0,0.0,0.0,0.0,0.0,0.0,0.0,0.0,0.0,4.4456,4.7059,4.8357,4.9083,4.9176,4.8049,4.6445,4.4486,0.0,0.0,0.0,0.0,0.0,0.0,0.0,0.0,0.0,0.0,0.0,0.0,0.0,0.0,0.0,0.0,0.0,0.0,0.0,0.0,0.0,0.0,0.0,0.0,0.0,0.0,0.0,0.0,0.0,0.0,0.0,0.0,0.0,0.0,0.0,0.0,0.0,0.0,0.0,0.0,0.0,0.0,0.0,0.0,0.0,0.0,0.0,0.0,0.0,0.0,0.0,0.0,0.0,0.0,0.0,0.0,0.0,0.0,0.0,0.0,0.0,0.0,0.0,0.0,0.0,0.0,0.0,0.0,0.0,0.0,0.0,0.0,0.0,0.0,0.0,0.0,0.0,0.0,0.0,0.0,0.0,0.0,0.0,0.0,0.0,0.0,0.0,0.0,0.0,0.0,0.0,0.0,0.0,0.0,0.0,0.0,0.0,0.0,0.0,0.0,0.0,0.0,0.0,4.334,4.5157,4.7865,4.8194,4.826,4.826,4.7073,4.5494,4.3443,4.2563,0.0,0.0,0.0,0.0,0.0,0.0,0.0,0.0,0.0,0.0,0.0,0.0,0.0,0.0,0.0,0.0,0.0,0.0,0.0,0.0,0.0,0.0,0.0,0.0,0.0,0.0,0.0,0.0,0.0,0.0,0.0,0.0,0.0,0.0,0.0,0.0,0.0,0.0,0.0,0.0,0.0,0.0,0.0,0.0,0.0,0.0,0.0,0.0,0.0,0.0,0.0,0.0,0.0,0.0,0.0,0.0,0.0,0.0,0.0,0.0,0.0,0.0,0.0,0.0,0.0,0.0,0.0,0.0,0.0,0.0,0.0,0.0,0.0,0.0,0.0,0.0,0.0,0.0,0.0,0.0,0.0,0.0,0.0,0.0,0.0,0.0,0.0,0.0,0.0,0.0,0.0,0.0,0.0,0.0,0.0,0.0,0.0,0.0,0.0,0.0,0.0,0.0,4.4795,4.5972,4.8358,4.8004,4.7604,4.7604,4.6098,4.4344,4.2479,4.0754,0.0,0.0,0.0,0.0,0.0,0.0,0.0,0.0,0.0,0.0,0.0,0.0,0.0,0.0,0.0,0.0,0.0,0.0,0.0,0.0,0.0,0.0,0.0,0.0,0.0,0.0,0.0,0.0,0.0,0.0,0.0,0.0,0.0,0.0,0.0,0.0,0.0,0.0,0.0,0.0,0.0,0.0,0.0,0.0,0.0,0.0,0.0,0.0,0.0,0.0,0.0,0.0,0.0,0.0,0.0,0.0,0.0,0.0,0.0,0.0,0.0,0.0,0.0,0.0,0.0,0.0,0.0,0.0,0.0,0.0,0.0,0.0,0.0,0.0,0.0,0.0,0.0,0.0,0.0,0.0,0.0,0.0,0.0,0.0,0.0,0.0,0.0,0.0,0.0,0.0,0.0,0.0,0.0,0.0,0.0,0.0,0.0,0.0,0.0,0.0,0.0,0.0,4.528,4.7004,4.8466,4.8004,4.7604,4.7604,4.4664,4.2494,4.1724,3.8633,0.0,0.0,0.0,0.0,0.0,0.0,0.0,0.0,0.0,0.0,0.0,0.0,0.0,0.0,0.0,0.0,0.0,0.0,0.0,0.0,0.0,0.0,0.0,0.0,0.0,0.0,0.0,0.0,0.0,0.0,0.0,0.0,0.0,0.0,0.0,0.0,0.0,0.0,0.0,0.0,0.0,0.0,0.0,0.0,0.0,0.0,0.0,0.0,0.0,0.0,0.0,0.0,0.0,0.0,0.0,0.0,0.0,0.0,0.0,0.0,0.0,0.0,0.0,0.0,0.0,0.0,0.0,0.0,0.0,0.0,0.0,0.0,0.0,0.0,0.0,0.0,0.0,0.0,0.0,0.0,0.0,0.0,0.0,0.0,0.0,0.0,0.0,0.0,0.0,0.0,0.0,0.0,0.0,0.0,0.0,0.0,0.0,0.0,0.0,0.0,0.0,0.0,4.4356,4.6188,4.8373,4.7635,4.6973,4.6973,4.4664,4.2371,4.0416,0.0,0.0,0.0,0.0,0.0,0.0,0.0,0.0,0.0,0.0,0.0,0.0,0.0,0.0,0.0,0.0,0.0,0.0,0.0,0.0,0.0,0.0,0.0,0.0,0.0,0.0,0.0,0.0,0.0,0.0,0.0,0.0,0.0,0.0,0.0,0.0,0.0,0.0,0.0,0.0,0.0,0.0,0.0,0.0,0.0,0.0,0.0,0.0,0.0,0.0,0.0,0.0,0.0,0.0,0.0,0.0,0.0,0.0,0.0,0.0,0.0,0.0,0.0,0.0,0.0,0.0,0.0,0.0,0.0,0.0,0.0,0.0,0.0,0.0,0.0,0.0,0.0,0.0,0.0,0.0,0.0,0.0,0.0,0.0,0.0,0.0,0.0,0.0,0.0,0.0,0.0,0.0,0.0,0.0,0.0,0.0,0.0,0.0,0.0,0.0,0.0,0.0,4.1975,4.3952,4.5898,4.8166,4.7201,4.6444,4.6524,4.425,4.1868,3.9628,0.0,0.0,0.0,0.0,0.0,0.0,0.0,0.0,0.0,0.0,0.0,0.0,0.0,0.0,0.0,0.0,0.0,0.0,0.0,0.0,0.0,0.0,0.0,0.0,0.0,0.0,0.0,0.0,0.0,0.0,0.0,0.0,0.0,0.0,0.0,0.0,0.0,0.0,0.0,0.0,0.0,0.0,0.0,0.0,0.0,0.0,0.0,0.0,0.0,0.0,0.0,0.0,0.0,0.0,0.0,0.0,0.0,0.0,0.0,0.0,0.0,0.0,0.0,0.0,0.0,0.0,0.0,0.0,0.0,0.0,0.0,0.0,0.0,0.0,0.0,0.0,0.0,0.0,0.0,0.0,0.0,0.0,0.0,0.0,0.0,0.0,0.0,0.0,0.0,0.0,0.0,0.0,0.0,0.0,0.0,0.0,0.0,0.0,0.0,0.0,0.0,0.0,4.1726,4.4322,4.6518,4.7855,4.6807,4.6098,4.6284,4.3181,4.0729,0.0,0.0,0.0,0.0,0.0,0.0,0.0,0.0,0.0,0.0,0.0,0.0,0.0,0.0,0.0,0.0,0.0,0.0,0.0,0.0,0.0,0.0,0.0,0.0,0.0,0.0,0.0,0.0,0.0,0.0,0.0,0.0,0.0,0.0,0.0,0.0,0.0,0.0,0.0,0.0,0.0,0.0,0.0,0.0,0.0,0.0,0.0,0.0,0.0,0.0,0.0,0.0,0.0,0.0,0.0,0.0,0.0,0.0,0.0,0.0,0.0,0.0,0.0,0.0,0.0,0.0,0.0,0.0,0.0,0.0,0.0,0.0,0.0,0.0,0.0,0.0,0.0,0.0,0.0,0.0,0.0,0.0,0.0,0.0,0.0,0.0,0.0,0.0,0.0,0.0,0.0,0.0,0.0,0.0,0.0,0.0,0.0,0.0,0.0,0.0,0.0,0.0,0.0,4.1726,4.4322,4.6351,4.7217,4.6533,4.5819,4.5428,4.3602,4.1319,3.8598,0.0,0.0,0.0,0.0,0.0,0.0,0.0,0.0,0.0,0.0,0.0,0.0,0.0,0.0,0.0,0.0,0.0,0.0,0.0,0.0,0.0,0.0,0.0,0.0,0.0,0.0,0.0,0.0,0.0,0.0,0.0,0.0,0.0,0.0,0.0,0.0,0.0,0.0,0.0,0.0,0.0,0.0,0.0,0.0,0.0,0.0,0.0,0.0,0.0,0.0,0.0,0.0,0.0,0.0,0.0,0.0,0.0,0.0,0.0,0.0,0.0,0.0,0.0,0.0,0.0,0.0,0.0,0.0,0.0,0.0,0.0,0.0,0.0,0.0,0.0,0.0,0.0,0.0,0.0,0.0,0.0,0.0,0.0,0.0,0.0,0.0,0.0,0.0,0.0,0.0,0.0,0.0,0.0,0.0,0.0,0.0,0.0,0.0,0.0,0.0,0.0,0.0,4.1504,4.4086,4.5973,4.6652,4.6124,4.5485,4.49,4.3886,4.2001,3.8944,0.0,0.0,0.0,0.0,0.0,0.0,0.0,0.0,0.0,0.0,0.0,0.0,0.0,0.0,0.0,0.0,0.0,0.0,0.0,0.0,0.0,0.0,0.0,0.0,0.0,0.0,0.0,0.0,0.0,0.0,0.0,0.0,0.0,0.0,0.0,0.0,0.0,0.0,0.0,0.0,0.0,0.0,0.0,0.0,0.0,0.0,0.0,0.0,0.0,0.0,0.0,0.0,0.0,0.0,0.0,0.0,0.0,0.0,0.0,0.0,0.0,0.0,0.0,0.0,0.0,0.0,0.0,0.0,0.0,0.0,0.0,0.0,0.0,0.0,0.0,0.0,0.0,0.0,0.0,0.0,0.0,0.0,0.0,0.0,0.0,0.0,0.0,0.0,0.0,0.0,0.0,0.0,0.0,0.0,0.0,0.0,0.0,0.0,0.0,0.0,0.0,0.0,4.1055,4.3584,4.5397,4.6025,4.5574,4.5012,4.4499,4.3967,4.2568,4.0011,0.0,0.0,0.0,0.0,0.0,0.0,0.0,0.0,0.0,0.0,0.0,0.0,0.0,0.0,0.0,0.0,0.0,0.0,0.0,0.0,0.0,0.0,0.0,0.0,0.0,0.0,0.0,0.0,0.0,0.0,0.0,0.0,0.0,0.0,0.0,0.0,0.0,0.0,0.0,0.0,0.0,0.0,0.0,0.0,0.0,0.0,0.0,0.0,0.0,0.0,0.0,0.0,0.0,0.0,0.0,0.0,0.0,0.0,0.0,0.0,3.5478,0.0,0.0,0.0,0.0,0.0,0.0,0.0,0.0,0.0,0.0,0.0,0.0,0.0,0.0,0.0,0.0,0.0,0.0,0.0,0.0,0.0,0.0,0.0,0.0,0.0,0.0,0.0,0.0,0.0,0.0,0.0,0.0,0.0,0.0,0.0,0.0,0.0,0.0,0.0,0.0,0.0,4.0561,4.2753,4.4381,4.468,4.4616,4.4257,4.3638,4.3459,4.2299,3.9682,3.9382,0.0,0.0,0.0,0.0,0.0,0.0,0.0,0.0,0.0,0.0,0.0,0.0,0.0,0.0,0.0,0.0,0.0,0.0,0.0,0.0,0.0,0.0,0.0,0.0,0.0,0.0,0.0,0.0,0.0,0.0,0.0,0.0,0.0,0.0,0.0,0.0,0.0,0.0,0.0,0.0,0.0,0.0,0.0,0.0,0.0,0.0,0.0,0.0,0.0,0.0,0.0,0.0,0.0,0.0,0.0,0.0,0.0,0.0,0.0,0.0,3.621,0.0,0.0,0.0,0.0,0.0,0.0,0.0,0.0,0.0,0.0,0.0,0.0,0.0,0.0,0.0,0.0,0.0,0.0,0.0,0.0,0.0,0.0,0.0,0.0,0.0,0.0,0.0,0.0,0.0,0.0,0.0,0.0,0.0,0.0,0.0,0.0,0.0,0.0,0.0,0.0,4.0486,4.25,4.3908,4.3991,4.4032,4.3723,4.307,4.301,4.2297,4.0596,3.9639,0.0,0.0,0.0,0.0,0.0,0.0,0.0,0.0,0.0,0.0,0.0,0.0,0.0,0.0,0.0,0.0,0.0,0.0,0.0,0.0,0.0,0.0,0.0,0.0,0.0,0.0,0.0,0.0,0.0,0.0,0.0,0.0,0.0,0.0,0.0,0.0,0.0,0.0,0.0,0.0,0.0,0.0,0.0,0.0,0.0,0.0,0.0,0.0,0.0,0.0,0.0,0.0,0.0,3.8341,3.8973,3.8908,3.9456,3.9287,3.8617,3.8361,3.7645,3.6735,3.8219,0.0,0.0,0.0,0.0,0.0,0.0,0.0,0.0,0.0,0.0,0.0,0.0,0.0,0.0,0.0,0.0,0.0,0.0,0.0,0.0,0.0,0.0,0.0,0.0,4.3144,4.2829,0.0,0.0,0.0,0.0,0.0,0.0,0.0,0.0,0.0,0.0,0.0,0.0,4.0477,4.229,4.3499,4.3525,4.3525,4.3304,4.2732,4.2688,4.2408,4.172,4.0188,3.9246,0.0,0.0,0.0,0.0,0.0,0.0,0.0,0.0,0.0,0.0,0.0,0.0,0.0,0.0,0.0,0.0,0.0,0.0,0.0,0.0,0.0,0.0,0.0,0.0,0.0,0.0,0.0,0.0,0.0,0.0,0.0,0.0,3.5521,3.5648,0.0,0.0,0.0,0.0,0.0,0.0,0.0,0.0,0.0,0.0,0.0,0.0,0.0,3.5755,3.655,3.7382,3.774,3.7506,3.8839,3.9235,3.881,3.9345,3.9546,3.9437,3.9388,0.0,3.7457,3.7976,0.0,0.0,0.0,0.0,0.0,0.0,0.0,0.0,0.0,0.0,0.0,0.0,0.0,0.0,0.0,0.0,0.0,0.0,0.0,0.0,0.0,0.0,4.4265,4.4515,4.3972,4.3527,0.0,4.3167,4.2004,4.1347,4.0792,0.0,0.0,0.0,0.0,0.0,0.0,0.0,3.9938,4.1483,4.2632,4.2821,4.2821,4.2791,4.2703,4.2688,4.2408,4.172,4.144,4.1057,4.0459,3.8686,0.0,0.0,0.0,0.0,0.0,0.0,0.0,0.0,0.0,0.0,0.0,0.0,0.0,0.0,0.0,0.0,0.0,0.0,0.0,0.0,0.0,0.0,0.0,0.0,0.0,0.0,0.0,0.0,0.0,3.3777,3.4404,3.4417,3.4189,3.3843,0.0,0.0,0.0,0.0,0.0,0.0,0.0,0.0,0.0,3.6471,3.6795,3.7256,3.7915,3.8569,3.8833,3.8724,3.9616,3.9934,3.9729,4.0246,4.0487,4.0463,3.9862,3.9249,3.8738,3.8591,3.848,3.8342,0.0,0.0,0.0,0.0,3.8844,3.8722,3.878,3.8579,0.0,3.8579,0.0,0.0,0.0,0.0,0.0,0.0,0.0,0.0,0.0,0.0,4.5221,4.5414,4.5117,4.4922,4.5356,4.4924,4.409,0.0,4.226,4.1591,4.0334,0.0,0.0,0.0,0.0,4.029,4.0485,4.1525,4.2284,4.2351,4.2351,4.2351,4.2351,4.2351,4.2234,4.1956,4.1576,4.124,4.0923,3.9856,3.9258,0.0,0.0,0.0,0.0,0.0,0.0,0.0,0.0,0.0,0.0,0.0,0.0,0.0,0.0,0.0,0.0,0.0,0.0,0.0,0.0,0.0,0.0,0.0,0.0,0.0,0.0,0.0,0.0,3.3426,3.3837,3.3693,3.3921,3.3825,0.0,0.0,0.0,0.0,0.0,0.0,3.617,3.6483,3.712,3.8178,3.8599,3.9068,3.9621,3.9886,4.0006,4.0018,4.0415,4.0595,4.0607,4.1004,4.1184,4.1136,4.021,3.9813,3.9725,3.8926,3.8353,3.8034,3.8163,3.8379,3.8615,3.8891,3.8712,3.8467,3.8592,3.8539,3.8364,3.825,0.0,3.8762,3.8542,0.0,0.0,0.0,0.0,4.2907,4.3106,4.3929,4.4773,4.5064,4.4911,4.4851,4.5398,4.5307,4.4834,0.0,4.344,4.2773,4.1336,0.0,0.0,0.0,0.0,4.0539,4.1033,4.1686,4.2092,4.2092,4.2092,4.2092,4.2092,4.2092,4.2092,4.2092,4.1628,4.1352,4.1352,4.0848,4.0383,3.9901,0.0,0.0,0.0,0.0,0.0,0.0,0.0,0.0,0.0,0.0,0.0,0.0,0.0,0.0,0.0,0.0,0.0,0.0,0.0,0.0,0.0,0.0,0.0,0.0,0.0,0.0,0.0,0.0,0.0,3.4763,3.5629,0.0,0.0,0.0,0.0,3.5497,3.6459,3.7276,3.7829,3.8852,3.9886,4.0944,4.1004,4.128,4.181,4.1341,4.11,4.11,4.1136,4.1148,4.1148,4.1172,4.1184,4.1148,4.0595,4.0355,4.0242,3.8388,3.816,3.893,3.8692,3.9125,3.9791,3.8923,3.8917,3.9306,3.8947,3.8475,3.8216,3.9238,3.9117,3.8505,3.849,3.88,0.0,0.0,4.0708,4.1658,4.2258,4.1972,4.1703,4.2695,4.2195,4.1999,4.397,4.364,4.3318,0.0,4.4327,4.3703,4.2977,0.0,4.1004,4.1004,4.1033,4.1062,4.1091,4.1686,4.2092,4.2092,4.2092,4.2092,4.2092,4.2092,4.2092,4.2092,4.2063,4.2049,4.2049,4.141,4.1033,4.1044,3.9852,0.0,0.0,0.0,0.0,0.0,0.0,0.0,0.0,0.0,0.0,0.0,0.0,0.0,0.0,0.0,0.0,0.0,0.0,0.0,0.0,0.0,0.0,0.0,0.0,0.0,0.0,0.0,0.0,3.629,3.6675,0.0,3.6386,3.6519,3.6771,3.712,3.7817,3.8767,3.9982,4.0403,4.11,4.2217,4.2253,4.2181,4.1978,4.1786,4.1521,4.1184,4.1184,4.1184,4.1184,4.1184,4.1184,4.1148,4.0619,4.0391,4.0306,3.931,3.9055,3.9357,3.8911,3.9109,3.9683,3.8982,3.8825,3.892,3.8457,3.8182,3.8085,3.8697,3.8678,3.8495,3.8649,3.8805,3.8969,3.9171,3.9953,4.0783,4.1041,4.1541,4.2084,4.2474,4.239,4.2439,4.3163,4.3033,4.2965,4.3457,4.3589,4.3638,4.3646,4.3253,4.2687,4.186,4.2063,4.2179,4.1787,4.1947,4.2092,4.2092,4.2092,4.2092,4.2092,4.2092,4.2092,4.2092,4.2092,4.2092,4.2092,4.186,4.1541,4.1105,4.0234,3.9073,0.0,0.0,0.0,0.0,0.0,0.0,0.0,0.0,0.0,0.0,0.0,0.0,0.0,0.0,0.0,0.0,0.0,0.0,0.0,0.0,0.0,0.0,0.0,0.0,0.0,3.5485,3.6471,3.7348,3.7781,3.7938,3.7757,3.807,3.8419,3.8767,3.9308,4.015,4.1377,4.1617,4.2122,4.2988,4.3012,4.2772,4.2301,4.2121,4.1701,4.1184,4.1184,4.1184,4.1184,4.1184,4.1184,4.1172,4.0812,4.0667,4.0619,4.009,3.9982,4.0066,3.9357,3.9188,3.9296,3.8948,3.8695,3.8479,3.8106,3.7986,3.8039,3.8198,3.825,3.8303,3.8461,3.8514,3.8514,3.8514,3.9117,3.9712,3.9712,4.0452,4.118,4.1343,4.1505,4.1766,4.2146,4.2012,4.1963,4.2647,4.3038,4.3305,4.3565,4.3695,4.3501,4.2668,4.2795,4.2847,4.2455,4.2223,4.2092,4.2092,4.2092,4.2092,4.2092,4.2092,4.2092,4.2092,4.2092,4.2092,4.2092,4.1874,4.1555,4.1105,4.0887,4.0162,3.8928,0.0,0.0,0.0,0.0,0.0,0.0,0.0,0.0,0.0,0.0,0.0,0.0,0.0,0.0,0.0,0.0,0.0,0.0,0.0,0.0,0.0,0.0,0.0,3.5665,3.6579,3.7445,3.7986,3.9008,3.9398,3.8881,3.9794,4.0406,4.0451,4.0932,4.1461,4.199,4.2566,4.3012,4.3517,4.3529,4.3289,4.2855,4.2267,4.1784,4.1208,4.1196,4.1184,4.1184,4.1184,4.1184,4.1184,4.1184,4.1184,4.1148,4.0631,4.0715,4.1088,4.0042,3.9333,3.8888,3.8864,3.8479,3.7986,3.7986,3.7986,3.7986,3.7986,3.7986,3.7986,3.7986,3.7986,3.7986,3.7986,3.8198,3.8409,3.8409,3.8579,3.8893,3.9218,3.9258,3.9608,4.0882,4.0364,4.0275,4.2306,4.2695,4.2744,4.284,4.3155,4.3413,4.3445,4.3241,0.0,4.3021,4.2498,4.2136,4.215,4.2136,4.2136,4.215,4.2136,4.2121,4.2121,4.2107,4.2107,4.2121,4.1497,4.1163,4.1192,4.1831,4.215,4.215,0.0,0.0,0.0,0.0,0.0,0.0,0.0,0.0,0.0,0.0,0.0,0.0,0.0,0.0,0.0,0.0,0.0,0.0,0.0,0.0,0.0,3.4837,3.6244,3.6708,3.7685,3.8707,3.9621,3.9923,3.9982,3.9841,4.0716,4.1224,4.0845,4.1779,4.2543,4.306,4.3228,4.3553,4.4033,4.4057,4.3854,4.3313,4.2796,4.2338,4.1749,4.1365,4.1184,4.1184,4.1184,4.1184,4.1184,4.1184,4.1184,4.1172,4.1028,4.1052,4.1124,4.0439,4.0331,4.0439,3.9669,3.8791,3.7986,3.7986,3.7986,3.7986,3.7986,3.7986,3.7986,3.7986,3.7986,3.7986,3.7986,3.8039,3.8092,3.8092,3.8303,3.8566,3.8893,3.8945,3.9154,3.9917,3.9724,3.962,4.0415,4.0567,4.1232,4.3497,4.3985,4.415,4.4434,4.4399,0.0,4.3776,4.3152,4.2934,4.3427,4.3036,4.2948,4.3427,4.3021,4.2745,4.2745,4.2339,4.2295,4.2716,4.2571,4.2702,4.3181,4.3369,4.3471,0.0,0.0,0.0,0.0,0.0,0.0,0.0,0.0,0.0,0.0,0.0,0.0,0.0,0.0,0.0,0.0,0.0,0.0,0.0,0.0,0.0,0.0,3.5474,3.6843,3.7656,3.83,3.9108,4.0209,4.0176,4.0128,4.0128,4.0801,4.1282,4.1291,4.191,4.2675,4.3481,4.3505,4.3647,4.3876,4.39,4.3638,4.309,4.2805,4.258,4.235,4.1761,4.1521,4.1521,4.1521,4.1521,0.0,4.1749,4.1713,4.1533,4.1749,4.1581,0.0,0.0,0.0,0.0,0.0,3.8731,3.7986,3.7986,3.7986,3.7986,3.7986,3.7986,3.7986,3.7986,3.7986,3.7986,3.7986,3.7986,3.7986,3.7986,3.8145,3.8303,3.8566,3.8736,3.8945,3.9426,3.9478,3.953,3.9697,3.9697,0.0,4.262,4.3006,4.3074,4.3296,4.3494,4.3622,4.3726,4.3154,4.3085,4.3907,4.3645,4.3573,4.3964,4.3631,0.0,0.0,0.0,4.2919,4.2992,4.2992,0.0,0.0,0.0,0.0,0.0,0.0,0.0,0.0,4.5053,4.5636,0.0,0.0,0.0,0.0,0.0,0.0,0.0,0.0,0.0,0.0,0.0,0.0,0.0,0.0,0.0,0.0,3.6342,3.7371,3.8319,3.8398,3.8791,3.9943,4.0017,3.9968,3.9911,4.0411,4.1,4.1565,4.1672,4.2272,4.3333,0.0,0.0,0.0,0.0,4.2966,4.2447,4.2388,4.2499,4.2652,4.2125,4.1874,4.1874,4.1945,4.2003,4.2027,4.2555,4.2554,4.2157,4.2627,4.2229,4.1268,4.1208,4.086,4.0282,3.9272,3.8551,3.807,3.7998,0.0,0.0,3.7986,3.7986,3.7986,3.7986,3.7986,3.7986,3.7986,3.7986,3.7986,3.7986,3.7986,3.8092,3.8356,3.8566,3.8841,3.9206,3.9478,3.9645,3.9685,3.9697,3.9981,4.0882,4.1119,4.1219,4.1369,4.1691,4.2295,4.3346,4.2918,4.2939,4.4095,0.0,0.0,4.4197,4.4139,4.4095,4.4095,4.4095,4.3863,4.334,4.3384,4.4298,4.6171,4.62,4.7071,4.8827,4.9407,4.9132,4.8087,4.6954,4.7288,0.0,0.0,0.0,0.0,0.0,0.0,0.0,0.0,0.0,0.0,0.0,0.0,0.0,0.0,0.0,3.5175,3.6465,3.7623,3.8241,3.7903,3.8056,3.9344,3.9678,3.9707,3.9291,4.0439,4.1099,4.0819,4.1651,4.2292,4.2522,4.2522,4.2506,4.2483,4.2483,4.2437,4.2333,4.193,4.1738,4.1758,0.0,0.0,4.0944,4.1501,4.1754,4.1814,4.2472,4.2759,4.2675,4.2783,4.2446,4.1774,4.1353,4.086,4.0319,3.9681,3.9116,3.8587,3.8142,3.7986,3.7986,3.7986,3.7986,3.7986,3.7986,3.7986,0.0,3.7986,3.7986,3.7986,3.7986,3.7986,3.8092,3.8356,3.8461,3.8619,3.9154,3.9322,3.9426,3.9645,3.9697,3.9736,3.9981,4.0642,4.1505,4.2341,4.2539,4.2985,4.399,4.3596,4.3792,4.537,4.5039,4.4922,4.5474,4.5024,4.4719,4.4719,4.4719,4.4893,4.53,4.5822,4.6751,4.8145,4.8174,4.8609,4.9494,4.9611,4.9828,5.0104,4.9906,4.9654,0.0,0.0,0.0,0.0,0.0,0.0,0.0,0.0,0.0,0.0,0.0,3.242,3.2666,0.0,3.5146,3.5841,3.6802,3.7657,3.8105,3.8137,3.8387,3.91,3.9254,3.9328,3.9328,4.0213,4.0817,4.0957,4.1467,4.1922,4.2293,4.2293,4.2166,4.1795,4.1795,4.1795,4.1795,4.1556,4.1547,4.1903,4.1347,4.1095,4.1095,4.1476,4.1599,4.1611,4.2236,4.2397,4.2115,4.191,4.2066,4.235,4.1485,4.086,4.0331,3.9801,3.9272,3.8731,3.8178,3.7986,3.7986,3.7986,3.7986,3.7986,3.7986,3.7986,3.7986,3.7986,3.7986,3.7986,3.7986,3.7986,3.8027,3.8198,3.8409,3.8684,3.8998,3.927,3.953,3.9697,3.9697,3.9697,3.9697,4.0121,4.0655,4.1145,4.1667,4.239,4.3402,4.3719,4.4358,4.5747,4.559,4.5518,4.5851,4.5576,4.5518,4.5837,4.5851,4.6156,4.6809,4.7143,4.7753,4.8663,4.8677,4.903,4.9717,5.0066,5.0351,5.0734,5.1323,5.149,0.0,0.0,0.0,0.0,0.0,0.0,0.0,3.0425,3.0997,3.1844,3.2193,3.2645,3.3737,3.4567,3.5463,3.6631,3.7298,3.78,3.8193,3.8586,3.8916,3.9154,3.9041,3.9132,3.9579,3.9995,4.0528,4.1046,4.1122,4.1357,4.1911,4.1911,4.1667,4.1111,4.1122,4.1122,4.1122,4.1122,4.1357,4.1911,4.1438,4.1256,4.1245,4.1371,4.1445,4.1457,4.2057,4.2052,4.1616,4.1196,4.1552,4.2305,4.1468,4.0832,4.0305,3.9902,3.9429,3.8888,3.8334,3.807,3.7986,3.7986,3.7986,3.7986,3.7986,3.7986,3.7998,3.8118,3.807,3.7998,3.8118,3.8142,3.8142,3.8142,3.8599,3.9018,3.8908,3.9367,3.9771,3.9658,3.9645,3.9697,3.9697,3.9697,3.9697,3.9697,4.0415,4.1382,4.2647,4.3497,4.442,4.5489,4.579,4.588,4.588,4.5996,4.6287,4.6749,4.6894,4.7303,4.7941,4.7956,4.8333,4.9088,4.8972,4.9277,5.0061,5.0467,5.0851,5.1112,5.2144,5.2623,2.5223,2.5839,2.6358,2.6154,2.7627,2.9595,0.0,3.2192,3.2938,3.3431,3.424,3.4731,3.4491,3.5878,3.7112,3.7276,3.8073,3.8685,3.8688,3.8742,3.8969,3.9467,3.9502,3.9557,3.9601,3.9995,4.0344,4.0409,4.0409,4.0474,4.0528,4.0528,4.0464,4.0409,4.0409,4.0409,4.0409,4.0409,4.0474,4.0528,4.0473,4.0452,4.0452,4.1033,4.1354,4.1354,4.2016,4.2258,4.2167,4.1667,4.128,4.101,4.0972,4.0658,4.0256,4.0272,3.997,3.9441,3.8912,3.8395,3.7986,3.7986,3.7986,3.7986,3.7986,3.7986,3.8082,3.8587,3.8371,3.8094,3.8599,3.8731,3.8731,3.8731,3.9286,3.9752,3.9277,3.9607,3.9894,3.9461,3.953,3.9697,3.9697,3.9697,3.9697,3.9697,3.9788,4.0567,4.255,4.2889,4.3368,4.4359,4.5338,4.588,4.588,4.6403,4.6705,4.6778,4.7361,4.7956,4.8595,4.8624,4.9204,5.0438,4.9872,5.0177,5.141,5.0917,5.1301,5.2405,5.2551,5.2623,2.5717,2.6286,2.6627,2.6985,2.868,3.0333,3.0604,3.2149,3.3595,3.3797,3.4826,3.5681,3.5769,3.6894,3.78,3.78,3.8619,3.9253,3.9253,3.9253,3.9329,3.959,3.9611,3.9732,4.0016,4.0159,4.0279,4.0279,4.0279,4.0279,4.0279,4.0279,4.0279,4.0279,4.0279,4.0279,4.0279,4.0279,4.0279,4.0279,4.0279,4.0279,4.0344,4.0604,4.0734,4.0723,4.1035,4.1357,4.1697,4.1135,4.1058,4.1156,4.0595,4.0442,4.0587,4.0464,4.0258,3.9946,3.9104,3.8659,3.8467,3.8467,3.8467,3.8527,3.8839,3.8924,3.8984,3.9212,3.9104,3.8984,3.9212,3.9272,3.9272,3.9272,3.9649,3.9941,3.9722,4.0011,4.0174,3.9842,3.9847,3.9852,3.9747,3.9697,3.9697,3.9697,4.0224,4.0895,4.1766,4.239,4.3059,4.3801,4.4276,4.4967,4.595,4.6268,4.6833,4.7865,4.8188,4.8609,4.9248,4.9277,4.9712,5.0705,5.0394,5.0699,5.1614,5.173,5.21,5.2638,5.2949,5.3109,2.5803,2.6487,2.7066,2.7538,2.9334,3.0841,3.0112,3.1671,3.3317,3.3445,3.462,3.5745,3.6172,3.7388,3.8178,3.7908,3.8921,3.968,3.9422,3.9496,3.9666,3.9797,3.9699,3.9808,4.0225,4.0279,4.0279,4.0279,4.0279,4.0279,4.0279,4.0279,4.0279,4.0279,4.0279,4.0279,4.0279,4.0279,4.0279,4.0279,4.0279,4.0279,4.0279,4.0279,4.0279,4.0279,4.0279,4.0604,4.096,4.0604,4.0677,4.0904,4.0364,4.0315,4.0578,4.0397,4.0347,4.0282,3.9525,3.9152,3.9032,3.9032,3.9032,3.9104,3.9489,3.9609,3.9633,3.9777,3.9717,3.9633,3.9789,3.9826,3.9826,3.9826,4.0089,4.0304,4.0158,4.0343,4.0403,4.0133,4.0141,4.0074,3.9855,3.9932,3.9994,3.9936,4.0683,4.1296,4.1444,4.2249,4.3062,4.3778,4.357,4.4144,4.5951,4.6259,4.7056,4.86,4.8885,4.919,4.9703,4.9906,5.0264,5.0931,5.0931,5.1338,5.2136,5.2426,5.271,5.2847,5.3297,5.3515,2.4931,2.6295,2.7669,2.7299,2.9122,3.0863,3.05,3.1159,3.1973,3.2331,3.3602,3.477,3.5194,3.7157,3.8417,3.7424,3.8949,3.992,3.8859,3.925,3.9786,4.0203,3.9907,3.9808,4.0225,4.0279,4.0279,4.0279,4.0279,4.0279,4.0279,4.0279,4.0279,4.0279,4.0279,4.0279,4.0279,4.0279,4.0279,4.0279,4.0279,4.0279,4.0279,4.0279,4.0279,4.0279,4.0279,4.0344,4.0344,4.0323,4.0038,3.9728,4.0289,4.0229,3.9859,3.9999,4.02,4.0391,4.0355,4.0006,3.9585,3.9585,3.9585,3.9585,3.9597,3.9609,3.9717,4.0234,4.0006,3.9729,4.0234,4.0379,4.0379,4.0379,4.0763,4.0992,4.0487,4.058,4.0621,4.0086,4.0208,4.0308,4.014,4.0541,4.0769,4.0523,4.094,4.1504,4.202,4.2579,4.3281,4.4276,4.3487,4.3795,4.5944,4.6715,4.7538,4.8629,4.9306,4.9703,4.9717,5.0293,5.0946,5.1585,5.1585,5.2209,5.3457,5.2862,5.2891,5.3486,5.35,5.3515,2.5793,2.667,2.7512,2.7925,2.9297,3.0374,2.9648,3.0655,3.1762,3.1555,3.2414,3.3366,3.3767,3.5577,3.6716,3.5929,3.805,3.9314,3.7822,3.8315,3.8815,3.8742,3.8193,3.8027,3.8666,3.9682,4.0279,4.0279,4.0574,4.0618,4.0301,4.0585,4.0618,4.029,4.0279,4.0279,4.0279,4.0279,4.0279,4.0279,4.0279,4.0279,4.0279,4.0279,4.0279,4.0279,4.0279,4.0279,4.0279,4.0279,4.0181,4.006,3.9935,4.0021,4.0262,4.0006,3.9991,4.0083,3.9809,3.992,4.0126,4.0126,4.0126,4.0198,4.0547,4.0655,4.0691,4.0872,4.0787,4.0691,4.0872,4.092,4.092,4.092,4.1052,4.1136,4.0956,4.1022,4.0967,4.059,4.0592,4.0642,4.0658,4.0774,4.1068,4.1568,4.1455,4.1374,4.1544,4.1737,4.2138,4.2857,4.2654,4.317,4.5033,4.603,4.7244,4.8808,4.9845,5.0525,5.0946,5.1178,5.1599,5.2238,5.2252,5.2673,5.3515,5.3297,5.3297,5.3515,5.3515,5.3515,2.6114,2.6765,2.7334,2.8003,2.904,2.9745,2.9163,2.9903,3.0733,3.0422,3.1122,3.1909,3.2346,3.3994,3.5098,3.4638,3.6841,3.8235,3.6823,3.754,3.8094,3.8037,3.7459,3.7355,3.7971,3.8828,3.9446,3.9691,3.9939,4.0155,4.0498,4.0591,4.0623,4.0552,4.0541,4.0454,4.0279,4.0279,4.0279,4.0279,4.0279,4.0279,4.0279,4.0279,4.0279,4.0279,4.0279,4.0084,3.9746,3.9746,3.9473,3.9101,3.9271,3.9541,3.9873,3.977,3.9943,4.0129,3.9777,3.994,4.0326,4.0326,4.0497,4.0739,4.1088,4.1184,4.1184,4.1184,4.1184,4.1184,4.1184,4.1184,4.1184,4.1184,4.1184,4.1184,4.1184,4.1184,4.1133,4.1011,4.0926,4.0938,4.0887,4.0965,4.1327,4.2193,4.1883,4.1604,4.1701,4.1701,4.1893,4.2243,4.2336,4.3034,4.4822,4.5607,4.6969,4.9126,4.997,5.076,5.1548,5.1831,5.2151,5.2609,5.2789,5.3109,5.3515,5.3762,5.3878,5.3878,5.3878,5.3878,2.5938,2.6627,2.727,2.7721,2.8361,2.8957,2.8975,2.8966,2.8948,2.8948,2.9707,3.0518,3.0903,3.2553,3.3691,3.3428,3.5419,3.6773,3.6008,3.6789,3.7658,3.8187,3.7748,3.7589,3.8197,3.7797,3.7796,3.851,0.0,3.9024,4.0789,4.0323,4.0286,4.0922,4.0956,4.0782,4.0323,4.029,4.0279,4.0279,4.0203,4.0214,4.0214,4.0149,4.0138,4.0138,4.0138,3.9538,3.8605,3.8605,3.8006,3.7126,3.8206,3.8605,3.8684,3.9228,3.9825,4.0304,4.0007,3.9994,4.02,4.0211,4.0665,4.1184,4.1184,4.1184,4.1184,4.1184,4.1184,4.1184,4.1184,4.1184,4.1184,4.1184,4.1184,4.1196,4.122,4.1196,4.1196,4.122,4.1254,4.113,4.0881,4.1088,4.1632,4.2375,4.2305,4.2248,4.2519,4.2506,4.2519,4.2543,4.2543,4.3362,4.5256,4.5461,4.6674,4.9493,4.9799,5.0365,5.1548,5.2296,5.2667,5.2667,5.321,5.3515,5.3515,5.4154,5.4458,5.4458,5.4458,5.4458,2.6316,2.6793,2.727,2.7721,2.8159,2.8618,2.8911,2.8755,2.8544,2.8544,2.8778,2.8972,2.9074,3.1086,3.2556,3.2021,3.477,3.6434,3.5032,3.6251,3.7197,3.7064,3.6456,3.6361,3.6993,3.6456,3.6409,3.7093,3.7908,3.8545,3.8976,3.9941,4.0408,4.024,4.0718,4.0945,4.0825,4.0454,4.0279,4.0279,3.9483,3.9078,3.9078,3.8196,3.7863,3.7863,3.7863,3.7662,3.7461,3.7461,3.726,3.7048,3.7327,3.7461,3.7441,3.7596,3.8054,3.8573,3.8445,3.9124,4.0135,4.0574,4.0611,4.0525,4.1069,4.1184,4.1184,4.1184,4.1184,4.1184,4.1184,4.1184,4.1184,4.1184,4.1184,4.1293,4.1689,4.1461,4.1305,4.1701,4.161,4.1456,4.1424,4.1651,4.2086,4.2729,4.2758,4.2815,4.3077,4.2918,4.2963,4.337,4.3407,4.3701,4.4463,4.5271,4.6338,4.786,4.9568,5.0882,5.1654,5.268,5.3268,5.3268,5.3428,5.3515,5.3515,5.3689,5.3762,5.3762,5.3762,5.3762,2.6472,2.6875,2.727,2.7721,2.8077,2.8452,2.8673,2.8553,2.8297,2.7939,2.7994,2.8067,2.7893,2.9794,3.1333,3.1175,3.3605,3.5358,3.4729,3.5706,3.644,3.6393,3.609,3.5999,3.6412,3.5941,3.5814,3.6393,3.7033,3.7815,3.8538,3.9151,3.9748,4.0281,4.0646,4.0654,4.0313,3.9367,3.8869,3.8859,3.8262,3.7929,3.7929,3.726,3.6991,3.6991,0.0,3.6712,3.6296,3.6296,3.6035,3.5636,3.6103,3.6296,3.6364,3.6846,3.7222,3.7604,3.8065,3.8295,3.8597,3.9746,4.0174,4.0281,4.0653,4.0942,4.1184,4.1184,4.1184,4.1184,4.1184,4.1353,4.1473,4.1244,4.1353,4.1605,4.1964,4.1737,4.1617,4.1918,4.1707,4.1447,4.1447,4.178,4.2208,4.2616,4.2803,4.3047,4.3561,4.3284,4.3142,4.3448,4.3484,4.3701,4.4289,4.4911,4.5801,4.7153,4.8429,4.9758,5.1058,5.2028,5.2701,5.3131,5.3343,5.3515,5.3515,5.382,5.395,5.395,5.395,5.395,2.6554,2.6875,2.7196,2.7647,2.7967,2.8232,2.8232,2.8232,2.8022,2.726,2.7416,2.7581,2.7242,2.8828,3.0332,3.0726,3.2496,3.4101,3.4917,3.5366,3.576,3.6155,3.621,3.621,3.621,3.5898,3.5834,3.6182,3.621,3.692,3.8509,3.8195,3.8816,4.0564,4.0421,3.9971,3.9326,3.7779,3.6991,3.6991,3.6846,3.6779,3.6779,3.6644,3.6586,3.6586,3.6586,0.0,3.5217,3.5217,3.4618,3.3877,3.4815,3.5217,3.5285,3.6238,3.6654,3.6914,3.7929,3.7432,3.6572,3.8393,3.9371,3.9825,3.9943,4.0525,4.1069,4.1184,4.1184,4.1184,4.1184,4.1521,4.1761,4.1377,4.1581,4.193,4.2134,4.2182,4.2158,4.2145,4.1653,4.1293,4.1293,4.1665,4.2107,4.2389,4.2685,4.318,4.3953,4.3553,4.325,4.3335,4.3335,4.3649,4.4473,4.451,4.5211,4.6747,4.6997,4.7983,4.9888,5.0532,5.1333,5.2287,5.289,5.329,5.341,5.4042,5.4386,5.4386,5.4386,5.4386,2.6856,2.6885,2.6784,2.7178,2.7334,2.7389,2.7389,2.7389,2.7251,2.6784,2.7004,2.726,2.7187,2.8828,3.0332,3.0726,3.2496,3.4101,3.4917,3.5366,3.576,3.6155,3.621,3.621,3.621,3.6146,3.6127,3.6201,3.621,3.6321,3.6691,3.7492,3.8687,4.0055,3.8962,3.8442,3.8797,3.7626,3.6991,3.6991,3.6103,3.5685,3.5617,3.4756,3.4352,3.4352,3.4352,0.0,3.4084,3.4084,3.3946,3.3817,3.4015,3.4084,3.4075,3.4283,3.4883,3.5685,3.5889,3.6145,3.6557,3.7943,3.8189,3.8005,3.8738,3.9592,4.0467,4.1057,4.1184,4.1184,4.1184,4.1256,4.1401,4.1749,4.1569,4.1677,4.2964,4.3241,4.312,4.2759,4.2253,4.1834,4.1834,4.1964,4.2181,4.2674,4.3108,4.3589,4.4204,4.3783,4.3626,4.4084,4.4132,4.4291,4.4695,4.4768,4.4976,4.5598,4.6547,4.728,4.7691,4.8696,4.9748,5.0754,5.1333,5.2028,5.2841,5.342,5.3689,5.3689,5.3689,5.3689,2.6186,2.628,2.6281,2.7022,2.7178,2.7123,2.6921,2.7031,2.7004,2.6389,2.6747,2.7114,2.6912,2.8517,2.9865,2.9855,3.1368,3.2973,3.422,3.4559,3.5054,3.6081,3.621,3.621,3.621,3.621,3.621,3.621,3.621,3.6118,3.5916,3.6853,3.7676,3.8237,3.7381,3.7054,3.7323,3.6016,3.5295,3.5295,3.4815,3.4549,3.4549,3.4006,3.3817,3.3817,3.3817,0.0,3.3817,3.3817,3.3817,3.3817,3.3817,3.3817,3.3817,3.3817,3.4154,3.4677,3.5217,3.5219,3.5182,3.6128,3.6534,3.6789,3.7735,3.8709,3.9603,4.0455,4.0942,4.1244,4.1521,4.1593,4.1653,4.1964,4.2049,4.2279,4.3301,4.3505,4.3433,4.3192,4.2507,4.1978,4.1978,4.2253,4.253,4.2783,4.3445,4.3985,4.4249,4.4057,4.3985,4.4261,4.4285,4.4347,4.4532,4.4532,4.4594,4.4779,4.533,4.5851,4.638,4.728,4.8203,4.9164,5.0225,5.1182,5.1934,5.2677,5.3184,5.3515,5.3515,5.3515,2.5445,2.5575,2.5721,2.6567,2.6826,2.6774,2.6327,2.6655,2.682,2.6058,2.6535,2.6985,2.6756,2.8141,2.9269,2.9131,3.0387,3.1918,3.3468,3.3835,3.4477,3.5907,3.6155,3.621,3.621,3.621,3.621,3.621,3.6054,3.5852,3.5632,3.6155,3.6441,3.6547,3.5934,3.5714,3.5922,3.451,3.3817,3.3817,3.3817,3.3817,3.3817,3.3817,3.3817,3.3817,3.3817,0.0,0.0,3.3817,3.3817,3.3817,3.3817,3.3817,3.3817,3.3817,3.3817,3.3946,3.4746,3.448,3.39,3.4437,3.5054,3.5769,3.652,3.7623,3.8832,3.9766,4.0608,4.1305,4.1834,4.1882,4.181,4.181,4.2375,4.3,4.3289,4.3529,4.3661,4.3529,4.2772,4.2098,4.2049,4.2411,4.2819,4.2819,4.3673,4.4285,4.4285,4.4285,4.4285,4.4285,4.4285,4.4285,4.4285,4.4285,4.4285,4.4285,4.4285,4.4644,4.5477,4.5899,4.6594,4.7567,4.9041,5.0177,5.1017,5.1971,5.2861,5.3496,5.3511,5.3492,2.5093,2.51,2.4984,2.5371,2.5655,2.5744,2.5235,2.5901,2.6408,2.5644,2.6078,2.6747,2.7068,2.7884,2.8728,2.9406,3.0561,3.1818,3.3101,3.389,3.4678,3.5568,3.599,3.621,3.621,3.621,3.621,3.621,3.554,3.5274,3.5605,3.531,3.5414,3.6073,3.4761,3.4467,3.547,3.437,3.3817,3.3817,3.3817,3.3817,3.3817,3.3817,3.3817,3.3817,3.3817,0.0,0.0,3.3817,3.3817,3.3817,3.3817,3.3817,3.3817,3.3817,3.3817,3.3807,3.3877,3.3877,3.3807,3.384,3.4329,3.4803,3.468,3.6405,3.8614,3.9341,4.0364,4.1305,4.1834,4.1617,4.1256,4.1256,4.2375,4.3325,4.2976,4.3589,4.4057,4.3613,4.306,4.259,4.205,4.2411,4.2819,4.2819,4.3673,4.4285,4.4285,4.4285,4.4285,4.4285,4.4285,4.4285,4.4285,4.4285,4.4285,4.4285,4.4285,4.4347,4.4397,4.4458,4.4988,4.5997,4.7088,4.8588,5.0482,5.156,5.2595,5.3585,5.3532,5.352,2.3206,2.3537,2.3569,2.4211,2.4772,2.496,2.4236,2.5114,2.591,2.5484,2.6023,2.671,2.7105,2.7636,2.8205,2.8773,2.947,3.0369,3.1588,3.245,3.3441,3.4733,3.5247,3.5687,3.6155,3.599,3.5852,3.5852,3.5339,3.499,3.4889,3.4513,3.443,3.4673,3.4098,3.4015,3.4411,3.4015,3.3817,3.3817,3.3817,3.3817,3.3817,3.3817,3.3817,3.3817,3.3817,0.0,0.0,3.3817,3.3817,3.3817,3.3817,3.3817,3.3817,3.3817,3.3817,3.3817,3.3817,3.3817,3.3817,3.3817,3.3974,3.4202,3.446,3.5426,3.6581,3.7736,3.9215,4.0662,4.1075,4.1437,4.1653,4.1653,4.2134,4.2699,4.312,4.3313,4.3421,4.3493,4.2844,4.2277,4.2014,4.2411,4.2819,4.2819,4.3673,4.4285,4.4285,4.4285,4.4285,4.4285,4.4285,4.4285,4.4285,4.4285,4.4285,4.4285,4.4285,4.4285,4.4285,4.4285,4.447,4.4878,4.6216,4.7491,4.862,5.0575,5.1717,5.2108,5.2729,5.282,2.1638,2.1987,2.2119,2.286,2.3437,2.3641,2.295,2.4069,2.5193,2.4969,2.5828,2.6747,2.726,2.7638,2.7985,2.8636,2.8975,2.9617,3.0965,3.1744,3.2735,3.4229,3.4556,3.4948,3.5806,3.5605,3.544,3.544,3.5073,3.4715,3.4422,3.4027,3.3817,3.3817,3.3817,3.3817,3.3817,3.3817,3.3817,3.3817,3.3817,3.3817,3.3817,3.3817,3.3817,3.3817,3.3817,0.0,0.0,3.3817,3.3817,3.3817,3.3817,3.3817,3.3817,3.3817,3.3817,3.3817,3.3817,3.3817,3.3817,3.3817,3.3817,3.3891,3.428,3.4795,3.546,3.6575,3.8249,3.9792,4.0159,4.0758,4.1293,4.1679,4.1858,4.217,4.2892,4.2904,4.2879,4.3024,4.2471,4.193,4.1761,4.2362,4.2819,4.2819,4.3673,4.4285,4.4285,4.4285,4.4285,4.4285,4.4285,4.4285,4.4285,4.4285,4.4285,4.4285,4.4285,4.4285,4.4285,4.4285,4.4285,4.4285,4.5684,4.6737,4.7426,4.9524,5.071,5.1011,5.2026,5.2351,2.0653,2.0704,2.0722,2.1103,2.1396,2.146,2.1168,2.2774,2.4174,2.3813,2.5223,2.683,2.7675,2.7822,2.8217,2.936,2.9562,3.013,3.1763,3.234,3.3037,3.4257,3.4108,3.4216,3.4964,3.5045,3.5036,3.5036,3.4651,0.0,3.4403,3.4027,3.3817,3.3817,3.3817,3.3817,3.3817,3.3817,3.3817,3.3817,3.3817,3.3817,3.3817,3.3817,3.3817,0.0,0.0,0.0,0.0,3.3817,3.3817,3.3817,3.3817,3.3817,3.3817,3.3817,3.3817,3.3817,3.3817,3.3817,3.3817,3.3817,3.3817,3.3817,3.3807,3.4717,3.5815,3.6258,3.7537,3.8784,3.9219,3.9286,3.9533,4.0884,4.1593,4.1978,4.199,4.2458,4.2663,4.2145,4.1978,4.181,4.128,4.2062,4.2819,4.2819,4.3673,4.4285,4.4285,4.4285,4.4285,4.4285,4.4285,4.4285,4.4285,4.4285,4.4285,4.4285,4.4285,4.4285,4.4285,4.4285,4.4285,4.4285,4.5381,4.6409,4.7395,4.8476,4.9592,5.0613,5.1618,5.2328,1.8701,1.8921,1.8995,1.9303,1.9865,2.0324,1.9878,2.1485,2.2967,2.2553,2.4331,2.5974,2.5869,2.6146,2.6993,2.8994,2.8886,2.9116,3.0627,3.1447,3.1897,3.1974,3.2644,3.3096,3.3123,3.3088,3.3312,3.3822,3.3436,3.3493,3.393,3.3881,3.3817,3.3817,3.3817,3.3817,3.3817,3.3817,3.3817,3.3817,3.3817,3.3817,3.3817,3.3817,3.3817,0.0,0.0,0.0,0.0,3.3817,3.3651,3.3441,3.3707,3.3651,3.3441,3.3716,3.3817,3.3817,3.3817,3.3817,3.3817,3.3817,3.3817,3.3817,3.3817,3.4052,3.4675,3.605,3.6496,3.6831,3.7926,3.8548,3.8969,3.9393,4.0503,4.1533,4.1894,4.1822,4.1737,4.193,4.1677,4.1377,4.122,4.1761,4.2398,4.2759,4.3337,4.3914,4.4237,4.4285,4.4285,4.4285,4.4285,4.4285,4.4285,4.4285,4.4285,4.4285,4.4285,4.4285,4.4285,4.4633,4.4825,4.4825,4.5922,4.6581,4.6892,4.83,4.9469,5.0394,4.9937,5.032,1.7327,1.7645,1.7773,1.7951,1.8472,1.8911,1.8507,2.0011,2.1435,2.1163,2.2799,2.4311,2.4222,2.4574,2.5408,2.7189,2.7469,2.8,2.9402,3.0316,3.0795,3.0704,3.1691,3.2104,3.1561,3.183,3.2195,3.2631,3.2394,3.2474,3.2972,3.2972,3.3112,3.3381,3.3669,3.3817,3.3817,3.3817,3.3817,3.3817,3.3817,3.3669,3.3381,3.3669,3.3669,0.0,0.0,0.0,0.0,3.3651,3.345,3.3248,3.3496,3.3441,3.3276,3.367,3.3817,3.3817,3.3817,3.3817,3.3817,3.3817,3.3817,3.3817,3.3817,3.3886,3.4214,3.5129,3.5179,3.5161,3.6349,3.6862,3.7259,3.8049,3.8868,3.986,4.0987,4.081,4.0666,4.1547,4.1413,4.1244,4.1449,4.1749,4.2218,4.294,4.3313,4.3709,4.4213,4.4285,4.4285,4.4285,4.4285,4.4285,4.4285,4.4285,4.4285,4.4285,4.4285,4.4285,4.4285,4.4789,4.5077,4.5077,4.6175,4.6619,4.6415,4.7377,4.8308,4.9164,4.8653,4.9089,0.0,1.6845,1.7032,1.7032,1.7243,1.7382,1.7123,1.8493,0.0,1.9673,2.0909,2.2124,2.2712,2.3044,2.3542,2.4474,2.5563,2.6833,2.8164,2.9177,2.9876,3.0135,3.0914,3.1127,3.0258,3.0914,3.1497,3.1489,3.1489,3.1568,3.1568,3.1568,3.1912,3.2596,3.3312,3.3669,3.3817,3.3817,3.3738,3.3738,3.3738,3.3312,3.2666,3.3312,3.3242,0.0,0.0,0.0,0.0,3.3203,3.3097,3.307,3.3097,3.3166,3.3184,3.3578,3.3725,3.3725,3.3725,3.3725,3.3734,3.3762,3.3752,3.3734,3.3762,3.4048,3.4264,3.384,3.3659,3.3794,3.458,3.4541,3.4838,3.6724,3.6993,3.7346,3.9273,3.9382,3.9463,4.0815,4.1057,4.1271,4.1834,4.1942,4.2315,4.3301,4.3493,4.3709,4.4213,4.4285,4.4285,4.4285,4.4285,4.4285,4.4285,4.4285,4.4285,4.4285,4.4285,4.4285,4.4285,4.4789,4.5077,4.5077,4.6138,4.6415,4.5922,4.5886,4.636,4.7321,4.7696,4.8407,1.6362,0.0,1.6471,1.6471,1.6827,1.7117,0.0,1.8166,1.9253,1.8583,1.9947,2.1285,2.1227,2.1555,2.2398,2.439,2.4815,2.5633,2.7699,2.8838,2.9146,2.83,2.913,2.9425,2.8259,2.921,3.0069,3.0622,3.0693,3.0985,3.1559,3.1568,3.1709,3.1841,3.2052,3.2693,3.3817,3.3817,3.353,3.2954,3.2954,3.2605,3.1841,3.2052,3.2052,0.0,0.0,0.0,3.1635,3.1883,3.1823,3.1581,3.2424,3.256,3.234,3.2735,3.2881,3.2881,3.2881,3.2881,3.2936,3.3257,3.3147,3.2945,3.3266,3.3436,3.3436,3.3367,3.2906,3.2468,3.2646,3.3331,3.407,3.4536,3.5777,3.6957,3.7429,3.7616,3.8149,3.9404,3.965,4.006,4.1167,4.1701,4.2194,4.2844,4.3265,4.3709,4.4213,4.4285,4.4285,4.4285,4.4285,4.4285,4.4285,4.4285,4.4285,4.4285,4.4285,4.4285,4.4285,4.4789,4.5077,4.5077,4.5778,4.6054,4.5922,4.5525,4.5801,4.6762,4.6459,4.686,1.6504,1.6742,1.6833,1.6833,1.7243,1.7605,1.7467,1.8173,1.8649,1.8083,1.8822,1.968,1.9775,2.0066,2.074,2.2269,2.3139,2.437,2.6439,2.7278,2.7455,2.6801,2.7753,2.8194,0.0,2.8563,2.9433,2.9847,2.9926,3.0069,3.0496,3.041,3.046,3.082,3.0651,3.1278,3.2754,3.2645,3.2428,3.2184,3.2001,3.1581,3.1047,3.123,3.1162,0.0,0.0,0.0,3.0755,3.0792,3.0714,3.0556,3.1501,3.1721,3.1652,3.2317,3.2597,3.2597,3.2597,3.2597,3.2634,3.2863,3.278,3.2634,3.2872,3.2808,3.2707,3.2881,3.2487,3.2047,3.223,3.2524,3.289,3.3623,3.4181,3.4838,3.5988,3.6193,3.6571,3.7828,3.8197,3.8633,3.9608,4.0293,4.107,4.2072,4.2758,4.3457,4.4189,4.4285,4.4285,4.4285,4.4285,4.4285,4.4285,4.4285,4.4285,4.4285,4.4285,4.4285,4.4285,4.4789,4.5249,4.5489,4.5537,4.5561,4.5561,4.4969,4.5017,4.5551,4.5734,4.607,1.6483,1.7132,1.7446,1.7462,1.7919,1.833,1.8251,1.8294,1.8275,1.7998,1.7968,1.8161,1.8704,1.9054,1.9422,1.9923,2.159,2.3355,2.4878,2.5531,2.5744,2.5482,2.6503,0.0,2.7104,2.8192,2.8988,2.9131,0.0,2.9131,2.9131,2.8845,2.8967,2.9597,2.9363,2.9841,3.1098,3.0985,3.1088,3.1333,3.0941,3.0531,3.0168,3.0436,3.0207,2.9642,0.0,0.0,3.0029,2.9798,2.9645,2.9712,3.0451,3.0791,3.1025,3.1887,3.2338,3.2414,3.2414,3.2414,3.2423,3.2487,3.2459,3.2423,3.2487,3.223,3.1983,3.2313,3.2166,3.1992,3.2322,3.19,3.1708,3.31,3.2618,3.2473,3.4556,3.4779,3.4933,3.6255,3.6753,3.7186,3.7833,3.8533,3.9611,4.1218,4.2153,4.3035,4.4153,4.4285,4.4285,4.4285,4.4285,4.4285,4.4285,4.4285,4.4285,4.4285,4.4285,4.4285,4.4285,4.4717,4.5161,4.5669,4.5185,4.4957,4.4957,4.4501,4.4285,4.4347,4.5172,4.5598,1.5461,1.6569,1.728,1.747,1.8058,1.8505,1.804,1.8294,1.8547,1.8281,1.8402,1.8722,1.9247,1.9754,2.0195,2.0496,2.2001,2.3366,2.4089,2.5151,2.5375,2.411,0.0,2.5633,2.53,2.6346,2.7415,0.0,0.0,2.8392,2.8392,2.8336,2.8305,2.8443,2.8395,2.8481,2.8731,2.9976,3.042,3.0181,2.9807,2.9408,2.9041,2.875,2.8582,2.8427,0.0,2.8144,2.812,2.8427,2.8544,2.861,2.9327,2.9918,3.0449,3.0577,3.1051,3.1561,3.1561,3.1561,3.1625,3.1983,3.1854,3.1634,3.1992,3.1799,3.1488,3.1552,3.1524,3.1488,3.1552,3.1469,3.1488,3.1681,3.1856,3.2011,3.239,3.2625,3.3282,3.4871,3.5242,3.5746,3.7154,3.7863,3.8853,4.067,4.1392,4.2412,4.4077,4.4285,4.4285,4.4285,4.4285,4.4285,4.4285,4.4285,4.4285,4.4285,4.4285,4.4285,4.4285,4.4369,4.4441,4.4525,4.4453,4.4405,4.4405,4.4321,4.4285,4.4285,4.4458,4.452,1.3852,1.5059,1.6053,1.6881,1.833,1.9483,1.9229,1.9259,1.9253,1.8982,1.9024,1.9229,1.9621,2.0014,2.0503,2.1203,2.2021,2.261,2.3004,2.3446,2.3452,2.2746,0.0,2.4154,2.4019,2.5066,0.0,0.0,0.0,0.0,2.8156,2.7492,2.7322,2.7887,2.7772,2.7669,2.7669,2.8337,2.8826,2.8959,2.8603,2.849,2.8464,2.8114,2.7955,2.7939,0.0,2.7447,2.7431,2.7606,2.7733,2.7799,2.8461,2.8922,2.9242,2.9635,2.9952,3.0278,3.0278,3.0473,3.0833,3.1022,3.1219,3.1414,3.1607,3.1533,3.1377,3.1377,3.1377,3.1433,3.1662,3.1552,3.1488,3.1928,3.1838,3.1709,3.194,3.2078,3.2358,3.3155,3.3587,3.4017,3.4808,3.5903,3.7002,3.8146,3.9312,4.0678,4.2611,4.3064,4.3514,4.4223,4.4285,4.4285,4.4285,4.4285,4.4285,4.4285,4.4285,4.4285,4.4285,4.4285,4.4285,4.4285,4.4285,4.4285,4.4285,4.4285,4.4285,4.4285,4.4285,4.4285,1.2334,1.3374,1.4482,1.6038,1.7997,1.9628,2.0163,2.0026,1.9778,1.9754,1.9748,1.9814,2.0032,2.034,2.0828,2.1643,2.183,2.1939,2.2212,2.1945,2.1752,2.1685,2.2278,2.2756,0.0,0.0,0.0,0.0,0.0,0.0,2.7077,2.6345,2.6239,2.7066,2.7083,2.7081,2.7081,2.7161,2.751,2.8106,2.7764,2.778,2.8098,2.7757,2.7606,2.759,2.732,2.72,2.72,2.72,2.7067,2.6859,2.7459,2.7791,2.8056,2.8979,2.9307,2.9307,2.9307,2.9635,3.0091,3.0091,3.0546,3.112,3.112,3.1249,3.1377,3.1377,3.1377,3.1451,3.1772,3.1616,3.1533,3.2157,3.1836,3.1469,3.179,3.181,3.1791,3.1855,3.2294,3.2676,3.2794,3.3902,3.5096,3.5976,3.7264,3.8824,4.0825,4.1708,4.2597,4.3689,4.4087,4.4285,4.4285,4.4285,4.4285,4.4285,4.4285,4.4285,4.4285,4.4285,4.4285,4.4285,4.4285,4.4285,4.4285,4.4285,4.4285,4.4285,4.4285,4.4285,1.1205,1.2105,1.291,1.4862,1.6289,1.7762,1.9828,1.9869,1.9772,2.043,2.0581,2.0587,2.0611,2.104,2.142,2.1498,2.171,2.1879,2.1897,2.1673,2.1414,2.1219,2.1242,2.1548,0.0,0.0,0.0,0.0,0.0,0.0,2.4219,2.4774,2.5121,2.5195,2.6183,2.6716,2.6716,2.7042,2.7391,2.7764,2.7407,2.7431,2.7757,2.7399,2.724,2.724,2.7216,2.72,2.72,2.72,2.6584,2.5697,2.5764,2.6159,2.6945,2.8633,2.9307,2.9307,2.9307,2.9307,2.9373,2.9373,2.9831,3.0352,3.0352,3.087,3.1377,3.1377,3.1377,3.1387,3.1414,3.1396,3.1396,3.1451,3.1423,3.1387,3.1414,3.146,3.1515,3.1855,3.1919,3.2047,3.2358,3.2794,3.3681,3.5483,3.607,3.716,3.9371,4.0801,4.1856,4.2362,4.3576,4.4285,4.4285,4.4285,4.4285,4.4285,4.4285,4.4285,4.4285,4.4285,4.4285,4.4285,4.4285,4.4285,4.4285,4.4285,4.4285,4.4285,4.4285,4.4285,0.9354,0.9959,1.0903,1.2808,1.37,1.4953,1.8341,1.9061,1.9341,2.0892,2.1034,2.0929,2.0696,2.0834,2.1028,2.1191,2.145,2.1625,2.1625,2.139,2.1178,2.1141,2.0913,0.0,0.0,0.0,0.0,0.0,0.0,0.0,2.3371,2.3047,2.3109,2.3832,2.4827,2.5421,2.5421,2.621,2.6724,2.7073,2.7161,2.7272,2.7399,2.7264,2.72,2.7134,2.6517,2.6174,2.6182,2.5435,2.4895,2.4624,2.5292,2.5756,2.6159,2.7517,2.799,2.799,2.799,2.8263,2.8659,2.8659,2.9111,2.9765,3.0157,3.0482,3.0797,3.1249,3.1377,3.1377,3.1377,3.1377,3.1377,3.1377,3.1377,3.1377,3.1377,3.1377,3.1442,3.158,3.1782,3.1919,3.2047,3.2358,3.2906,3.3813,3.4324,3.5295,3.7203,3.8112,3.9004,4.0085,4.1379,4.226,4.2587,4.3376,4.3913,4.4261,4.4285,4.4285,4.4285,4.4285,4.4285,4.4285,4.4285,4.4285,4.4285,4.4285,4.4285,4.4285,4.4285,4.4285,0.8253,0.8715,0.9523,1.088,1.1381,1.2363,1.5789,1.7604,1.8986,2.0584,2.0798,2.0738,2.0611,2.0473,2.0511,2.0907,2.1166,2.1347,2.1347,2.1112,2.0907,2.0892,0.0,0.0,0.0,0.0,0.0,0.0,0.0,0.0,0.0,2.1615,2.17,2.2411,2.3443,2.396,2.396,2.4781,2.5352,2.5582,2.5853,2.6275,2.6725,2.6725,2.6525,2.6115,2.5367,2.509,2.5015,2.421,2.3672,2.3468,2.4278,2.4752,2.5225,2.6316,2.6863,2.7034,2.7034,2.7292,2.7654,2.7654,2.8103,2.8689,2.9207,2.9594,3.0052,3.0555,3.0874,3.1038,3.1157,3.1286,3.1377,3.1377,3.1377,3.1377,3.1377,3.1377,3.1377,3.1377,3.158,3.1717,3.1717,3.2038,3.2294,3.2549,3.3043,3.3842,3.5227,3.6128,3.7182,3.8717,3.9663,4.0489,4.1276,4.2274,4.3233,4.3997,4.4189,4.4285,4.4285,4.4285,4.4285,4.4285,4.4285,4.4285,4.4285,4.4285,4.4285,4.4285,4.4285,4.4285,0.8135,0.8604,0.9057,0.9321,0.9491,1.0165,1.2241,1.5635,1.8605,1.9373,1.9809,2.004,2.0233,1.9859,1.982,2.0596,2.0883,2.1052,2.1052,0.0,0.0,0.0,0.0,0.0,0.0,0.0,0.0,0.0,0.0,0.0,0.0,2.06,2.0961,2.0961,2.2032,2.2602,2.2602,2.2911,2.3065,2.3072,2.3374,2.4219,2.5555,2.5562,2.4955,2.3877,2.3877,2.3863,2.3917,2.387,2.3263,2.231,2.231,2.2921,2.4013,2.5158,2.6027,2.6668,2.6668,2.6438,2.6144,2.6208,2.6647,2.7148,2.7212,2.8106,2.9199,2.9199,2.9698,3.0286,3.0681,3.1075,3.1377,3.1377,3.1377,3.1377,3.1377,3.1377,3.1377,3.1377,3.1377,3.1377,3.1377,3.1653,3.1919,3.1919,3.2485,3.3075,3.3563,3.511,3.6834,3.8663,3.8843,3.9403,4.0659,4.1241,4.211,4.3383,4.3973,4.4285,4.4285,4.4285,4.4285,4.4285,4.4285,4.4285,4.4285,4.4285,4.4285,4.4285,4.4285,4.4285,0.7572,0.7982,0.8469,0.8887,0.9232,0.9788,1.0697,1.2824,1.4936,1.6325,1.7847,1.8563,1.7691,1.8041,1.8584,1.8791,1.9266,1.9727,1.9976,0.0,0.0,0.0,0.0,0.0,0.0,0.0,0.0,0.0,0.0,0.0,0.0,1.9558,1.9643,1.9643,2.0643,2.1209,2.1209,2.2003,2.2539,2.2742,2.2834,2.3288,2.4145,2.4313,2.4217,2.3877,2.3126,2.2784,2.2709,2.1966,2.149,2.1283,2.2035,2.2391,2.2613,2.3736,2.4136,2.4196,2.4196,2.413,2.4122,2.4834,2.5213,2.5599,2.683,2.7474,2.798,2.894,2.9324,2.96,3.0217,3.0671,3.1038,3.1313,3.1377,3.1377,3.1377,3.1377,3.1377,3.1377,3.1377,3.1377,3.1377,3.1515,3.1644,3.1855,3.2294,3.2778,3.3403,3.392,3.4455,3.4954,3.5894,3.6756,3.7522,3.8777,4.027,4.2025,4.2622,4.3326,4.4285,4.4285,4.4285,4.4285,4.4285,4.4285,4.4285,4.4285,4.4285,4.4285,4.4285,4.4285,0.7614,0.7973,0.8382,0.88,0.9152,0.9406,0.974,1.1787,1.3977,1.5082,1.6367,1.7076,1.6373,1.6533,1.6989,1.7775,1.8268,1.8664,1.8809,0.0,0.0,0.0,0.0,0.0,0.0,0.0,0.0,0.0,0.0,0.0,0.0,1.9078,1.9078,1.9078,1.9699,2.0017,2.0017,2.0589,2.0992,2.1221,2.1334,2.1573,2.1925,2.2626,2.2768,2.242,2.1915,2.1697,2.1628,2.0943,2.0605,2.0583,2.1258,2.1626,2.1838,2.2491,2.2821,2.2883,2.2883,2.2813,2.2779,2.342,2.3612,2.3797,2.4886,2.5644,2.6335,2.7147,2.7847,2.8456,2.9039,2.9564,3.013,3.0947,3.1267,3.1377,3.1377,3.1377,3.1377,3.1377,3.1377,3.1377,3.1377,3.1377,3.1442,3.1653,3.2102,3.2603,3.3111,3.3301,3.3418,3.3418,3.409,3.4931,3.5822,3.699,3.844,4.0107,4.0677,4.1376,4.2349,4.3595,4.4285,4.4285,4.4285,4.4285,4.4285,4.4285,4.4285,4.4285,4.4285,4.4285,0.8111,0.8375,0.8644,0.9011,0.9125,0.9174,0.9266,1.1966,1.4478,1.4654,1.4977,1.5358,1.5628,1.5164,1.5309,1.7141,1.7572,1.7701,1.7723,0.0,0.0,0.0,0.0,0.0,0.0,0.0,0.0,0.0,0.0,0.0,0.0,1.9078,1.9078,1.9078,1.9078,1.9078,1.9078,1.9078,1.9078,0.0,1.9384,1.9428,1.9506,2.0774,2.0927,2.0255,2.049,2.0599,2.0599,2.0599,2.0454,2.0243,2.0243,2.0734,2.1332,2.1332,2.173,2.2311,2.2311,2.2074,2.1853,2.1922,2.1985,2.1978,2.2048,2.3223,2.451,2.4571,2.5753,2.7011,2.7467,2.8009,2.8888,3.0247,3.1011,3.1332,3.1368,3.1377,3.1377,3.1377,3.1377,3.1377,3.1377,3.1377,3.1377,3.1442,3.1965,3.2485,3.2858,3.3175,3.3355,3.3418,3.3418,3.3912,3.5129,3.5728,3.654,3.7834,3.8404,3.8936,3.9447,4.2377,4.4101,4.4099,4.4223,4.4285,4.4285,4.4285,4.4285,4.4285,4.4285,4.4285,0.7905,0.8125,0.8397,0.8758,0.906,0.925,0.9185,1.046,1.1386,1.0583,1.1889,1.2932,1.2065,1.3106,1.433,1.4714,1.5817,1.6712,1.6891,0.0,0.0,0.0,0.0,0.0,0.0,0.0,0.0,0.0,0.0,0.0,1.9078,1.9078,1.9078,1.9078,1.9078,1.9078,1.9078,1.9078,1.9078,0.0,1.9132,1.9163,1.9239,1.9921,2.0178,1.9977,2.0032,2.0056,2.0056,2.0056,2.002,1.9971,1.9971,1.9929,1.9936,1.9936,1.99,1.9856,1.9856,1.9819,1.9896,2.0646,2.0893,2.1089,2.1853,2.2918,2.3907,2.4448,2.5448,2.6396,2.6968,2.7451,2.8017,2.8862,3.0003,3.1002,3.1304,3.1377,3.1377,3.1377,3.1377,3.1377,3.1377,3.1377,3.1506,3.1717,3.1919,3.223,3.2794,3.2985,3.3111,3.3355,3.3418,3.3544,3.3786,3.4255,3.512,3.654,3.7034,3.7774,3.9007,4.1063,4.2358,4.2736,4.3776,4.4285,4.4285,4.4285,4.4285,4.4285,4.4285,4.4285,0.788,0.8136,0.8437,0.8908,0.9125,0.9207,0.915,0.9507,0.9721,0.9109,1.0338,1.1393,1.0626,1.1408,1.2356,1.2827,1.4024,0.0,0.0,0.0,0.0,0.0,0.0,0.0,0.0,0.0,0.0,0.0,0.0,1.9018,1.8897,1.8891,1.8831,1.8704,1.8704,1.8704,1.8704,1.8704,1.8704,1.8704,1.8704,1.8764,1.8909,1.944,1.9688,1.9694,1.9827,1.9887,1.9887,1.9887,1.9802,1.9688,1.9688,1.9519,1.9283,1.9283,1.9193,1.9078,1.9078,1.9078,1.9206,1.9705,1.989,1.9954,2.0526,2.1348,2.2341,2.3153,2.4154,2.5087,2.59,2.6461,2.7013,2.7569,2.887,3.0185,3.0709,3.0965,3.1093,3.1093,3.1249,3.1377,3.1377,3.1377,3.1451,3.1644,3.1782,3.2047,3.2358,3.2667,3.2985,3.3165,3.3292,3.3418,3.3418,3.3633,3.4068,3.4798,3.5073,3.5613,3.6581,3.8192,3.9918,4.1954,4.286,4.3639,4.4285,4.4285,4.4285,4.4285,4.4285,4.4285,0.7875,0.8201,0.8546,0.9079,0.9158,0.9027,0.9076,0.8992,0.8886,0.8764,0.9567,1.0148,0.9937,1.0107,1.0498,0.0,0.0,0.0,0.0,0.0,0.0,0.0,0.0,0.0,0.0,0.0,0.0,0.0,0.0,1.8764,1.8632,1.8613,1.8517,1.83,1.8294,1.8294,1.8294,1.8294,1.8294,1.8294,1.8294,1.8432,1.8698,1.9084,1.9314,1.941,1.9645,1.9748,1.9748,1.9748,1.9609,1.9398,1.9398,1.9265,1.9078,1.9078,1.9078,1.9078,1.9078,1.9078,1.9078,1.9078,1.9078,1.9078,1.9078,1.9826,2.0766,2.1601,2.2543,2.3549,2.461,2.5218,2.5843,2.6463,2.7642,2.8906,2.9857,3.0398,3.069,3.069,3.0947,3.1194,3.1267,3.1277,3.1295,3.1368,3.1653,3.1855,3.1919,3.2422,3.2858,3.2921,3.3175,3.3418,3.3418,3.3418,3.3418,3.3418,3.3418,3.3584,3.3945,3.5144,3.7338,4.0632,4.1634,4.2907,4.4285,4.4285,4.4285,4.4285,4.4285,4.4285,0.7674,0.8076,0.8486,0.8769,0.8908,0.8879,0.8842,0.8807,0.8761,0.8636,0.8831,0.9002,0.8809,0.9579,0.0,0.0,0.0,0.0,0.0,0.0,0.0,0.0,0.0,0.0,0.0,0.0,0.0,0.0,1.7651,0.0,1.836,1.8348,1.833,1.8294,1.8294,1.8294,1.8294,1.8294,1.8294,1.8294,1.8294,1.8432,1.868,1.8523,1.8698,1.9132,1.9169,1.9181,1.9181,1.9181,1.9163,1.9126,1.9126,1.9102,1.9078,1.9078,1.9078,1.9078,1.9078,1.9078,1.9078,1.9078,1.9078,1.9078,1.9078,1.9826,2.0639,2.0773,2.1531,2.255,2.3542,2.386,2.4301,2.5827,2.6366,2.7013,2.8924,2.9805,3.0277,3.0277,3.0323,3.047,3.0809,3.0873,3.0983,3.1322,3.1442,3.158,3.1855,3.223,3.2603,3.2858,3.3175,3.3418,3.3418,3.3418,3.3418,3.3418,3.3418,3.3447,3.3506,3.4059,3.5181,3.6918,4.0032,4.2584,4.4285,4.4285,4.4285,4.4285,4.4285,4.4285,0.7693,0.8002,0.8304,0.8677,0.8758,0.8753,0.8766,0.8717,0.8633,0.8516,0.8535,0.8576,0.0,0.0,0.0,0.0,0.0,0.0,0.0,0.0,0.0,0.0,0.0,0.0,0.0,0.0,0.0,0.0,0.0,1.7466,1.7523,1.7876,1.7992,1.7841,1.7841,1.7841,1.7841,1.7841,1.7841,1.7841,1.7986,1.8118,1.8227,1.8275,1.8499,1.8849,1.8704,1.8722,1.8855,1.8855,1.8939,1.9078,1.9078,1.9078,1.9078,1.9078,1.9078,1.9078,1.9078,1.9078,1.9078,1.9078,1.9078,1.9078,1.9078,1.9392,1.989,2.0449,2.0893,2.1468,2.248,2.2738,2.3106,2.4409,2.5018,2.5651,2.7159,2.8456,2.948,3.0096,3.0204,3.0259,3.0433,3.0644,3.0846,3.102,3.124,3.1442,3.158,3.191,3.223,3.2603,3.2921,3.3175,3.3355,3.3418,3.3418,3.3418,3.3418,3.3418,3.3418,3.3603,3.4499,3.6175,3.8209,4.0449,4.2794,4.3036,4.3576,4.4285,4.4285,4.4285,0.7568,0.7823,0.8019,0.8437,0.8497,0.8484,0.8606,0.8562,0.8473,0.0,0.8372,0.0,0.0,0.0,0.0,0.0,0.0,0.0,0.0,0.0,0.0,0.0,0.0,0.0,0.0,0.0,0.0,0.0,0.0,1.6769,1.6823,1.7291,1.7506,1.7491,1.7485,1.7485,1.7485,1.7485,1.7485,1.7485,1.7678,1.7811,1.7877,1.8022,1.8227,1.8469,1.8348,1.8402,1.8589,1.8589,1.8704,1.8885,1.8951,1.8976,1.8982,1.9048,1.9078,1.9078,1.9078,1.9078,1.9078,1.9078,1.9078,1.9078,1.9078,1.9078,1.9264,2.0017,2.0202,2.0456,2.1475,2.1727,2.1978,2.2981,2.3596,2.4456,2.6189,2.7566,2.8717,2.9705,2.9892,2.992,3.002,3.0286,3.0516,3.0626,3.0892,3.1112,3.1212,3.156,3.1926,3.2348,3.2667,3.3048,3.3355,3.3418,3.3418,3.3418,3.3418,3.3418,3.3418,3.3418,3.4061,3.5444,3.6156,3.8071,4.1092,4.1427,4.2144,4.3251,4.3251,4.3439,0.6984,0.7453,0.7606,0.7856,0.8062,0.8114,0.8236,0.8258,0.8188,0.8183,0.0,0.0,0.0,0.0,0.0,0.0,0.0,0.0,0.0,0.0,0.0,0.0,0.0,0.0,0.0,0.0,0.0,0.0,0.0,1.5558,1.6453,1.6554,1.6844,1.7485,1.7485,1.7485,1.7485,1.7485,1.7485,1.7485,1.7497,1.763,1.7865,1.763,1.7666,1.7992,1.8185,1.83,1.8312,1.8312,1.8324,1.836,1.8607,1.8704,1.8734,1.8982,1.9078,1.9078,1.9078,1.9078,1.9078,1.9078,1.9078,1.9078,1.9078,1.9078,1.9142,1.9136,1.92,1.9392,2.0392,2.0703,2.0963,2.1915,2.2174,2.3278,2.7099,2.7977,2.8235,2.892,2.9048,2.9168,2.9544,2.9678,2.9773,3.0167,3.025,3.0396,3.0772,3.1125,3.1598,3.231,3.2667,3.3048,3.3355,3.3418,3.3418,3.3418,3.3418,3.3418,3.3418,3.3418,3.3437,3.351,3.4024,3.6034,3.9618,3.964,3.9915,4.0387,4.0387,4.1119,0.573,0.5597,0.5524,0.7249,0.7246,0.7036,0.7964,0.8179,0.8212,0.8136,0.0,0.0,0.0,0.0,0.0,0.0,0.0,0.0,0.0,0.0,0.0,0.0,0.0,0.0,0.0,0.0,0.0,0.0,0.0,0.0,1.5229,1.6059,1.6596,1.6832,1.7309,1.7485,1.7485,1.7485,1.7485,1.7485,1.7485,1.7533,1.7618,1.7527,1.7533,1.763,1.7726,1.7871,1.8022,1.8022,1.8131,1.8318,1.8583,1.8686,1.8716,1.8976,1.9078,1.9078,1.9078,1.9078,1.9078,1.9078,1.9078,1.9078,1.9078,1.9078,1.9078,1.9078,1.9078,1.92,1.9514,1.9641,1.989,2.0899,2.1601,2.2598,2.444,2.5973,2.7323,2.8191,2.8687,2.903,2.9168,2.9406,2.9626,2.9773,3.003,3.025,3.0396,3.0751,3.1152,3.1617,3.2251,3.2731,3.3048,3.3292,3.3418,3.3418,3.3418,3.3418,3.3418,3.3418,3.3418,3.3418,3.3574,3.4863,3.7403,3.7636,3.8316,3.9379,3.9379,3.9633,0.4455,0.427,0.4252,0.6313,0.6368,0.6248,0.7643,0.7997,0.8043,0.0,0.0,0.0,0.0,0.0,0.0,0.0,0.0,0.0,0.0,0.0,0.0,0.0,0.0,0.0,0.0,0.0,0.0,0.0,0.0,0.0,1.4083,1.5224,1.6059,1.6478,1.7126,1.7485,1.7485,1.7485,1.7485,1.7485,1.7485,1.7485,1.7485,1.7485,1.7485,1.7485,1.7485,1.7581,1.7744,1.7744,1.7853,1.8058,1.8414,1.8553,1.8595,1.8945,1.9078,1.9078,1.9078,1.9078,1.9078,1.9078,1.9078,1.9078,1.9078,1.9078,1.9078,1.9078,1.9078,1.9078,1.9078,1.9078,1.9264,1.9954,2.0589,2.1278,2.2076,2.4178,2.6216,2.7272,2.8131,2.8746,2.8984,2.9204,2.9369,2.9369,2.9617,2.9846,2.9975,3.0213,3.0558,3.1062,3.1646,3.2188,3.2637,3.3024,3.3271,3.3408,3.3418,3.3418,3.3418,3.3418,3.3418,3.3418,3.3418,3.3988,3.5267,3.5715,3.6449,3.7467,3.7467,3.772,0.0,0.0,0.0,0.5162,0.5431,0.5782,0.7313,0.0,0.0,0.0,0.0,0.0,0.0,0.0,0.0,0.0,0.0,0.0,0.0,0.0,0.0,0.0,0.0,0.0,0.0,0.0,0.0,0.0,0.0,1.241,1.3122,1.4088,1.5224,1.6478,1.7126,1.7485,1.7485,1.7485,1.7485,1.7485,1.7485,1.7485,1.7485,1.7485,1.7485,1.7485,1.7485,1.7485,1.7485,1.7485,1.7485,1.7533,1.807,1.8287,1.8354,1.8873,1.9066,1.9078,1.9078,1.9078,1.9078,1.9078,1.9078,1.9078,1.9078,1.9078,1.9078,1.9078,1.9078,1.9078,1.9078,1.9078,1.9078,1.9078,1.9078,1.9386,2.0329,2.264,2.4871,2.6147,2.7203,2.808,2.8737,2.8916,2.8925,2.8925,2.8984,2.9122,2.9507,2.9562,2.984,3.0624,3.0978,3.1456,3.2186,3.2587,3.2959,3.3379,3.3408,3.3408,3.3418,3.3418,3.3418,3.3418,3.3418,3.3418,3.3418,3.3848,3.4267,3.4658,3.4658,3.5421,0.1586,0.0,0.0,0.0,0.0,0.0,0.0,0.0,0.0,0.0,0.0,0.0,0.0,0.0,0.0,0.0,0.0,0.0,0.0,0.0,0.0,0.0,0.0,0.0,0.0,0.0,0.0,0.0,0.9822,1.0785,1.2414,1.4277,1.565,1.6478,1.7126,1.7485,1.7485,1.7485,1.7485,1.7485,1.7485,1.7485,1.7485,1.7485,1.7485,1.7485,1.7485,1.7485,1.7485,1.7485,1.7485,1.7515,1.7859,1.8112,1.833,1.8668,1.8915,1.9078,1.9078,1.9078,1.9078,1.9078,1.9078,1.9078,1.9078,1.9078,1.9078,1.9078,1.9078,1.9078,1.9078,1.9078,1.9078,1.9078,1.9078,1.92,1.945,2.0639,2.2194,2.3745,2.4786,2.5513,2.5696,2.6754,2.7564,2.7564,2.837,2.9021,2.9131,2.9397,2.9678,2.9849,3.0432,3.1035,3.1456,3.1783,3.2273,3.2949,3.2969,3.3105,3.3408,3.3418,3.3418,3.3418,3.3418,3.3418,3.3418,3.3545,3.3662,3.3779,3.3779,3.4128,0.0163,0.0,0.0272,0.2912,0.0,0.0,0.5917,0.6438,0.0,0.0,0.0,0.0,0.0,0.0,0.0,0.0,0.0,0.0,0.0,0.0,0.0,0.0,0.0,0.0,0.0,0.0,0.0,0.8665,0.9092,1.0122,1.2113,1.3729,1.5051,1.6065,1.6773,1.7244,1.7485,1.7376,1.7322,1.7322,1.7322,1.7322,1.7322,1.7436,1.7485,1.7485,1.7485,1.7485,1.7485,1.7485,1.7485,1.7521,1.7901,1.8149,1.8342,1.871,1.8945,1.9078,1.9078,1.9078,1.9078,1.9078,1.9078,1.9078,1.9078,1.9078,1.9078,1.9078,1.9078,1.9078,1.9078,1.9078,1.9078,1.9078,1.9078,1.9078,1.9078,1.9577,2.0449,2.2139,2.3241,2.4039,2.4455,2.533,2.62,2.6892,2.7693,2.837,2.8925,2.9186,2.9324,2.9324,2.9837,3.0363,3.0714,3.1047,3.1472,3.206,3.2448,3.2723,3.2903,3.3267,3.3418,3.3418,3.3252,3.3164,3.3164,3.334,3.3418,3.3418,3.3418,3.3555,-0.0928,-0.0921,-0.0539,0.0889,0.1911,0.0,0.4905,0.6016,0.0,0.0,0.0,0.0,0.0,0.0,0.0,0.0,0.0,0.0,0.0,0.0,0.0,0.0,0.0,0.0,0.0,0.7872,0.7872,0.7872,0.8787,1.0122,1.1933,1.2766,1.3904,1.5418,1.6124,1.6773,1.7367,1.7219,1.7092,1.7092,1.7092,1.7092,1.7098,1.7364,1.7485,1.7485,1.7485,1.7485,1.7485,1.7485,1.7485,1.7533,1.8046,1.8263,1.8354,1.8849,1.9048,1.9078,1.9078,1.9078,1.9078,1.9078,1.9078,1.9078,1.9078,1.9078,1.9078,1.9078,1.9078,1.9078,1.9078,1.9078,1.9078,1.9078,1.9078,1.9078,1.9078,1.9078,1.9514,2.1012,2.2076,2.3007,2.3854,2.4155,2.484,2.6338,2.6831,2.7444,2.8609,2.8916,2.8984,2.8984,2.9272,2.9599,2.9981,3.031,3.066,3.1129,3.1765,3.2128,3.2238,3.2836,3.3218,3.3281,3.292,3.2725,3.2725,3.3193,3.3418,3.3418,3.3418,3.3418,-0.1222,-0.1047,-0.0601,0.0668,0.0441,0.0,0.3571,0.3641,0.3617,0.0,0.0,0.0,0.0,0.0,0.0,0.0,0.0,0.0,0.0,0.0,0.0,0.0,0.0,0.0,0.0,0.7872,0.7872,0.7872,0.8787,0.9822,1.1027,1.2406,1.3665,1.4748,1.5882,1.6537,1.6714,1.6988,1.7092,1.7092,1.7092,1.7092,1.7098,1.7364,1.7485,1.7485,1.7485,1.7485,1.7485,1.7485,1.7485,1.7515,1.7829,1.8094,1.833,1.8644,1.8891,1.9078,1.9078,1.9078,1.9078,1.9078,1.9078,1.9078,1.9078,1.9078,1.9078,1.9078,1.9078,1.9078,1.9078,1.9078,1.9078,1.9078,1.9078,1.9078,1.9078,1.9078,1.92,1.9514,1.9947,2.0456,2.0906,2.2083,2.3186,2.3752,2.566,2.7082,2.7383,2.831,2.8984,2.8984,2.9035,2.925,2.9561,2.9689,2.9987,3.0641,3.0876,3.1197,3.1786,3.1954,3.2167,3.2412,3.2334,3.2285,3.2295,3.3057,3.3418,3.3418,3.3418,3.3418,-0.1547,-0.1431,-0.1152,-0.039,-0.0275,0.0,0.0,0.2366,0.2806,0.0,0.0,0.0,0.0,0.0,0.0,0.0,0.0,0.0,0.0,0.0,0.0,0.0,0.0,0.0,0.0,0.7872,0.7872,0.7872,0.836,0.9031,1.0001,1.1404,1.2682,1.3849,1.51,1.5774,1.5882,1.5983,1.5978,1.5978,1.5978,1.604,1.6166,1.6423,1.6714,1.7009,1.7009,1.7185,1.7485,1.7485,1.7485,1.7521,1.7925,1.8173,1.8342,1.8734,1.8963,1.9078,1.9078,1.9078,1.9078,1.9078,1.9078,1.9078,1.9078,1.9078,1.9078,1.9078,1.9078,1.9078,1.9078,1.9078,1.9078,1.9078,1.9078,1.9078,1.9078,1.9078,1.9078,1.9078,1.9264,1.9456,1.9775,2.0722,2.1713,2.2702,2.4124,2.5538,2.6831,2.7573,2.8241,2.8925,2.8984,2.9044,2.9213,2.9272,2.9424,2.9748,3.0143,3.054,3.0878,3.126,3.1504,3.1585,3.1808,3.1939,3.1846,3.248,3.29,3.3105,3.3105,3.3223,-0.1814,-0.1814,-0.1708,-0.1447,-0.0764,0.0054,0.0,0.0,0.0,0.3174,0.0,0.0,0.0,0.0,0.0,0.0,0.0,0.0,0.0,0.0,0.0,0.0,0.0,0.0,0.0,0.785,0.7847,0.7869,0.785,0.8274,0.9275,1.0262,1.1513,1.3004,1.4144,1.4856,1.5258,1.499,1.4907,1.495,1.4902,1.5004,1.5235,1.5483,1.5893,1.6301,1.6301,1.6655,1.7132,1.7132,1.7185,1.735,1.7961,1.8245,1.8354,1.8825,1.9036,1.9078,1.9078,1.9078,1.9078,1.9078,1.9078,1.9078,1.9078,1.9078,1.9078,1.9078,1.9078,1.9078,1.9078,1.9078,1.9078,1.9078,1.9078,1.9078,1.9078,1.9078,1.9078,1.9078,1.9036,1.9145,1.9507,1.9839,2.0532,2.1957,2.264,2.3876,2.6277,2.6831,2.7504,2.8856,2.8984,2.8984,2.8984,2.8984,2.8984,2.8984,2.9536,2.9902,2.9962,3.0634,3.0886,3.0773,3.1187,3.1327,3.1218,3.1558,3.2056,3.2676,3.2754,3.2978,-0.179,-0.179,-0.1784,-0.1761,-0.164,-0.1353,-0.0474,0.0,0.0106,0.0995,0.0,0.0,0.0,0.0,0.0,0.0,0.0,0.0,0.0,0.0,0.0,0.0,0.0,0.0,0.0,0.0,0.7763,0.7864,0.7777,0.8188,0.9268,0.9526,1.058,1.2532,1.3233,1.4024,1.5024,1.4924,1.4988,1.5182,1.4982,1.5004,1.5235,1.5483,1.5661,1.5715,1.5715,1.5774,1.5833,1.5833,1.6129,1.6684,1.7625,1.8076,1.833,1.8625,1.8879,1.9078,1.9078,1.9078,1.9078,1.9078,1.9078,1.9078,1.9078,1.9078,1.9078,1.9078,1.9078,1.9078,1.9078,1.9078,1.9078,1.9078,1.9078,1.9078,1.9078,1.9078,1.9078,1.9078,1.8885,1.8927,1.947,1.9641,1.9896,2.0729,2.1839,2.3256,2.4994,2.6277,2.7504,2.8856,2.8984,2.8984,2.8984,2.8984,2.8984,2.8984,2.908,2.9287,2.9574,2.9858,3.0045,3.0057,3.0104,3.0104,3.0057,3.0163,3.0899,3.2307,3.2627,3.2822,-0.1795,-0.1795,-0.1788,-0.1812,-0.179,-0.1663,-0.1268,-0.1147,-0.0881,-0.0052,0.0,0.0,0.0,0.0,0.0,0.0,0.0,0.0,0.0,0.0,0.0,0.0,0.0,0.0,0.0,0.0,0.0,0.0,0.0,0.7902,0.8371,0.9665,1.0838,1.1642,1.311,1.4057,1.4244,1.4208,1.4171,1.4131,1.4046,1.4116,1.4321,1.448,1.4699,1.4992,1.4451,1.4381,1.4738,1.4738,1.4852,1.5213,1.617,1.7152,1.804,1.8087,1.8437,1.8873,1.9024,1.9078,1.9078,1.9078,1.9078,1.9078,1.9078,1.9078,1.9078,1.9078,1.9078,1.9078,1.9078,1.9078,1.9078,1.9078,1.9078,1.9078,1.9078,1.9078,1.903,1.8879,1.8758,1.873,1.8813,1.9117,1.9474,1.9726,2.0737,2.1964,2.3442,2.4247,2.5538,2.7633,2.7813,2.8122,2.8925,2.8984,2.8984,2.8984,2.8984,2.9035,2.9213,2.9331,2.9459,2.9686,2.9686,2.9745,2.9922,2.9922,3.023,3.088,3.1312,3.1763,-0.1795,-0.1795,-0.1785,-0.1802,-0.172,-0.17,-0.1684,-0.166,-0.1446,-0.09,-0.1063,0.0,0.0,0.0,-0.1232,-0.0799,0.0,0.0431,0.0,0.0,0.0,0.0,0.0,0.0,0.0,0.0,0.0,0.0,0.0,0.0,0.7744,0.9384,1.0596,1.1157,1.2708,1.3657,1.3863,1.3745,1.3494,1.3054,1.3297,1.3258,1.2904,1.3144,1.338,1.3545,1.2826,1.2817,1.3228,1.3228,1.3467,1.3889,1.4451,1.5753,1.7283,1.7241,1.7695,1.8345,1.853,1.8776,1.8969,1.8969,1.9018,1.9078,1.9078,1.9078,1.9078,1.9078,1.9078,1.9078,1.9078,1.9078,1.9078,1.9078,1.9078,1.9078,1.9078,1.9018,1.8915,1.8722,1.8565,1.8402,1.8209,1.8581,1.9032,1.9162,1.9789,2.082,2.2382,2.2827,2.3876,2.6216,2.6771,2.7383,2.837,2.8797,2.8984,2.8984,2.8984,2.8984,2.8984,2.8984,2.9094,2.9331,2.939,2.945,2.9627,2.9627,2.9627,2.9695,3.0298,3.0929,0.0,0.0,-0.178,-0.172,-0.1705,-0.169,-0.1633,-0.1662,-0.1702,-0.1651,-0.0984,-0.0727,-0.1567,-0.105,-0.0706,-0.1549,-0.0905,0.0,0.0,0.0,0.0,0.0,0.0,0.0,0.0,0.0,0.0,0.0,0.0,0.0,0.7853,0.8158,0.9242,1.1333,1.1494,1.2458,1.4231,1.3892,1.32,1.2225,1.3008,1.2544,1.091,1.1812,1.1752,1.091,1.091,1.091,1.0906,1.0906,1.1804,1.3181,1.253,1.3679,1.5699,1.5942,1.6597,1.7353,1.7358,1.7972,1.8698,1.8698,1.8873,1.9078,1.9078,1.9078,1.9078,1.9078,1.9078,1.9078,1.9078,1.9078,1.9078,1.9078,1.9078,1.9078,1.9078,1.8879,1.8692,1.8686,1.8257,1.7895,1.7889,1.8118,1.8514,1.9137,1.925,2.0082,2.2284,2.264,2.3256,2.4871,2.6225,2.7013,2.7073,2.8241,2.8984,2.8984,2.8984,2.8984,2.8984,2.8984,2.8984,2.9044,2.9044,2.9044,2.9044,2.9044,2.9044,2.9053,3.0118,3.0635,0.0,0.0,-0.1785,-0.1799,0.0,0.0,-0.1656,-0.1662,-0.1671,-0.165,-0.1496,-0.1428,-0.1685,-0.1525,-0.1413,-0.1655,-0.1477,-0.1041,0.0,0.0,0.0,0.0,0.0,0.0,0.0,0.0,0.0,0.0,0.0,0.0,0.0,0.86,0.9425,1.0176,1.1062,1.1712,1.2171,1.2167,1.1803,1.1269,1.1575,1.1399,1.0789,1.1152,1.1091,1.0789,1.0122,0.9822,0.9822,0.9822,1.0543,1.1627,1.2053,1.308,1.4431,1.5074,1.5812,1.6508,1.71,1.7775,1.8426,1.8426,1.8487,1.8559,1.8559,1.8559,1.8595,1.877,1.8819,1.8855,1.903,1.9078,1.9078,1.9078,1.9078,1.9078,1.9078,1.8873,1.8632,1.8463,1.8125,1.7817,1.7648,1.7696,1.7907,1.8289,1.8668,1.9186,2.0009,2.0262,2.1129,2.2978,2.3551,2.4672,2.6814,2.8241,2.8984,2.8984,2.8984,2.8984,2.8984,2.8984,2.8984,2.8984,2.8984,2.8984,2.8984,2.8984,2.8984,2.8984,2.9361,2.9684,-0.1795,-0.1795,0.0,-0.1812,-0.1789,0.0,-0.1723,0.0,-0.1671,-0.1652,-0.1693,-0.1734,-0.1736,-0.1735,-0.1727,-0.1707,-0.168,-0.15,0.0,0.0311,0.0,0.0,0.0,0.0,0.0,0.0,0.6427,0.7447,0.0,0.0,0.0,0.0,0.9243,0.9679,1.0489,1.1009,1.1179,1.1224,1.0929,1.0243,1.0607,1.0422,0.9754,1.0122,1.0061,0.9758,0.9089,0.8787,0.8787,0.8787,0.9396,1.0304,1.0906,1.1997,1.3278,1.4203,1.5099,1.5964,1.6778,1.7506,1.8143,1.8143,1.8215,1.8294,1.8294,1.8294,1.8348,1.8607,1.8686,1.8746,1.9006,1.9078,1.9054,1.8957,1.8933,1.8909,1.8819,1.8589,1.8348,1.8179,1.7919,1.7678,1.7509,1.7485,1.7569,1.7835,1.8203,1.8538,1.8759,1.9016,1.9624,2.1012,2.1803,2.3337,2.6062,2.7073,2.7753,2.8241,2.8301,2.8489,2.8984,2.8984,2.8984,2.8984,2.8984,2.8984,2.8984,2.8984,2.8984,2.8984,2.8984,2.9122]}]]